logo
Games released in 2015
# Game Release date
Price
Score rank
(Userscore / Metascore)
Owners
Playtime (Median)
Developer(s)
Publisher(s)
1 Grand Theft Auto V Apr 14, 2015 $29.98N/A (N/A/96%)20,000,000 .. 50,000,00012:20 (03:32)Rockstar NorthRockstar Games
2 Divinity: Original Sin - Enhanced Edition Oct 27, 2015 $39.99N/A (N/A/94%)1,000,000 .. 2,000,00011:09 (04:44)Larian StudiosLarian Studios
3 The Witcher 3: Wild Hunt May 18, 2015 $39.99N/A (N/A/93%)10,000,000 .. 20,000,00013:21 (04:32)CD PROJEKT REDCD PROJEKT RED
4 Undertale Sep 15, 2015 $9.99N/A (N/A/92%)2,000,000 .. 5,000,00004:01 (02:43)tobyfoxtobyfox
5 METAL GEAR SOLID V: THE PHANTOM PAIN Sep 1, 2015 $19.99N/A (N/A/91%)1,000,000 .. 2,000,00002:27 (02:26)Konami Digital EntertainmentKonami Digital Entertainment
6 Nuclear Throne Dec 5, 2015 $11.99N/A (N/A/89%)500,000 .. 1,000,00002:02 (00:40)VlambeerVlambeer
7 Pillars of Eternity Mar 26, 2015 $29.99N/A (N/A/89%)1,000,000 .. 2,000,00000:00 (00:00)Obsidian EntertainmentParadox Interactive
8 Ori and the Blind Forest Mar 11, 2015 N/AN/A (N/A/88%)1,000,000 .. 2,000,00000:00 (00:00)Moon Studios GmbHXbox Game Studios
9 Kerbal Space Program Apr 27, 2015 $39.99N/A (N/A/88%)2,000,000 .. 5,000,00002:06 (02:26)SquadPrivate Division
10 Oddworld: New 'n' Tasty Feb 25, 2015 $19.99N/A (N/A/87%)200,000 .. 500,00000:00 (00:00)Just Add Water (Developments), Ltd.Oddworld Inhabitants, Inc.
11 Crypt of the NecroDancer Apr 23, 2015 $14.99N/A (N/A/87%)2,000,000 .. 5,000,00000:00 (00:00)Brace Yourself GamesBrace Yourself Games, Klei Entertainment
12 Dying Light Jan 26, 2015 $39.99N/A (N/A/87%)5,000,000 .. 10,000,00006:48 (07:01)TechlandTechland Publishing
13 Ground Control Anthology Jul 8, 2015 $4.99N/A (N/A/86%)20,000 .. 50,00000:00 (00:00)Massive EntertainmentRebellion
14 Mushihimesama Nov 12, 2015 $19.99N/A (N/A/86%)20,000 .. 50,00000:00 (00:00)CAVE Interactive CO.,LTD.Degica
15 Total Annihilation Dec 18, 2015 $4.99N/A (N/A/86%)100,000 .. 200,00000:00 (00:00)Cavedog EntertainmentWargaming.net
16 Her Story Jun 24, 2015 $9.99N/A (N/A/86%)1,000,000 .. 2,000,00000:00 (00:00)Sam BarlowSam Barlow
17 Homeworld Remastered Collection Feb 25, 2015 $34.99N/A (N/A/86%)500,000 .. 1,000,00000:00 (00:00)Gearbox SoftwareGearbox Publishing
18 DiRT Rally Dec 7, 2015 $19.99N/A (N/A/86%)2,000,000 .. 5,000,00001:23 (01:47)Codemasters Racing Studio, Feral Interactive (Linux), Feral Interactive (Mac)Codemasters, Feral Interactive (Linux), Feral Interactive (Mac)
19 Rocket League Jul 7, 2015 N/AN/A (N/A/86%)10,000,000 .. 20,000,00010:16 (05:34)Psyonix LLCPsyonix LLC
20 Zenzizenzic Jul 23, 2015 $9.99N/A (N/A/85%)0 .. 20,00000:00 (00:00)bitHuffelAdult Swim Games
21 Roche Fusion Jan 23, 2015 $5.99N/A (N/A/85%)0 .. 20,00000:00 (00:00)amulwareamulware
22 Mighty Switch Force! Hyper Drive Edition Jun 25, 2015 $9.99N/A (N/A/85%)20,000 .. 50,00000:00 (00:00)WayForwardWayForward
23 Chaos Reborn Oct 26, 2015 $9.99N/A (N/A/85%)50,000 .. 100,00000:00 (00:00)Snapshot Games Inc.Snapshot Games Inc.
24 System Shock: Enhanced Edition Oct 22, 2015 $9.99N/A (N/A/85%)200,000 .. 500,00000:00 (00:00)Looking Glass Studios, Nightdive StudiosNightdive Studios
25 Mega Man Legacy Collection Aug 24, 2015 $14.99N/A (N/A/85%)200,000 .. 500,00000:00 (00:00)CapcomCapcom
26 Cities: Skylines Mar 10, 2015 $29.99N/A (N/A/85%)5,000,000 .. 10,000,00007:48 (03:38)Colossal Order Ltd.Paradox Interactive
27 Bulb Boy Oct 29, 2015 $8.99N/A (N/A/84%)100,000 .. 200,00000:00 (00:00)BulbwareBulbware
28 80 Days Sep 28, 2015 $12.99N/A (N/A/84%)100,000 .. 200,00000:00 (00:00)inkle Ltd, Cape Guy Ltdinkle Ltd
29 GUILTY GEAR Xrd -SIGN- Dec 9, 2015 $29.99N/A (N/A/84%)100,000 .. 200,00000:00 (00:00)Arc System WorksArc System Works
30 Grim Fandango Remastered Jan 26, 2015 $14.99N/A (N/A/84%)200,000 .. 500,00000:00 (00:00)Double Fine ProductionsDouble Fine Productions
31 SOMA Sep 21, 2015 $29.99N/A (N/A/84%)500,000 .. 1,000,00000:00 (00:00)Frictional GamesFrictional Games
32 Mortal Kombat X Apr 13, 2015 $19.99N/A (N/A/84%)1,000,000 .. 2,000,00001:44 (02:10)NetherRealm Studios, QLOCWarner Bros. Interactive Entertainment
33 Fallout 4 Nov 9, 2015 $14.99N/A (N/A/84%)5,000,000 .. 10,000,00017:42 (30:55)Bethesda Game StudiosBethesda Softworks
34 Independence War 2: Edge of Chaos May 7, 2015 $5.99N/A (N/A/83%)0 .. 20,00000:00 (00:00)Particle Systems Ltd.Atari
35 Beyond Sol Oct 13, 2015 $9.99N/A (N/A/83%)0 .. 20,00000:00 (00:00)Praxia Entertainment IncPraxia Entertainment Inc
36 Divide By Sheep Jul 2, 2015 $4.99N/A (N/A/83%)2,000,000 .. 5,000,00000:00 (00:00)Victor Solodilov, Denis NovikovtinyBuild
37 CLANNAD Nov 23, 2015 $44.99N/A (N/A/83%)100,000 .. 200,00000:00 (00:00)VisualArts/KeySekai Project
38 Project CARS Mar 15, 2015 $19.99N/A (N/A/83%)1,000,000 .. 2,000,00000:00 (00:00)Slightly Mad StudiosSlightly Mad Studios, BANDAI NAMCO Entertainment
39 HELLDIVERS Dive Harder Edition Dec 7, 2015 $19.99N/A (N/A/83%)1,000,000 .. 2,000,00000:00 (00:00)Arrowhead Game StudiosPlayStation Mobile, Inc.
40 Broforce Oct 15, 2015 $14.99N/A (N/A/83%)2,000,000 .. 5,000,00000:01 (00:00)Free LivesDevolver Digital
41 Prison Architect Oct 6, 2015 $29.99N/A (N/A/83%)2,000,000 .. 5,000,00001:06 (01:05)Double Eleven, Introversion SoftwareParadox Interactive
42 SMITE Sep 8, 2015 FreeN/A (N/A/83%)10,000,000 .. 20,000,00004:27 (04:18)Titan Forge GamesHi-Rez Studios
43 The Next Penelope May 29, 2015 $12.99N/A (N/A/82%)20,000 .. 50,00000:00 (00:00)Aurelien RegardPlug In Digital
44 Ninja Pizza Girl Sep 30, 2015 $6.99N/A (N/A/82%)50,000 .. 100,00000:00 (00:00)Disparity GamesDisparity Games
45 OlliOlli2: Welcome to Olliwood Aug 11, 2015 $14.99N/A (N/A/82%)50,000 .. 100,00000:00 (00:00)Roll7Devolver Digital
46 BLACKHOLE Feb 27, 2015 $8.99N/A (N/A/82%)20,000 .. 50,00000:00 (00:00)FiolaSoft Studio1C Entertainment
47 Kero Blaster Nov 11, 2015 $9.99N/A (N/A/82%)200,000 .. 500,00000:00 (00:00)Studio PixelPLAYISM
48 Technobabylon May 2015 $14.99N/A (N/A/82%)100,000 .. 200,00000:00 (00:00)Technocrat GamesWadjet Eye Games
49 Invisible, Inc. May 12, 2015 $19.99N/A (N/A/82%)500,000 .. 1,000,00000:00 (00:00)Klei EntertainmentKlei Entertainment
50 Resident Evil Jan 19, 2015 $19.99N/A (N/A/82%)1,000,000 .. 2,000,00000:00 (00:00)CAPCOM Co., Ltd.CAPCOM Co., Ltd.
51 Hacknet Aug 12, 2015 $9.99N/A (N/A/82%)1,000,000 .. 2,000,000164:13 (109:28)Team Fractal AlligatorFellow Traveller
52 Duck Game Jun 4, 2015 $12.99N/A (N/A/82%)1,000,000 .. 2,000,00000:14 (00:04)Landon PodbielskiAdult Swim Games
53 Vietnam ‘65 Mar 5, 2015 $9.99N/A (N/A/81%)20,000 .. 50,00000:00 (00:00)Every Single SoldierSlitherine Ltd.
54 Kalimba Apr 22, 2015 $9.99N/A (N/A/81%)50,000 .. 100,00000:00 (00:00)Press PlayXbox Game Studios
55 Order of Battle: World War II Apr 30, 2015 FreeN/A (N/A/81%)200,000 .. 500,00000:00 (00:00)The ArtistocratsSlitherine Ltd.
56 The Age of Decadence Oct 14, 2015 $12.99N/A (N/A/81%)100,000 .. 200,00000:00 (00:00)Iron Tower StudioIron Tower Studio
57 Shadowrun: Hong Kong - Extended Edition Aug 20, 2015 $19.99N/A (N/A/81%)500,000 .. 1,000,00000:00 (00:00)Harebrained SchemesParadox Interactive
58 Downwell Oct 15, 2015 $2.99N/A (N/A/81%)200,000 .. 500,00000:24 (00:15)MoppinDevolver Digital
59 SUNLESS SEA Feb 6, 2015 $18.99N/A (N/A/81%)500,000 .. 1,000,00000:00 (00:00)Failbetter GamesFailbetter Games
60 Galactic Civilizations III May 14, 2015 $24.99N/A (N/A/81%)500,000 .. 1,000,00000:00 (00:00)Stardock EntertainmentStardock Entertainment
61 The Corporate Machine Mar 25, 2015 $9.99N/A (N/A/80%)20,000 .. 50,00000:00 (00:00)Stardock EntertainmentStardock Entertainment
62 Bowl Bound College Football Sep 3, 2015 $19.99N/A (N/A/80%)20,000 .. 50,00000:00 (00:00)Grey Dog SoftwareViva Meda
63 Ground Control II: Operation Exodus Jul 8, 2015 $4.99N/A (N/A/80%)20,000 .. 50,00000:00 (00:00)Massive EntertainmentRebellion
64 Circa Infinity Sep 8, 2015 $7.99N/A (N/A/80%)20,000 .. 50,00000:00 (00:00)Kenny SunKenny Sun
65 Company of Heroes 2 - The British Forces Sep 2, 2015 $12.99N/A (N/A/80%)0 .. 20,00000:00 (00:00)Relic Entertainment, Feral Interactive (Mac), Feral Interactive (Linux)SEGA, Feral Interactive (Mac), Feral Interactive (Linux)
66 Penarium Sep 22, 2015 $1.49N/A (N/A/80%)50,000 .. 100,00000:00 (00:00)Self Made MiracleTeam17 Digital Ltd
67 DARIUSBURST Chronicle Saviours Dec 3, 2015 $49.99N/A (N/A/80%)50,000 .. 100,00000:00 (00:00)PyramidDegica, Chara-Ani, TAITO CORP.
68 Volume Aug 18, 2015 $19.99N/A (N/A/80%)50,000 .. 100,00000:00 (00:00)Bithell GamesBithell Games
69 The Book of Unwritten Tales 2 Feb 19, 2015 $29.99N/A (N/A/80%)50,000 .. 100,00000:00 (00:00)KING ArtTHQ Nordic
70 Odallus: The Dark Call Jul 15, 2015 $9.99N/A (N/A/80%)50,000 .. 100,00000:00 (00:00)JoyMasherJoyMasher
71 Dropsy Sep 10, 2015 $9.99N/A (N/A/80%)50,000 .. 100,00000:00 (00:00)Tendershoot, A Jolly CorpseDevolver Digital
72 The Legend of Heroes: Trails in the Sky SC Oct 29, 2015 $29.99N/A (N/A/80%)100,000 .. 200,00000:00 (00:00)Nihon FalcomXSEED Games, Marvelous USA, Inc.
73 Guns, Gore & Cannoli Apr 30, 2015 $9.99N/A (N/A/80%)100,000 .. 200,00000:00 (00:00)Rogueside, ClaeysbrothersRogueside
74 Lovers in a Dangerous Spacetime Sep 9, 2015 $14.99N/A (N/A/80%)200,000 .. 500,00000:00 (00:00)Asteroid BaseAsteroid Base
75 Rampage Knights Sep 4, 2015 $11.99N/A (N/A/80%)200,000 .. 500,00000:00 (00:00)Rake in GrassRake in Grass
76 ArcheAge Mar 26, 2015 FreeN/A (N/A/80%)1,000,000 .. 2,000,00000:00 (00:00)XLGAMESTrion Worlds
77 Card Hunter Jul 13, 2015 FreeN/A (N/A/80%)1,000,000 .. 2,000,00000:00 (00:00)The Knights of UnityThe Knights of Unity
78 Axiom Verge May 14, 2015 $19.99N/A (N/A/80%)200,000 .. 500,00000:00 (00:00)Thomas Happ Games LLCThomas Happ Games LLC
79 Total War: ATTILA Feb 17, 2015 $11.24N/A (N/A/80%)1,000,000 .. 2,000,00000:02 (00:00)CREATIVE ASSEMBLYSEGA
80 Elite Dangerous Apr 2, 2015 $29.99N/A (N/A/80%)2,000,000 .. 5,000,00016:02 (13:22)Frontier DevelopmentsFrontier Developments
81 Frozen Cortex Feb 19, 2015 $24.99N/A (N/A/79%)20,000 .. 50,00000:00 (00:00)Mode 7Mode 7
82 Else Heart.Break() Sep 24, 2015 $24.99N/A (N/A/79%)200,000 .. 500,00000:00 (00:00)Erik Svedäng, El Huervo / Niklas Åkerblad, Tobias Sjögren, Oscar "Ratvader" Rydelius, Johannes GotlénErik Svedäng AB
83 The Magic Circle Jul 9, 2015 $19.99N/A (N/A/79%)100,000 .. 200,00000:00 (00:00)QuestionQuestion
84 STASIS Aug 31, 2015 $9.99N/A (N/A/79%)200,000 .. 500,00000:00 (00:00)THE BROTHERHOODTHE BROTHERHOOD
85 Assault Android Cactus+ Sep 23, 2015 $19.99N/A (N/A/79%)100,000 .. 200,00001:11 (00:23)Witch BeamWitch Beam
86 iRacing Jan 12, 2015 N/AN/A (N/A/79%)200,000 .. 500,00000:00 (00:00)iRacing.com Motorsport Simulations, iRacingiRacing.com Motorsport Simulations, iRacing
87 BADLAND: Game of the Year Edition May 26, 2015 $1.19N/A (N/A/79%)200,000 .. 500,00000:00 (00:00)FrogmindFrogmind
88 The Incredible Adventures of Van Helsing: Final Cut Nov 6, 2015 $44.99N/A (N/A/79%)500,000 .. 1,000,00000:00 (00:00)NeocoreGamesNeocoreGames
89 Jotun: Valhalla Edition Sep 29, 2015 $3.74N/A (N/A/79%)2,000,000 .. 5,000,00000:00 (00:00)Thunder Lotus GamesThunder Lotus Games
90 Warhammer: End Times - Vermintide Oct 23, 2015 $29.99N/A (N/A/79%)1,000,000 .. 2,000,00001:36 (00:39)FatsharkFatshark
91 DARK SOULS II: Scholar of the First Sin Apr 1, 2015 $39.99N/A (N/A/79%)2,000,000 .. 5,000,00000:42 (00:27)FromSoftware, IncBANDAI NAMCO Entertainment, FromSoftware, Inc
92 AR-K: The Great Escape Jul 14, 2015 $7.99N/A (N/A/78%)0 .. 20,00000:00 (00:00)GATO STUDIOGATO STUDIO
93 Avernum 2: Crystal Souls Jan 14, 2015 $19.99N/A (N/A/78%)20,000 .. 50,00000:00 (00:00)Spiderweb SoftwareSpiderweb Software
94 GALAK-Z Oct 29, 2015 $19.99N/A (N/A/78%)100,000 .. 200,00000:00 (00:00)17-BIT17-BIT
95 Mushroom 11 Oct 15, 2015 $14.99N/A (N/A/78%)100,000 .. 200,00000:00 (00:00)UntameUntame
96 Apotheon Feb 3, 2015 $14.99N/A (N/A/78%)200,000 .. 500,00000:00 (00:00)AlientrapAlientrap
97 Human Resource Machine Oct 15, 2015 $14.99N/A (N/A/78%)500,000 .. 1,000,00000:00 (00:00)Tomorrow CorporationTomorrow Corporation
98 RUNNING WITH RIFLES Apr 2, 2015 $2.99N/A (N/A/78%)500,000 .. 1,000,00000:01 (00:00)Osumia GamesOsumia Games
99 Hand of Fate Feb 17, 2015 $19.99N/A (N/A/78%)500,000 .. 1,000,00000:00 (00:00)Defiant DevelopmentDefiant Development
100 Three Fourths Home: Extended Edition Mar 20, 2015 $4.99N/A (N/A/77%)20,000 .. 50,00000:00 (00:00)[bracket]gamesDigerati
101 Pix the Cat Jan 29, 2015 $9.99N/A (N/A/77%)50,000 .. 100,00000:00 (00:00)PastagamesFocus Home Interactive
102 Interloper May 21, 2015 FreeN/A (N/A/77%)20,000 .. 50,00000:00 (00:00)Monogon GamesMonogon Games
103 Lords of the Realm II Dec 3, 2015 $2.99N/A (N/A/77%)50,000 .. 100,00000:00 (00:00)Impressions GamesRebellion
104 Deathtrap Feb 4, 2015 $19.99N/A (N/A/77%)200,000 .. 500,00000:00 (00:00)NeocoreGamesNeocoreGames
105 Aviary Attorney Dec 21, 2015 $14.99N/A (N/A/77%)50,000 .. 100,00000:00 (00:00)Sketchy LogicSketchy Logic
106 Grey Goo Jan 23, 2015 $29.99N/A (N/A/77%)200,000 .. 500,00000:00 (00:00)Petroglyph, Six FootSix Foot, Grey Box
107 Tales of Zestiria Oct 19, 2015 $49.99N/A (N/A/77%)500,000 .. 1,000,00000:00 (00:00)BANDAI NAMCO Studio Inc.BANDAI NAMCO Entertainment
108 Mini Metro Nov 6, 2015 $9.99N/A (N/A/77%)500,000 .. 1,000,00000:02 (00:00)Dinosaur Polo ClubDinosaur Polo Club
109 Evolve Stage 2 Feb 10, 2015 N/AN/A (N/A/77%)5,000,000 .. 10,000,00001:18 (00:26)Turtle Rock Studios2K
110 Gunpowder Jul 8, 2015 $1.99N/A (N/A/76%)0 .. 20,00000:00 (00:00)Rogue Rocket GamesRogue Rocket Games
111 Galacide Jul 28, 2015 $9.99N/A (N/A/76%)0 .. 20,00000:00 (00:00)Puny HumanPuny Human
112 Luckslinger Jul 16, 2015 $9.99N/A (N/A/76%)20,000 .. 50,00000:00 (00:00)DuckbridgeDuckbridge
113 JumpJet Rex Apr 21, 2015 $9.99N/A (N/A/76%)50,000 .. 100,00000:00 (00:00)TreeFortress GamesTreeFortress Games
114 Concrete Jungle Sep 23, 2015 $6.99N/A (N/A/76%)100,000 .. 200,00000:00 (00:00)ColePowered GamesColePowered Games
115 Ys VI: The Ark of Napishtim Apr 28, 2015 $19.99N/A (N/A/76%)50,000 .. 100,00000:00 (00:00)Nihon FalcomXSEED Games, Marvelous USA, Inc.
116 Castle In The Darkness Feb 5, 2015 $9.99N/A (N/A/76%)50,000 .. 100,00000:00 (00:00)Matt Kap, Nicalis, Inc.Nicalis, Inc.
117 Overture Feb 2, 2015 $4.99N/A (N/A/76%)200,000 .. 500,00000:00 (00:00)Black Shell GamesPlug In Digital
118 STAR WARS Battlefront Nov 16, 2015 $19.99N/A (N/A/76%)500,000 .. 1,000,00000:00 (00:00)DICEElectronic Arts
119 Pathologic Classic HD Oct 29, 2015 $12.99N/A (N/A/76%)100,000 .. 200,00000:00 (00:00)Ice-Pick Lodge, General ArcadeGood Shepherd Entertainment
120 Audiosurf 2 May 26, 2015 $14.99N/A (N/A/76%)200,000 .. 500,00000:00 (00:00)Dylan FittererDylan Fitterer
121 Blood Bowl 2 Sep 22, 2015 $19.99N/A (N/A/76%)500,000 .. 1,000,00000:21 (00:07)Cyanide StudiosCyanide Studios
122 DISTRAINT: Deluxe Edition Oct 21, 2015 $4.99N/A (N/A/76%)1,000,000 .. 2,000,00000:00 (00:00)Jesse MakkonenJesse Makkonen
123 Wolfenstein: The Old Blood May 4, 2015 $7.99N/A (N/A/76%)500,000 .. 1,000,00000:00 (00:00)MachineGamesBethesda Softworks
124 Extreme Exorcism Sep 23, 2015 $5.99N/A (N/A/75%)0 .. 20,00000:00 (00:00)Golden Ruby GamesRipstone
125 Ravenmark: Scourge of Estellion Sep 10, 2015 $14.99N/A (N/A/75%)0 .. 20,00000:00 (00:00)Witching Hour StudiosSlitherine Ltd.
126 Serpent in the Staglands May 28, 2015 $13.99N/A (N/A/75%)20,000 .. 50,00000:00 (00:00)Whalenought StudiosWhalenought Studios
127 Gravity Ghost Jan 26, 2015 $14.99N/A (N/A/75%)20,000 .. 50,00000:00 (00:00)Ivy GamesIvy Games
128 Ironcast Mar 26, 2015 $14.99N/A (N/A/75%)50,000 .. 100,00000:00 (00:00)DreadbitRipstone
129 Rebuild 3: Gangs of Deadsville May 29, 2015 $9.99N/A (N/A/75%)200,000 .. 500,00000:00 (00:00)Northway Games, Sarah NorthwayNorthway Games
130 Chroma Squad Apr 30, 2015 $14.99N/A (N/A/75%)200,000 .. 500,00005:15 (01:45)Behold StudiosBehold Studios
131 Satellite Reign Aug 27, 2015 $29.99N/A (N/A/75%)500,000 .. 1,000,00005:32 (01:50)5 Lives Studios5 Lives Studios
132 Grow Home Feb 4, 2015 $7.99N/A (N/A/75%)200,000 .. 500,00000:00 (00:00)Reflections, a Ubisoft StudioUbisoft
133 Victor Vran ARPG Jul 24, 2015 $19.99N/A (N/A/75%)500,000 .. 1,000,00000:00 (00:00)Haemimont GamesEuroVideo Medien
134 Armello Sep 1, 2015 $19.99N/A (N/A/75%)500,000 .. 1,000,00012:21 (04:07)League of GeeksLeague of Geeks
135 A Pixel Story Mar 30, 2015 $11.99N/A (N/A/74%)0 .. 20,00000:00 (00:00)Lamplight Studios
136 Ceres Oct 16, 2015 $19.99N/A (N/A/74%)20,000 .. 50,00000:00 (00:00)Jötunn GamesIceberg Interactive
137 Niko: Through The Dream Jul 17, 2015 $9.99N/A (N/A/74%)0 .. 20,00000:00 (00:00)Studio PaintStudio Paint
138 Crookz - The Big Heist Aug 25, 2015 $9.99N/A (N/A/74%)20,000 .. 50,00000:00 (00:00)Skilltree StudiosKalypso Media Digital
139 Zombie Vikings Dec 7, 2015 $11.99N/A (N/A/74%)20,000 .. 50,00000:00 (00:00)Zoink GamesZoink Games
140 Warhammer 40,000: Deathwatch - Enhanced Edition Oct 16, 2015 $14.99N/A (N/A/74%)50,000 .. 100,00000:00 (00:00)Rodeo GamesRodeo Games
141 Blackguards 2 Jan 20, 2015 $1.49N/A (N/A/74%)50,000 .. 100,00000:00 (00:00)Daedalic EntertainmentDaedalic Entertainment
142 Action Henk May 11, 2015 $14.99N/A (N/A/74%)100,000 .. 200,00000:00 (00:00)RageSquidRageSquid
143 Anna's Quest Jul 2, 2015 $1.99N/A (N/A/74%)200,000 .. 500,00000:00 (00:00)Daedalic EntertainmentDaedalic Entertainment
144 Oceanhorn: Monster of Uncharted Seas Mar 17, 2015 $14.99N/A (N/A/74%)200,000 .. 500,00000:00 (00:00)Cornfox & Brothers Ltd.Cornfox & Brothers Ltd.
145 The Red Solstice Jul 9, 2015 $9.99N/A (N/A/74%)1,000,000 .. 2,000,00003:32 (01:10)IronwardIronward
146 12 is Better Than 6 Nov 20, 2015 $9.99N/A (N/A/74%)500,000 .. 1,000,00000:00 (00:00)Ink Stains GamesHypeTrain Digital
147 Mordheim: City of the Damned Nov 19, 2015 $19.99N/A (N/A/74%)200,000 .. 500,00000:00 (00:00)Rogue FactorRogue Factor
148 Titan Souls Apr 14, 2015 $14.99N/A (N/A/74%)200,000 .. 500,00000:21 (00:13)Acid NerveDevolver Digital
149 Assassin’s Creed Rogue Mar 9, 2015 $19.99N/A (N/A/74%)500,000 .. 1,000,00000:00 (00:00)Ubisoft Sofia, Ubisoft KievUbisoft
150 Assassin's Creed Syndicate Nov 18, 2015 $29.99N/A (N/A/74%)1,000,000 .. 2,000,00003:06 (01:10)Ubisoft Quebec, in collaboration with Ubisoft Annecy, Bucharest, Kiev, Montreal, Montpellier, Shanghai, Singapore, Sofia, Toronto studiosUbisoft
151 Kingdom: Classic Oct 21, 2015 FreeN/A (N/A/74%)1,000,000 .. 2,000,00000:44 (00:29)Noio, LicoriceRaw Fury
152 Just Cause 3 Nov 30, 2015 $19.99N/A (N/A/74%)2,000,000 .. 5,000,00000:49 (00:48)Avalanche StudiosSquare Enix
153 Lemma May 12, 2015 $14.99N/A (N/A/73%)20,000 .. 50,00000:00 (00:00)Helvetica ScenarioHelvetica Scenario
154 0RBITALIS May 28, 2015 $9.99N/A (N/A/73%)50,000 .. 100,00000:00 (00:00)Alan ZucconiMastertronic
155 Disney•Pixar Cars Feb 24, 2015 $19.99N/A (N/A/73%)20,000 .. 50,00000:00 (00:00)BeenoxTHQ, Disney
156 Blues and Bullets Jul 22, 2015 $4.99N/A (N/A/73%)50,000 .. 100,00000:00 (00:00)A Crowd of MonstersA Crowd of Monsters
157 MASSIVE CHALICE Jun 1, 2015 $19.99N/A (N/A/73%)50,000 .. 100,00000:00 (00:00)Double Fine ProductionsDouble Fine Productions
158 Hard West Nov 18, 2015 $19.99N/A (N/A/73%)200,000 .. 500,00000:00 (00:00)CreativeForge GamesGood Shepherd Entertainment
159 Thea: The Awakening Nov 20, 2015 $19.99N/A (N/A/73%)100,000 .. 200,00000:00 (00:00)MuHa GamesMuHa Games
160 Mad Max Sep 1, 2015 $19.99N/A (N/A/73%)2,000,000 .. 5,000,00000:22 (00:07)Avalanche StudiosWarner Bros. Interactive Entertainment
161 Call of Duty: Black Ops III Nov 5, 2015 $14.99N/A (N/A/73%)2,000,000 .. 5,000,00004:45 (03:59)Treyarch, Aspyr (Mac)Activision, Aspyr (Mac)
162 LOST ORBIT May 12, 2015 $11.99N/A (N/A/72%)0 .. 20,00000:00 (00:00)PixelNAUTSPixelNAUTS
163 Homesick May 28, 2015 $5.09N/A (N/A/72%)50,000 .. 100,00000:00 (00:00)Lucky PauseLucky Pause
164 Convoy Apr 21, 2015 $14.99N/A (N/A/72%)100,000 .. 200,00000:00 (00:00)Convoy GamesIndietopia Games
165 Impossible Creatures Steam Edition Nov 11, 2015 $9.99N/A (N/A/72%)100,000 .. 200,00000:00 (00:00)Relic Entertainment, THQ NordicTHQ Nordic
166 Way of the Samurai 4 Jul 23, 2015 $24.99N/A (N/A/72%)200,000 .. 500,00000:00 (00:00)ACQUIRE Corp.Ghostlight LTD
167 Warhammer 40,000: Regicide Sep 8, 2015 $9.99N/A (N/A/72%)100,000 .. 200,00000:00 (00:00)Hammerfall PublishingHammerfall Publishing
168 Big Pharma Aug 27, 2015 $7.49N/A (N/A/72%)100,000 .. 200,00000:00 (00:00)Twice CircledPositech Games
169 Guild of Dungeoneering Jul 14, 2015 $14.99N/A (N/A/72%)200,000 .. 500,00000:00 (00:00)GambrinousGambrinous
170 Tormentum - Dark Sorrow Mar 4, 2015 $6.59N/A (N/A/72%)100,000 .. 200,00000:00 (00:00)OhNoo StudioOhNoo Studio
171 Anno 2205 Nov 2, 2015 $39.99N/A (N/A/72%)500,000 .. 1,000,00000:00 (00:00)Blue ByteUbisoft
172 UnderRail Dec 18, 2015 $14.99N/A (N/A/72%)200,000 .. 500,00000:00 (00:00)Stygian SoftwareStygian Software
173 LEGO Jurassic World Jun 11, 2015 $19.99N/A (N/A/72%)500,000 .. 1,000,00000:00 (00:00)TT Games LtdWarner Bros. Interactive Entertainment
174 Hyperdimension Neptunia Re;Birth1 Jan 28, 2015 $14.99N/A (N/A/72%)200,000 .. 500,00000:10 (00:03)IDEA FACTORY Co., Ltd., COMPILE HEART Co., Ltd., FELISTELLA Co., Ltd.Idea Factory International, Inc., IDEA FACTORY Co., Ltd.
175 Zombie Army Trilogy Mar 6, 2015 $44.99N/A (N/A/72%)1,000,000 .. 2,000,00000:59 (00:19)RebellionRebellion
176 Block N Load Apr 30, 2015 FreeN/A (N/A/72%)2,000,000 .. 5,000,00000:00 (00:00)Toadman Interactive, ArtplantToadman Interactive
177 MX vs. ATV Unleashed Apr 16, 2015 $9.99N/A (N/A/71%)20,000 .. 50,00000:00 (00:00)Rainbow StudiosTHQ Nordic
178 Dyscourse Mar 25, 2015 $14.99N/A (N/A/71%)50,000 .. 100,00000:00 (00:00)Owlchemy LabsOwlchemy Labs
179 Sublevel Zero Redux Oct 8, 2015 $14.99N/A (N/A/71%)0 .. 20,00000:00 (00:00)SigtrapSigtrap
180 Cibele Nov 2, 2015 $8.99N/A (N/A/71%)50,000 .. 100,00000:00 (00:00)Star Maid GamesN/A
181 You Must Build A Boat Jun 4, 2015 $4.99N/A (N/A/71%)100,000 .. 200,00000:00 (00:00)EightyEightGamesEightyEightGames
182 Battlefield Hardline Mar 16, 2015 $39.99N/A (N/A/71%)200,000 .. 500,00000:00 (00:00)DICEElectronic Arts
183 Legends of Eisenwald Jul 2, 2015 $9.99N/A (N/A/71%)100,000 .. 200,00000:00 (00:00)Aterdux EntertainmentAterdux Entertainment
184 Act of Aggression - Reboot Edition Sep 2, 2015 $29.99N/A (N/A/71%)100,000 .. 200,00000:00 (00:00)Eugen SystemsEugen Systems
185 Keep Talking and Nobody Explodes Oct 8, 2015 $14.99N/A (N/A/71%)1,000,000 .. 2,000,00003:18 (01:06)Steel Crate GamesSteel Crate Games
186 The Escapists Feb 13, 2015 $4.49N/A (N/A/71%)1,000,000 .. 2,000,00000:00 (00:00)Mouldy Toof StudiosTeam17
187 Harold Feb 12, 2015 $9.99N/A (N/A/70%)0 .. 20,00000:00 (00:00)Moon Spider StudioMoon Spider Studio
188 Bunker - The Underground Game May 21, 2015 $3.99N/A (N/A/70%)0 .. 20,00000:00 (00:00)Nightly Studios2tainment GmbH
189 The Moment of Silence Mar 27, 2015 $14.99N/A (N/A/70%)20,000 .. 50,00000:00 (00:00)House of TalesHandyGames
190 Shiftlings Mar 3, 2015 $14.99N/A (N/A/70%)50,000 .. 100,00000:00 (00:00)Rock Pocket GamesSierra
191 A Druid's Duel Feb 25, 2015 $7.99N/A (N/A/70%)0 .. 20,00000:00 (00:00)Thoughtshelter GamesSurprise Attack
192 Steel Armor: Blaze of War Mar 5, 2015 $29.99N/A (N/A/70%)0 .. 20,00000:11 (00:11)GraviteamGraviteam
193 Shadow Blade: Reload Aug 10, 2015 $9.99N/A (N/A/70%)20,000 .. 50,00000:00 (00:00)Dead MageDead Mage
194 The Swindle Jul 28, 2015 $14.99N/A (N/A/70%)50,000 .. 100,00000:00 (00:00)Size Five GamesSize Five Games
195 NOBUNAGA'S AMBITION: Sphere of Influence Sep 1, 2015 $59.99N/A (N/A/70%)20,000 .. 50,00000:00 (00:00)KOEI TECMO GAMES CO., LTD.KOEI TECMO GAMES CO., LTD.
196 Dead Synchronicity: Tomorrow Comes Today Apr 10, 2015 $0.99N/A (N/A/70%)100,000 .. 200,00000:26 (00:08)Fictiorama StudiosDaedalic Entertainment
197 StarDrive 2 Apr 9, 2015 $29.99N/A (N/A/70%)50,000 .. 100,00000:00 (00:00)Zero Sum GamesIceberg Interactive
198 Lakeview Cabin Collection Apr 9, 2015 $9.99N/A (N/A/70%)200,000 .. 500,00000:00 (00:00)Roope TamminenRoope Tamminen
199 RONIN Jun 30, 2015 $12.99N/A (N/A/70%)100,000 .. 200,00000:00 (00:00)Tomasz WacławekDevolver Digital
200 Dungeons 2 Apr 24, 2015 $19.99N/A (N/A/70%)1,000,000 .. 2,000,00000:00 (00:00)Realmforge StudiosKalypso Media Digital
201 Fran Bow Aug 27, 2015 $14.99N/A (N/A/70%)100,000 .. 200,00000:00 (00:00)Killmonday Games ABKillmonday Games AB
202 Verdun Apr 28, 2015 $19.99N/A (N/A/70%)500,000 .. 1,000,00000:28 (00:09)M2H, Blackmill GamesM2H
203 Mayan Death Robots Nov 20, 2015 $6.99N/A (N/A/69%)0 .. 20,00000:00 (00:00)Sileni Studios
204 Oblitus Feb 27, 2015 $14.99N/A (N/A/69%)0 .. 20,00000:00 (00:00)Connor UllmannAdult Swim Games
205 Star Hammer: The Vanguard Prophecy Jun 4, 2015 $19.99N/A (N/A/69%)0 .. 20,00000:00 (00:00)Black Lab GamesSlitherine Ltd.
206 Lumini Sep 3, 2015 $12.99N/A (N/A/69%)0 .. 20,00000:00 (00:00)Speelbaars2Awesome Studio
207 Freaking Meatbags Feb 4, 2015 $9.99N/A (N/A/69%)20,000 .. 50,00000:00 (00:00)Wild FactorPlug In Digital
208 The Coma: Cutting Class Oct 19, 2015 N/AN/A (N/A/69%)0 .. 20,00000:00 (00:00)Devespresso GamesDevespresso Games
209 Clandestine Nov 5, 2015 $19.99N/A (N/A/69%)20,000 .. 50,00000:00 (00:00)Logic ArtistsLogic Artists
210 Bloodsports.TV Mar 30, 2015 $9.99N/A (N/A/69%)100,000 .. 200,00000:00 (00:00)Toadman Interactive, FatsharkFatshark
211 Albert and Otto Oct 28, 2015 $4.99N/A (N/A/69%)100,000 .. 200,00000:00 (00:00)K Bros GamesK Bros Games
212 Valhalla Hills Dec 2, 2015 $9.99N/A (N/A/69%)100,000 .. 200,00000:00 (00:00)Funatics SoftwareDaedalic Entertainment
213 Holy Potatoes! A Weapon Shop?! Jul 13, 2015 $9.99N/A (N/A/69%)100,000 .. 200,00000:00 (00:00)Daylight StudiosDaedalic Entertainment, Daylight Studios
214 FINAL FANTASY TYPE-0 HD Aug 18, 2015 $29.99N/A (N/A/69%)200,000 .. 500,00000:00 (00:00)Square EnixSquare Enix
215 Train Valley Sep 16, 2015 $9.99N/A (N/A/69%)200,000 .. 500,00000:00 (00:00)Alexey Davydov, Sergey Dvoynikov, Timofey ShargorodskiyFlazm
216 DEAD OR ALIVE 5 Last Round: Core Fighters Mar 30, 2015 FreeN/A (N/A/69%)500,000 .. 1,000,00000:00 (00:00)Team NINJA, KOEI TECMO GAMES CO., LTD.KOEI TECMO GAMES CO., LTD.
217 SimplePlanes Dec 17, 2015 $12.99N/A (N/A/69%)500,000 .. 1,000,00000:00 (00:00)Jundroo, LLCJundroo, LLC
218 Tony Tough and the Night of Roasted Moths May 7, 2015 $9.99N/A (N/A/68%)0 .. 20,00000:00 (00:00)Nayma SoftwareNightdive Studios
219 Paperbound Mar 31, 2015 $9.99N/A (N/A/68%)0 .. 20,00000:00 (00:00)Dissident LogicDissident Logic
220 Parallax Mar 10, 2015 $4.99N/A (N/A/68%)0 .. 20,00000:00 (00:00)Toasty GamesToasty Games
221 Nova-111 Aug 25, 2015 $4.99N/A (N/A/68%)20,000 .. 50,00000:00 (00:00)Funktronic LabsFunktronic Labs
222 Pixel Galaxy Oct 2, 2015 $9.99N/A (N/A/68%)20,000 .. 50,00000:00 (00:00)Serenity ForgeSerenity Forge
223 Warlocks vs Shadows Aug 19, 2015 $13.99N/A (N/A/68%)20,000 .. 50,00000:00 (00:00)Frozen DistrictONE MORE LEVEL
224 White Night Mar 3, 2015 $14.99N/A (N/A/68%)0 .. 20,00000:00 (00:00)OSome StudioPlug In Digital
225 Master Spy Sep 8, 2015 $0.99N/A (N/A/68%)50,000 .. 100,00000:00 (00:00)TURBOGUNTURBOGUN
226 In Between Aug 21, 2015 $11.99N/A (N/A/68%)50,000 .. 100,00000:00 (00:00)GentlymadAssemble Entertainment
227 Masochisia Oct 9, 2015 $7.99N/A (N/A/68%)20,000 .. 50,00000:00 (00:00)OldbloodOldblood
228 The Masterplan Jun 4, 2015 $19.99N/A (N/A/68%)50,000 .. 100,00000:00 (00:00)Shark PunchShark Punch
229 Inside My Radio May 11, 2015 $4.99N/A (N/A/68%)20,000 .. 50,00000:00 (00:00)Seaven StudioIceberg Interactive
230 The Charnel House Trilogy Apr 16, 2015 $5.99N/A (N/A/68%)20,000 .. 50,00000:00 (00:00)Owl CaveOwl Cave
231 FIM Speedway Grand Prix 15 Nov 30, 2015 N/AN/A (N/A/68%)50,000 .. 100,00000:00 (00:00)SoftPlanetSoftPlanet
232 PixelJunk Nom Nom Galaxy Aug 3, 2015 $9.99N/A (N/A/68%)100,000 .. 200,00000:00 (00:00)Q-Games Ltd.Q-Games Ltd.
233 INK Aug 5, 2015 $4.99N/A (N/A/68%)200,000 .. 500,00000:00 (00:00)ZackBellGamesZackBellGames
234 RIDE Mar 27, 2015 $14.99N/A (N/A/68%)100,000 .. 200,00000:00 (00:00)Milestone S.r.l.Milestone S.r.l.
235 Five Nights at Freddy's 3 Mar 2, 2015 $7.99N/A (N/A/68%)500,000 .. 1,000,00000:00 (00:00)Scott CawthonScott Cawthon
236 Car Mechanic Simulator 2015 Apr 23, 2015 $19.99N/A (N/A/68%)500,000 .. 1,000,00000:45 (00:15)Red Dot GamesPlayWay S.A.
237 ARMED SEVEN Mar 6, 2015 $4.99N/A (N/A/67%)0 .. 20,00000:00 (00:00)ASTRO PORTHenteko Doujin
238 Uncanny Valley Apr 23, 2015 $9.99N/A (N/A/67%)50,000 .. 100,00000:00 (00:00)Cowardly CreationsCowardly Creations
239 Last Word May 8, 2015 $9.99N/A (N/A/67%)20,000 .. 50,00000:00 (00:00)Twelve TilesDegica
240 Skyshine's BEDLAM Sep 16, 2015 $3.99N/A (N/A/67%)100,000 .. 200,00000:00 (00:00)Skyshine GamesVersus Evil
241 The Park Oct 27, 2015 $12.99N/A (N/A/67%)100,000 .. 200,00000:00 (00:00)FuncomFuncom
242 Ghost Pirates of Vooju Island Jan 27, 2015 $9.99N/A (N/A/66%)0 .. 20,00000:00 (00:00)Autumn MoonViva Media
243 Swords and Sorcery - Underworld - Definitive Edition Dec 15, 2015 $14.99N/A (N/A/66%)0 .. 20,00000:00 (00:00)OlderBytesOlderBytes
244 Oscura: Lost Light Feb 24, 2015 $6.99N/A (N/A/66%)20,000 .. 50,00000:00 (00:00)Chocolate Liberation FrontSurprise Attack
245 ROOMS: The Toymaker's Mansion May 1, 2015 $14.99N/A (N/A/66%)0 .. 20,00000:00 (00:00)HandMade GameHandMade Game
246 FIVE: Guardians of David Nov 24, 2015 $9.99N/A (N/A/66%)20,000 .. 50,00000:00 (00:00)Kingdom GamesKingdom Games
247 Hot Tin Roof: The Cat That Wore A Fedora Feb 20, 2015 $14.99N/A (N/A/66%)50,000 .. 100,00000:00 (00:00)Glass Bottom GamesGlass Bottom Games
248 Albedo: Eyes from Outer Space Apr 10, 2015 $14.99N/A (N/A/66%)50,000 .. 100,00000:00 (00:00)Z4G0 and Ivan Venturi ProductionsMerge Games
249 Sunset May 21, 2015 $19.99N/A (N/A/66%)0 .. 20,00000:00 (00:00)Tale of TalesTale of Tales
250 Rogue State Oct 16, 2015 $9.99N/A (N/A/66%)20,000 .. 50,00000:00 (00:00)LRDGames, Inc.LRDGames, Inc.
251 Citizens of Earth Jan 20, 2015 $14.99N/A (N/A/66%)100,000 .. 200,00000:00 (00:00)Eden IndustriesSEGA
252 Planet of the Eyes Aug 24, 2015 $9.99N/A (N/A/66%)50,000 .. 100,00000:00 (00:00)CococucumberCococucumber
253 The Escapists: The Walking Dead Sep 30, 2015 $4.49N/A (N/A/66%)100,000 .. 200,00000:00 (00:00)Team17 Digital LtdTeam17 Digital Ltd
254 Fairy Fencer F Aug 4, 2015 $9.99N/A (N/A/66%)100,000 .. 200,00000:00 (00:00)Idea Factory, Compile HeartIdea Factory International
255 Saints Row: Gat out of Hell Jan 20, 2015 $14.99N/A (N/A/66%)500,000 .. 1,000,00000:00 (00:00)Deep Silver Volition, High Voltage SoftwareDeep Silver
256 Lords of the Realm III Dec 3, 2015 $4.99N/A (N/A/65%)0 .. 20,00000:00 (00:00)Impressions GamesRebellion
257 Slow Down, Bull Apr 20, 2015 $1.99N/A (N/A/65%)0 .. 20,00000:00 (00:00)Insomniac GamesInsomniac Games
258 Heroes of Normandie Oct 1, 2015 $29.99N/A (N/A/65%)20,000 .. 50,00000:00 (00:00)Cat RabbitSlitherine Ltd.
259 Stairs Sep 28, 2015 $12.99N/A (N/A/65%)20,000 .. 50,00000:00 (00:00)GreyLight EntertainmentDigital Tribe
260 War, the Game Jan 12, 2015 $6.99N/A (N/A/65%)20,000 .. 50,00000:00 (00:00)GabberGames.comGabberGames.com
261 WRC 5 FIA World Rally Championship Oct 8, 2015 $39.99N/A (N/A/65%)20,000 .. 50,00000:00 (00:00)KT RacingNacon
262 FEIST Jul 23, 2015 $9.99N/A (N/A/65%)20,000 .. 50,00000:00 (00:00)Bits & BeastsFinji
263 Journey To The Center Of The Earth Sep 23, 2015 N/AN/A (N/A/65%)200,000 .. 500,00000:00 (00:00)InSaynInSayn
264 Lethis - Path of Progress Jun 25, 2015 $19.99N/A (N/A/65%)50,000 .. 100,00000:00 (00:00)Triskell InteractiveTriskell Interactive
265 Cradle Jul 24, 2015 $12.99N/A (N/A/65%)50,000 .. 100,00000:00 (00:00)Flying Cafe for SemianimalsFlying Cafe for Semianimals
266 ZOMBI Aug 18, 2015 $19.99N/A (N/A/65%)100,000 .. 200,00000:00 (00:00)Straight RightUbisoft
267 Heroes of Might & Magic III - HD Edition Jan 28, 2015 $14.99N/A (N/A/65%)500,000 .. 1,000,00000:00 (00:00)DotemuUbisoft Entertainment
268 Legions of Steel Jul 16, 2015 $19.99N/A (N/A/64%)0 .. 20,00000:00 (00:00)Studio NyxSlitherine Ltd.
269 Legend of Kay Anniversary Jul 27, 2015 $19.99N/A (N/A/64%)20,000 .. 50,00000:00 (00:00)KAIKO, Neon StudiosTHQ Nordic
270 Fire: Ungh’s Quest Apr 9, 2015 $0.99N/A (N/A/64%)50,000 .. 100,00000:00 (00:00)Daedalic EntertainmentDaedalic Entertainment
271 The Incredible Adventures of Van Helsing III May 22, 2015 $14.99N/A (N/A/64%)200,000 .. 500,00000:00 (00:00)NeocoreGamesNeocoreGames
272 Oh...Sir! Prototype Dec 21, 2015 N/AN/A (N/A/64%)100,000 .. 200,00000:00 (00:00)Vile MonarchGood Shepherd Entertainment
273 Sid Meier's Starships Mar 12, 2015 $14.99N/A (N/A/64%)200,000 .. 500,00000:00 (00:00)Firaxis Games2K
274 Phantom Breaker: Battle Grounds Jan 23, 2015 $11.99N/A (N/A/64%)200,000 .. 500,00000:00 (00:00)MAGES. Inc.Degica
275 Kholat Jun 9, 2015 $19.99N/A (N/A/64%)2,000,000 .. 5,000,00000:00 (00:00)IMGN.PROIMGN.PRO
276 Party Hard Aug 25, 2015 $9.99N/A (N/A/64%)200,000 .. 500,00000:02 (00:00)Pinokl Games, KvertatinyBuild
277 15 Days Apr 1, 2015 $9.99N/A (N/A/63%)50,000 .. 100,00000:00 (00:00)House of TalesHandyGames
278 Conflicks - Revolutionary Space Battles Nov 5, 2015 $6.99N/A (N/A/63%)20,000 .. 50,00000:00 (00:00)Artifice StudioArtifice Studio
279 Pneuma: Breath of Life Feb 27, 2015 $19.99N/A (N/A/63%)0 .. 20,00000:00 (00:00)Deco Digital, Bevel StudiosDeco Digital
280 MISSING: An Interactive Thriller - Episode One May 25, 2015 N/AN/A (N/A/63%)50,000 .. 100,00000:00 (00:00)Zandel MediaZandel Media
281 Grand Ages: Medieval Sep 25, 2015 $19.99N/A (N/A/63%)100,000 .. 200,00000:00 (00:00)Gaming Minds StudiosKalypso Media Digital
282 SKYHILL Oct 6, 2015 $1.49N/A (N/A/63%)100,000 .. 200,00000:00 (00:00)MandragoraDaedalic Entertainment
283 Life is Feudal: Your Own Nov 17, 2015 $19.99N/A (N/A/63%)200,000 .. 500,00000:00 (00:00)Bitbox Ltd.Bitbox Ltd.
284 Dirty Bomb Jun 2015 FreeN/A (N/A/63%)5,000,000 .. 10,000,00000:00 (00:00)Splash DamageWarchest Ltd.
285 PONCHO Nov 3, 2015 $5.99N/A (N/A/62%)20,000 .. 50,00000:00 (00:00)Delve InteractiveRising Star Games
286 Euclidean Sep 25, 2015 $4.99N/A (N/A/62%)20,000 .. 50,00000:00 (00:00)Alpha Wave EntertainmentAAD Productions
287 NEON STRUCT May 20, 2015 $17.99N/A (N/A/62%)50,000 .. 100,00000:00 (00:00)Minor Key GamesMinor Key Games
288 Etherium Mar 25, 2015 $9.99N/A (N/A/62%)100,000 .. 200,00000:00 (00:00)Tindalos InteractiveFocus Home Interactive
289 Dex May 7, 2015 $19.99N/A (N/A/62%)200,000 .. 500,00000:00 (00:00)Dreadlocks Ltd.Dreadlocks Ltd., Techland, WhisperGames
290 Sym May 7, 2015 $7.99N/A (N/A/61%)0 .. 20,00000:00 (00:00)Atrax GamesMastertronic
291 Disorder Jan 12, 2015 $3.99N/A (N/A/61%)20,000 .. 50,00000:00 (00:00)Swagabyte GamesRooster Teeth Games
292 Traverser Jul 9, 2015 $14.99N/A (N/A/61%)0 .. 20,00000:00 (00:00)Gatling Goat StudiosAdult Swim Games
293 Perils of Man Apr 28, 2015 $9.99N/A (N/A/61%)20,000 .. 50,00000:00 (00:00)IF Games, Vertigo GamesVertigo Games
294 Magnetic: Cage Closed May 26, 2015 $4.99N/A (N/A/61%)20,000 .. 50,00000:00 (00:00)Guru GamesGood Shepherd Entertainment
295 Venetica - Gold Edition Jan 23, 2015 $9.99N/A (N/A/61%)100,000 .. 200,00000:00 (00:00)Deck13Deck13
296 Windward May 12, 2015 $9.99N/A (N/A/61%)200,000 .. 500,00000:00 (00:00)Tasharen Entertainment Inc.Tasharen Entertainment Inc.
297 F1 2015 Jul 9, 2015 $12.99N/A (N/A/61%)2,000,000 .. 5,000,00009:52 (03:17)Codemasters, Feral Interactive (Linux)Codemasters, Feral Interactive (Linux)
298 Sylvio Jun 5, 2015 $12.99N/A (N/A/60%)0 .. 20,00000:00 (00:00)StroboskopStroboskop
299 A Fistful of Gun Sep 23, 2015 $12.99N/A (N/A/60%)100,000 .. 200,00000:00 (00:00)FarmerGnomeDevolver Digital
300 Beyond Eyes Aug 11, 2015 $2.99N/A (N/A/60%)100,000 .. 200,00000:00 (00:00)Tiger and Squid, Team17 Digital LtdTeam17 Digital Ltd
301 Decay: The Mare Feb 13, 2015 $4.99N/A (N/A/60%)100,000 .. 200,00000:00 (00:00)Shining Gate SoftwareDaedalic Entertainment
302 I am Bread Apr 9, 2015 $12.99N/A (N/A/60%)500,000 .. 1,000,00000:00 (00:00)Bossa StudiosBossa Studios
303 Subject 13 May 28, 2015 $9.99N/A (N/A/59%)50,000 .. 100,00000:00 (00:00)Paul CuissetMicroids
304 Cross of the Dutchman Sep 10, 2015 $8.99N/A (N/A/59%)20,000 .. 50,00000:00 (00:00)Triangle StudiosTriangle Studios
305 The Deer God Feb 27, 2015 $14.99N/A (N/A/59%)20,000 .. 50,00000:00 (00:00)Crescent Moon Games, Cinopt StudiosCrescent Moon Games
306 VoidExpanse Apr 2, 2015 $14.99N/A (N/A/59%)50,000 .. 100,00000:00 (00:00)AtomicTorch StudioAtomicTorch Studio
307 Dream Jul 31, 2015 $8.99N/A (N/A/59%)50,000 .. 100,00000:00 (00:00)HyperSlothHyperSloth
308 Blue Estate The Game Apr 8, 2015 $12.99N/A (N/A/59%)50,000 .. 100,00000:00 (00:00)HE SAWHE SAW
309 DiscStorm Aug 20, 2015 $11.99N/A (N/A/58%)0 .. 20,00000:00 (00:00)XMPT GamesXMPT Games
310 The Weaponographist Apr 29, 2015 $9.99N/A (N/A/58%)0 .. 20,00000:00 (00:00)PuubaPuuba
311 Lost Horizon 2 Oct 1, 2015 $14.99N/A (N/A/58%)0 .. 20,00000:00 (00:00)Animation Arts GmbHRavenscourt
312 Kyn Jul 28, 2015 $3.99N/A (N/A/58%)0 .. 20,00000:00 (00:00)Tangrin EntertainmentVersus Evil
313 Bard's Gold Aug 14, 2015 $7.99N/A (N/A/58%)0 .. 20,00000:00 (00:00)Pixel LanternPixel Lantern
314 There Came an Echo Feb 24, 2015 $14.99N/A (N/A/58%)20,000 .. 50,00000:00 (00:00)Iridium StudiosIridium Studios
315 Shelter 2 Mar 9, 2015 $14.99N/A (N/A/58%)200,000 .. 500,00000:00 (00:00)Might and DelightMight and Delight
316 Pulse Oct 20, 2015 $7.99N/A (N/A/57%)0 .. 20,00000:00 (00:00)Pixel Pi GamesPixel Pi Games
317 Vector Thrust Jul 2, 2015 $24.99N/A (N/A/57%)100,000 .. 200,00000:00 (00:00)TimeSymmetryIceberg Interactive
318 Armikrog Sep 30, 2015 $1.99N/A (N/A/57%)50,000 .. 100,00000:00 (00:00)Pencil Test StudiosVersus Evil
319 Toren May 11, 2015 $1.99N/A (N/A/57%)100,000 .. 200,00000:00 (00:00)SwordtalesVersus Evil
320 Tengami Jan 15, 2015 $6.99N/A (N/A/57%)100,000 .. 200,00000:00 (00:00)NyamyamNyamyam
321 Fair Strike Apr 23, 2015 $3.99N/A (N/A/56%)0 .. 20,00000:00 (00:00)G5 SoftwareBuka Entertainment
322 Supreme League of Patriots Jan 29, 2015 $5.99N/A (N/A/56%)20,000 .. 50,00000:00 (00:00)No Bull IntentionsPhoenix Online Publishing
323 Mushroom Men: Truffle Trouble Mar 10, 2015 $2.99N/A (N/A/55%)0 .. 20,00000:00 (00:00)Red Fly StudioRed Fly Studio
324 Hard to Be a God Aug 24, 2015 $7.99N/A (N/A/55%)20,000 .. 50,00000:00 (00:00)Burut CTAkella
325 Red Game Without A Great Name Dec 9, 2015 N/AN/A (N/A/55%)20,000 .. 50,00000:00 (00:00)iFun4all S.A.iFun4all S.A.
326 Gryphon Knight Epic Aug 20, 2015 $12.99N/A (N/A/55%)20,000 .. 50,00000:00 (00:00)Cyber Rhino StudiosCyber Rhino Studios
327 Calvino Noir Aug 27, 2015 $6.99N/A (N/A/55%)50,000 .. 100,00000:00 (00:00)Calvino Noir LimitedCalvino Noir Limited
328 Hektor Mar 13, 2015 $9.99N/A (N/A/55%)100,000 .. 200,00000:00 (00:00)RubyconeRubycone
329 Warhammer Quest Jan 7, 2015 $14.99N/A (N/A/55%)100,000 .. 200,00000:00 (00:00)Rodeo Games, TwistplayChilled Mouse
330 Woolfe - The Red Hood Diaries Mar 17, 2015 $9.99N/A (N/A/55%)100,000 .. 200,00000:00 (00:00)GRINRebellion
331 Son of Nor Apr 27, 2015 $19.99N/A (N/A/54%)20,000 .. 50,00000:00 (00:00)stillalive studiosViva Media
332 Hatoful Boyfriend: Holiday Star Dec 15, 2015 $9.99N/A (N/A/54%)20,000 .. 50,00000:00 (00:00)MediatonicMediatonic
333 Bedlam Oct 13, 2015 N/AN/A (N/A/54%)100,000 .. 200,00000:00 (00:00)RedBedlamKISS ltd
334 Red Goddess: Inner World Aug 31, 2015 $9.99N/A (N/A/53%)0 .. 20,00000:00 (00:00)Yanim StudioYanim Studio
335 Worlds of Magic Mar 19, 2015 $24.99N/A (N/A/52%)20,000 .. 50,00000:00 (00:00)Wastelands InteractiveWastelands Interactive
336 Five Nights at Freddy's 4 Jul 23, 2015 $7.99N/A (N/A/51%)200,000 .. 500,00000:28 (00:09)Scott CawthonScott Cawthon
337 Animal Gods Oct 12, 2015 $9.99N/A (N/A/50%)0 .. 20,00000:00 (00:00)Still GamesStill Games
338 Anomaly 1729 Dec 30, 2015 $9.99N/A (N/A/49%)0 .. 20,00000:00 (00:00)Anvil Drop, LLCBlack Shell Media
339 TRISTOY Jan 15, 2015 $6.99N/A (N/A/49%)20,000 .. 50,00000:00 (00:00)Uniworlds Game StudiosHeadup Games
340 Corpse of Discovery Aug 25, 2015 $1.99N/A (N/A/49%)0 .. 20,00000:00 (00:00)Phosphor GamesPhosphor Games
341 theHunter: Primal Mar 31, 2015 N/AN/A (N/A/49%)100,000 .. 200,00000:00 (00:00)Expansive Worlds, Avalanche StudiosExpansive Worlds, Avalanche Studios
342 Epanalepsis May 21, 2015 $3.99N/A (N/A/48%)0 .. 20,00000:00 (00:00)Cameron Kunzelman
343 Lucius II Feb 13, 2015 $19.99N/A (N/A/48%)100,000 .. 200,00000:00 (00:00)Shiver GamesShiver Games
344 COAST GUARD Oct 21, 2015 $17.99N/A (N/A/47%)0 .. 20,00000:00 (00:00)Reality Twist GmbHastragon Sales & Services GmbH
345 Karmaflow: The Rock Opera Videogame - Act I & Act II May 6, 2015 $4.99N/A (N/A/47%)0 .. 20,00000:00 (00:00)Basecamp GamesBasecamp Games
346 Solarix Apr 30, 2015 $19.99N/A (N/A/47%)100,000 .. 200,00000:00 (00:00)Pulsetense GamesPulseTense
347 Cities XXL Feb 5, 2015 $9.99N/A (N/A/47%)200,000 .. 500,00000:00 (00:00)Focus Home InteractiveFocus Home Interactive
348 Submerged Aug 3, 2015 $19.99N/A (N/A/47%)200,000 .. 500,00000:00 (00:00)Uppercut Games Pty LtdUppercut Games Pty Ltd
349 Viridi Aug 19, 2015 FreeN/A (N/A/46%)500,000 .. 1,000,00000:00 (00:00)Zoe Vartanian, Badru, Isa Hutchinson, Michael BellIce Water Games
350 LA Cops Mar 13, 2015 $2.99N/A (N/A/45%)20,000 .. 50,00000:00 (00:00)Modern DreamTeam17 Digital Ltd
351 I Can't Escape: Darkness Sep 17, 2015 $11.99N/A (N/A/43%)0 .. 20,00000:00 (00:00)Fancy Fish GamesFancy Fish Games
352 ENKI Jul 31, 2015 $4.99N/A (N/A/43%)20,000 .. 50,00000:00 (00:00)Storm in a TeacupStorm in a Teacup
353 Hatred Jun 1, 2015 $5.99N/A (N/A/43%)200,000 .. 500,00000:24 (00:08)Destructive CreationsDestructive Creations
354 The Flock Aug 21, 2015 $16.99N/A (N/A/36%)20,000 .. 50,00000:00 (00:00)VogelsapVogelsap
355 Zombeer Jan 30, 2015 $4.99N/A (N/A/32%)20,000 .. 50,00000:00 (00:00)Moonbite Games, PadaOne GamesNew Gravity Laws
356 Professor Teaches Word 2013 & 365 Jun 29, 2015 $14.99N/A (N/A)0 .. 20,00000:00 (00:00)Individual SoftwareIndividual Software
357 Deficis Jul 30, 2015 $14.99N/A (N/A)0 .. 20,00000:00 (00:00)Gneu LLCGneu LLC
358 Professor Teaches OneNote 2013 & 365 Jul 22, 2015 $14.99N/A (N/A)0 .. 20,00000:00 (00:00)Individual SoftwareIndividual Software
359 Professor Teaches Outlook 2013 & 365 Jul 22, 2015 $14.99N/A (N/A)0 .. 20,00000:00 (00:00)Individual SoftwareIndividual Software
360 Professor Teaches QuickBooks 2015 Jul 27, 2015 N/AN/A (N/A)0 .. 20,00000:00 (00:00)Individual SoftwareIndividual Software
361 Baxter's Venture: Director's Cut Jul 30, 2015 $3.99N/A (N/A)0 .. 20,00000:00 (00:00)GG-WorksGG-Works
362 Professor Teaches Outlook 2016 Oct 12, 2015 $14.99N/A (N/A)0 .. 20,00000:00 (00:00)Individual SoftwareIndividual Software
363 Cliffs of War: Fortress Defenders Nov 3, 2015 N/AN/A (N/A)0 .. 20,00000:00 (00:00)
364 The Final Stand Jul 16, 2015 N/AN/A (N/A)0 .. 20,00000:00 (00:00)Hella Games EntertainmentSteam
365 Professor Teaches Excel 2013 & 365 Jun 29, 2015 $14.99N/A (N/A)0 .. 20,00000:00 (00:00)Individual SoftwareIndividual Software
366 Professor Teaches PowerPoint 2016 Sep 15, 2015 $14.99N/A (N/A)0 .. 20,00000:00 (00:00)Individual SoftwareIndividual Software
367 Dragon Rider Nov 2, 2015 N/AN/A (N/A)0 .. 20,00000:00 (00:00)S.F. Bay Studios, Inc.S.F. Bay Studios, Inc.
368 MasterCook 15 May 29, 2015 N/AN/A (N/A)0 .. 20,00000:00 (00:00)CosmiIndividual Software
369 Quiz Time Jun 23, 2015 $9.99N/A (N/A)0 .. 20,00000:00 (00:00)Yash Future Tech Solutions Pvt LtdYash Future Tech Solutions Pvt Ltd
370 Forever Lost: Episode 3 Jul 9, 2015 $8.99N/A (N/A)0 .. 20,00000:00 (00:00)Glitch Games LtdGlitch Games Ltd
371 Temporal Shift Jul 16, 2015 $9.99N/A (N/A)0 .. 20,00000:00 (00:00)Four LightsFour Lights
372 Vol'Talkes - The AI War Nov 11, 2015 $29.99N/A (N/A)0 .. 20,00000:00 (00:00)HyperDrive GamesHyperDrive Games
373 Pluck Jul 31, 2015 N/AN/A (N/A)0 .. 20,00000:00 (00:00)Benjamin LapidBenjamin Lapid
374 Muvee Reveal 11 Apr 10, 2015 N/AN/A (N/A)0 .. 20,00000:00 (00:00)muvee TechnologiesDegica
375 Resume Maker for Windows Nov 12, 2015 $19.99N/A (N/A)0 .. 20,00000:00 (00:00)Individual SoftwareIndividual Software
376 Spoko and Poko May 11, 2015 $3.99N/A (N/A)20,000 .. 50,00000:00 (00:00)LemonOrangeLemonOrange
377 Radial Impact Jul 31, 2015 $0.99N/A (N/A)0 .. 20,00000:00 (00:00)Devin SherryDevin Sherry
378 Nightclub Emporium Aug 7, 2015 $4.99N/A (N/A)0 .. 20,00000:00 (00:00)United Independent Entertainment GmbHUnited Independent Entertainment GmbH
379 Professor Teaches Access 2013 & 365 Jul 14, 2015 $14.99N/A (N/A)0 .. 20,00000:00 (00:00)Individual SoftwareIndividual Software
380 Fjall Sep 19, 2015 $2.99N/A (N/A)0 .. 20,00000:00 (00:00)dimecoin, BestowDimecoin Games, LLC
381 Fringes of the Empire Nov 16, 2015 $0.99N/A (N/A)0 .. 20,00000:00 (00:00)Lost Astronaut StudiosSelf-Published
382 Save the Creatures Oct 18, 2015 $1.99N/A (N/A)20,000 .. 50,00000:00 (00:00)Michael Porter, Aaron Smith, Andrew ThomasMichael Porter
383 Blessed Ones: The Magic Wolves Dec 4, 2015 N/AN/A (N/A)0 .. 20,00000:00 (00:00)Wolf Ray StudiosWolf Ray Studios
384 Quicken WillMaker Plus 2016 Oct 15, 2015 N/AN/A (N/A)0 .. 20,00000:00 (00:00)NoloIndividual Software
385 AnyTime Organizer Standard 15 Nov 13, 2015 N/AN/A (N/A)0 .. 20,00000:00 (00:00)Individual SoftwareIndividual Software
386 One Bit May 12, 2015 $0.99N/A (N/A)0 .. 20,00000:00 (00:00)VeibynVeibyn
387 Proxyah v3.1 Nov 5, 2015 $3.99N/A (N/A)0 .. 20,00000:00 (00:00)Viktor TimofeevViktor Timofeev
388 Convoy Mod Tools Apr 15, 2015 N/AN/A (N/A)0 .. 20,00000:00 (00:00)Convoy GamesIndietopia Games
389 Virtual Orator May 1, 2015 $199.99N/A (N/A)0 .. 20,00000:00 (00:00)Virtual Human TechnologiesVirtual Human Technologies
390 House of Nightmares B-Movie Edition Apr 19, 2015 $0.99N/A (N/A)0 .. 20,00000:00 (00:00)Morphodox StudiosMorphodox Studios
391 Gremlin Invasion: Survivor May 1, 2015 $0.99N/A (N/A)0 .. 20,00000:00 (00:00)CS Squared Games, Among GiantsCS Squared Games
392 Family Tree Heritage Platinum 9 May 26, 2015 $29.99N/A (N/A)0 .. 20,00000:00 (00:00)Individual SoftwareIndividual Software
393 Professor Teaches Excel 2016 Sep 15, 2015 $14.99N/A (N/A)0 .. 20,00000:00 (00:00)Individual SoftwareIndividual Software
394 Professor Teaches QuickBooks 2016 Nov 10, 2015 N/AN/A (N/A)0 .. 20,00000:00 (00:00)Individual SoftwareIndividual Software
395 Professor Teaches OneNote 2016 Sep 15, 2015 $14.99N/A (N/A)0 .. 20,00000:00 (00:00)Individual SoftwareIndividual Software
396 Professor Teaches Word 2016 Sep 15, 2015 $14.99N/A (N/A)0 .. 20,00000:00 (00:00)Individual SoftwareIndividual Software
397 Heresy Nov 19, 2015 $19.99N/A (N/A)0 .. 20,00000:00 (00:00)dark made gamesdark made games
398 Perfection of Wisdom Apr 6, 2015 $8.99N/A (N/A)0 .. 20,00000:00 (00:00)14Dimension Enterprise14Dimension Enterprise
399 Unlimited Escape 3 & 4 Double Pack May 21, 2015 $6.99N/A (N/A)0 .. 20,00000:00 (00:00)Carlo D'Apostoli ProjectsStrategy First
400 Strange Space Dec 22, 2015 N/AN/A (N/A)0 .. 20,00000:00 (00:00)Mayhem Games USAMayhem Games USA
401 World Circuit Boxing Jan 24, 2015 $4.99N/A (N/A)0 .. 20,00000:00 (00:00)J3I GamesJ3I Games
402 Infinite Game Works Episode 1 Oct 26, 2015 $7.99N/A (N/A)0 .. 20,00000:00 (00:00)Sakura River InteractiveSakura River Interactive
403 Bionite: Origins Dec 24, 2015 $11.99N/A (N/A)0 .. 20,00000:00 (00:00)Platoon StudiosPlatoon Studios
404 Egyptian Settlement Gold May 12, 2015 $7.99N/A (N/A)0 .. 20,00000:00 (00:00)magnussoftmagnussoft
405 Zxill: A Legend of Time Sep 4, 2015 $6.99N/A (N/A)0 .. 20,00000:00 (00:00)ZXDigital Ltd, Polyquest GamesZXDigital Ltd
406 Production Inc. Dec 31, 2015 $19.99N/A (N/A)0 .. 20,00000:00 (00:00)Solo InstinctSolo Instinct
407 Unlimited Escape 2 Apr 22, 2015 $4.99N/A (N/A)0 .. 20,00000:00 (00:00)Carlo D'Apostoli ProjectsStrategy First
408 RigIT Oct 1, 2015 $8.99N/A (N/A)0 .. 20,00000:00 (00:00)RigITRigIT
409 Monkey King Saga Nov 30, 2015 $4.99N/A (N/A)0 .. 20,00000:00 (00:00)T-Rex GamesT-Rex Games
410 The Light Empire Dec 2, 2015 $5.99N/A (N/A)0 .. 20,00000:00 (00:00)JemyJemy
411 Zone 22 Jun 26, 2015 $7.99N/A (N/A)0 .. 20,00000:00 (00:00)Nordic LegacyNordic Legacy
412 Hope in Hell Oct 31, 2015 $2.99N/A (N/A)0 .. 20,00000:00 (00:00)Emeryon gamesEmeryon games
413 Caribbean Odyssey Nov 12, 2015 $9.99N/A (N/A)0 .. 20,00000:00 (00:00)Imran ArafatReality Gameware
414 Professor Teaches PowerPoint 2013 & 365 Jul 14, 2015 $14.99N/A (N/A)0 .. 20,00000:00 (00:00)Individual SoftwareIndividual Software
415 Hauntsters Dec 22, 2015 $4.99N/A (N/A)0 .. 20,00000:00 (00:00)Shark Tree StudiosShark Tree Studios
416 最強の囲碁 ~名人への道~ / Igo Meijin Jan 30, 2015 $79.99N/A (N/A)0 .. 20,00000:00 (00:00)UNBALANCE CorporationUNBALANCE Corporation
417 Snails May 1, 2015 $0.99N/A (N/A)20,000 .. 50,00000:00 (00:00)Jorge Lima, Alexandre Fontoura2Brains Games
418 UfoPilot : Astro-Creeps Elite May 5, 2015 $4.99N/A (N/A)0 .. 20,00000:00 (00:00)nornware ABnornware AB
419 ScudBuster Dec 18, 2015 $4.99N/A (N/A)0 .. 20,00000:00 (00:00)HyperKat GamesHyperKat Games
420 Dungeoncraft Jun 5, 2015 $9.99N/A (N/A)0 .. 20,00000:00 (00:00)ZinnuslZinnusl
421 Zombien Mar 6, 2015 $2.99N/A (N/A)0 .. 20,00000:00 (00:00)Hosted GamesHosted Games
422 Unlimited Escape Feb 5, 2015 $4.99N/A (N/A)0 .. 20,00000:00 (00:00)Carlo D'Apostoli ProjectsStrategy First
423 Luminoso Apr 17, 2015 $4.99N/A (N/A)0 .. 20,00000:00 (00:00)blizzy Gamesblizzy Games
424 Voxel Blast Oct 22, 2015 $11.99N/A (N/A)0 .. 20,00000:00 (00:00)Ceiba Software and ArtsCeiba Software and Arts
425 Valzar Dec 22, 2015 $9.99N/A (N/A)0 .. 20,00000:00 (00:00)Whale NebulaWhale Nebula
426 Coated Aug 25, 2015 $4.99N/A (N/A)0 .. 20,00000:00 (00:00)mamoniem, OwlnightOwlnight
427 Death Pirate Jun 6, 2015 $3.99N/A (N/A)0 .. 20,00000:00 (00:00)Singe StudioSinge Studio
428 Ironkraft - Road to Hell Oct 22, 2015 $9.99N/A (N/A)0 .. 20,00000:00 (00:00)Invoker StudiosInvoker Studios
429 Datswer Feb 4, 2015 $3.99N/A (N/A)0 .. 20,00000:00 (00:00)Behtam DeveloperBehtam Developer, UK VENUS
430 CHARIOT WARS May 25, 2015 $6.99N/A (N/A)0 .. 20,00000:00 (00:00)OM ENTERTAINMENTOM ENTERTAINMENT
431 Luxury Hotel Emporium Aug 7, 2015 $4.99N/A (N/A)0 .. 20,00000:00 (00:00)United Independent Entertainment GmbHUnited Independent Entertainment GmbH
432 Prison Tycoon Alcatraz May 11, 2015 $9.99N/A (N/A)0 .. 20,00000:00 (00:00)ValuSoftCosmi Valusoft
433 Band of Drones Mar 25, 2015 $7.99N/A (N/A)0 .. 20,00000:00 (00:00)Kiritsu GamesKiritsu Games
434 DNO Rasa's Journey May 23, 2015 $2.99N/A (N/A)0 .. 20,00000:00 (00:00)EZDesignerEZDesigner
435 Puzzle Expedition Jun 29, 2015 $7.99N/A (N/A)0 .. 20,00000:00 (00:00)Top3LineTop3Line
436 Dolguth Oct 20, 2015 $5.99N/A (N/A)0 .. 20,00000:00 (00:00)Boiagames20Tab
437 Questria: Rise of the Robot Skullfaces Nov 9, 2015 $9.99N/A (N/A)0 .. 20,00000:00 (00:00)AltImage GamesAltImage Games
438 Star Balls Aug 18, 2015 $4.99N/A (N/A)0 .. 20,00000:00 (00:00)Bolder GamesBolder Games
439 The Facility Sep 3, 2015 N/AN/A (N/A)0 .. 20,00000:00 (00:00)PolyDigitalPolyDigital
440 TNN Motorsports Hardcore TR Aug 10, 2015 $4.99N/A (N/A)0 .. 20,00000:00 (00:00)ASC GamesConsole Classics
441 Professor Teaches Access 2016 Sep 15, 2015 $14.99N/A (N/A)0 .. 20,00000:00 (00:00)Individual SoftwareIndividual Software
442 Mass Vector Nov 24, 2015 $5.99N/A (N/A)0 .. 20,00000:00 (00:00)Moving Pixel GamesMoving Pixel Games
443 SuperBike TT Feb 25, 2015 $12.99N/A (N/A)0 .. 20,00000:00 (00:00)Ghost MachineGhost Machine
444 OVERGRAVITY Jul 24, 2015 $2.99N/A (N/A)0 .. 20,00000:00 (00:00)CPsoftCPsoft
445 Spectrum: First Light Jul 24, 2015 $9.99N/A (N/A)0 .. 20,00000:00 (00:00)Mido Basim, Danny WeiMido Basim
446 Magnetron Nov 16, 2015 $5.99N/A (N/A)0 .. 20,00000:00 (00:00)Jay-RunJay-Run
447 InsanZ - Retro Survival Horror Apr 27, 2015 $6.99N/A (N/A)20,000 .. 50,00000:00 (00:00)SimplexGameStudioSimplexGameStudio
448 Revenge: Rhobar's myth Sep 8, 2015 $4.99N/A (N/A)0 .. 20,00000:00 (00:00)Polygon ArtPolygon Art
449 Vortex Jul 17, 2015 $4.99N/A (N/A)0 .. 20,00000:00 (00:00)Displace MediaDisplace Media
450 CONTASION 2 Nov 29, 2015 $6.99N/A (N/A)0 .. 20,00000:00 (00:00)Alex WoodcockAlex Woodcock
451 The Empty Inn Jul 10, 2015 $3.99N/A (N/A)0 .. 20,00000:00 (00:00)Candlelight StudiosCandlelight Studios
452 Rock, the Tree Hugger Jul 30, 2015 $4.99N/A (N/A)0 .. 20,00000:00 (00:00)Machineman1357, Phanom GamesMachineman1357, Phanom Games
453 Terminal Hacker - Into the Deep Oct 30, 2015 $1.99N/A (N/A)0 .. 20,00000:00 (00:00)SecuritySession.comSecuritySession.com
454 Shmup Love Boom Sep 18, 2015 $2.99N/A (N/A)0 .. 20,00000:00 (00:00)NickySwanDharker Studios Ltd
455 Evolution II: Fighting for Survival Feb 12, 2015 $1.99N/A (N/A)0 .. 20,00000:00 (00:00)LiveItGames LLCLiveItGames LLC
456 Voodoo Chronicles: The First Sign HD - Director’s Cut Edition May 28, 2015 $6.99N/A (N/A)0 .. 20,00000:00 (00:00)Space Monkey International1C Online Games
457 栄冠は君に レジェンドパック Jan 8, 2015 $34.99N/A (N/A)0 .. 20,00000:00 (00:00)ARTDINKDegica
458 Gene Jan 30, 2015 $0.99N/A (N/A)0 .. 20,00000:00 (00:00)Vital Games LtdVital Games Ltd
459 Wildlife Creative Studio Jan 28, 2015 $6.99N/A (N/A)0 .. 20,00000:00 (00:00)Alternative Software LtdAlternative Software Ltd
460 Professor Teaches Windows 10 Jul 29, 2015 $14.99N/A (N/A)0 .. 20,00000:00 (00:00)Individual SoftwareIndividual Software
461 Birth of Shadows Nov 5, 2015 $4.99N/A (N/A)0 .. 20,00000:00 (00:00)Precision Games, LLCPrecision Games, LLC
462 Relic Alone Nov 26, 2015 N/AN/A (N/A)0 .. 20,00000:00 (00:00)NTT Plala Inc., Roconilo ProjectZoo Corporation
463 Ninja Outbreak Sep 20, 2015 $9.99N/A (N/A)0 .. 20,00000:00 (00:00)Renegade Sector GamesRenegade Sector Games
464 Spheritis Jun 4, 2015 $4.99N/A (N/A)0 .. 20,00000:00 (00:00)BluestrikeBluestrike
465 Prometheus - The Fire Thief Apr 20, 2015 $4.99N/A (N/A)0 .. 20,00000:00 (00:00)Magical HackersMagical Hackers
466 The Makeshifter Aug 21, 2015 $8.99N/A (N/A)0 .. 20,00000:00 (00:00)Squirrel PhysicsSquirrel Physics
467 Axes and Arrows Sep 29, 2015 $2.99N/A (N/A)20,000 .. 50,00000:00 (00:00)The Net ChampsThe Net Champs
468 Soda Star May 14, 2015 $3.99N/A (N/A)20,000 .. 50,00000:00 (00:00)Tiny UtopiaTiny Utopia
469 Blues and Bullets - Digital Comic Jul 23, 2015 $2.99N/A (N/A)0 .. 20,00000:00 (00:00)A Crowd of MonstersA Crowd of Monsters
470 Tick: The Time Based Puzzle Game Dec 1, 2015 $2.99N/A (N/A)0 .. 20,00000:00 (00:00)Fingertip Games UKFingertip Games UK
471 History in Letters - The Eternal Alchemist Dec 8, 2015 $7.99N/A (N/A)0 .. 20,00000:00 (00:00)Z-SoftwareZ-Software GmbH
472 Maraiyum: Rise of the Setting Sun Aug 1, 2015 $5.99N/A (N/A)0 .. 20,00000:00 (00:00)Humdrum Software LLCHumdrum Software LLC
473 Nirvana: The First Travel Jul 31, 2015 $3.99N/A (N/A)0 .. 20,00000:00 (00:00)Jardel EliasJardel Elias
474 Actua Golf 3 Aug 31, 2015 $4.99N/A (N/A)0 .. 20,00000:00 (00:00)UrbanscanConsole Classics
475 The Ultimate Showdown Sep 16, 2015 $2.99N/A (N/A)0 .. 20,00000:00 (00:00)Harrison WaltersSole Propriotership
476 Dissonance: An Interactive Novelette Dec 1, 2015 $0.99N/A (N/A)0 .. 20,00000:00 (00:00)Philip RoyerPhilip Royer
477 SBX: Invasion Jun 1, 2015 $1.99N/A (N/A)0 .. 20,00000:00 (00:00)Jason CarterWakeskater Studio
478 GravBlocks Dec 16, 2015 $1N/A (N/A)0 .. 20,00000:00 (00:00)From Nothing Game StudiosFrom Nothing Game Studios
479 Geared May 15, 2015 $2.99N/A (N/A)0 .. 20,00000:00 (00:00)Playful Art, LLCPlayful Art, LLC
480 Oncoming Death Steam Edition Oct 12, 2015 $0.49N/A (N/A)0 .. 20,00000:00 (00:00)David Vogt, Christoph WinklerShit-Happens-Software
481 Toy Wars Invasion May 28, 2015 $11.99N/A (N/A)0 .. 20,00000:00 (00:00)Web Interactive SolutionsWeb Interactive Solutions
482 Withstand: Apotheosis Jul 31, 2015 N/AN/A (N/A)0 .. 20,00000:00 (00:00)EpicHouse Studios LLCEpicHouse Studios LLC
483 Battletank LOBA Mar 17, 2015 $0.99N/A (N/A)0 .. 20,00000:00 (00:00)Five Archers GamesStrategy First
484 Fork Truck Challenge Jul 24, 2015 $7.99N/A (N/A)0 .. 20,00000:00 (00:00)Mint Arcade Ltd.Mint Arcade Ltd.
485 STOORM - Full Edition. Apr 28, 2015 $2.99N/A (N/A)0 .. 20,00000:00 (00:00)Garage Monkey StudioGarage Monkey Studio
486 Soccer Pinball Thrills Jun 26, 2015 $3.99N/A (N/A)0 .. 20,00000:00 (00:00)Fancy Bytes, ReactorUnited Independent Entertainment GmbH
487 Spellbind Mar 17, 2015 $1.99N/A (N/A)0 .. 20,00000:00 (00:00)Point2Point EntertainmentStrategy First
488 Trucker 2 Aug 14, 2015 $2.99N/A (N/A)0 .. 20,00000:00 (00:00)SildenPlay Publishing
489 Russian Front Jul 23, 2015 $14.99N/A (N/A)0 .. 20,00000:00 (00:00)Electric RuneHexWar Games
490 Island Flight Simulator Apr 17, 2015 $6.99N/A (N/A)0 .. 20,00000:00 (00:00)Caipirinha GamesLibredia
491 Mysteries & Nightmares: Morgiana Apr 13, 2015 $7.99N/A (N/A)0 .. 20,00000:00 (00:00)Little Games CompanyLittle Games Company
492 The Electric Shocktopus Jan 25, 2015 $6.99N/A (N/A)0 .. 20,00000:00 (00:00)TestTubeGamesTestTubeGames
493 Mahjong Magic Journey 3 Dec 12, 2015 $0.49N/A (N/A)0 .. 20,00000:00 (00:00)Creobit8floor
494 Christmas Mahjong 2 Dec 10, 2015 $4.99N/A (N/A)0 .. 20,00000:00 (00:00)Creobit8floor
495 Second Coming: Tactical Training Apr 30, 2015 $4.99N/A (N/A)0 .. 20,00000:00 (00:00)Modern Paradise Media Inc.Modern Paradise Media Inc.
496 Rktcr May 12, 2015 $4.99N/A (N/A)0 .. 20,00000:00 (00:00)TCHOWTCHOW
497 Ongaku May 29, 2015 $2.99N/A (N/A)0 .. 20,00000:00 (00:00)SmashMouth Games LtdSmashMouth Games Ltd
498 Knight & Damsel Aug 20, 2015 $9.99N/A (N/A)0 .. 20,00000:00 (00:00)MK-ULTRA GamesMK-ULTRA Games
499 Warlock's Citadel Oct 9, 2015 $5.99N/A (N/A)0 .. 20,00000:00 (00:00)Byte-UP Co., ltd.Byte-UP Co., ltd.
500 Fragmentum Dec 2, 2015 $9.99N/A (N/A)0 .. 20,00000:00 (00:00)Lundar GamesLundar Games
501 Lucid Awakening 2 Jan 7, 2015 $8.99N/A (N/A)0 .. 20,00000:00 (00:00)Momiji StudiosMomiji Studios
502 Floors of Discomfort May 26, 2015 $1.99N/A (N/A)0 .. 20,00000:00 (00:00)Three Prong ProductionsThree Prong Productions
503 CastleAbra Jun 5, 2015 $0.99N/A (N/A)0 .. 20,00000:00 (00:00)CastleAbra StudiosCastleAbra Studios
504 Snapshot - DSLR Camera Control Jul 23, 2015 $2.99N/A (N/A)0 .. 20,00000:00 (00:00)Chris HopkinChris Hopkin
505 Sakura Day Mahjong Jul 15, 2015 $4.99N/A (N/A)0 .. 20,00000:00 (00:00)Creobit8floor
506 Exostorm May 15, 2015 $3.99N/A (N/A)0 .. 20,00000:00 (00:00)Midnight Oil Games, LLCMidnight Oil Games, LLC
507 Vector Assault Dec 10, 2015 $4.99N/A (N/A)0 .. 20,00000:00 (00:00)WizByte GamesWizByte Games
508 In The Dead Of Night - Urszula's Revenge Dec 18, 2015 $4.99N/A (N/A)0 .. 20,00000:00 (00:00)Axed Game StudioAxed Game Studio
509 The Quivering Jan 28, 2015 $3.99N/A (N/A)0 .. 20,00000:00 (00:00)Charybdis LtdAlternative Software Ltd
510 SnarfQuest Tales Sep 15, 2015 $19.99N/A (N/A)0 .. 20,00000:00 (00:00)Cellbloc StudiosCellbloc Studios
511 Nature Defenders Dec 21, 2015 $4.99N/A (N/A)0 .. 20,00000:00 (00:00)Nordic Mist GamesNordic Mist Games
512 Driveby Gangster Sep 8, 2015 N/AN/A (N/A)0 .. 20,00000:00 (00:00)Verto Studio LLCVerto Studio LLC
513 Jane's Realty Oct 21, 2015 $2.99N/A (N/A)0 .. 20,00000:00 (00:00)RealoreQumaron
514 Rotieer Mar 5, 2015 $2.99N/A (N/A)0 .. 20,00000:00 (00:00)Enzo WhyteEnzo Whyte
515 Containment Protocol Aug 31, 2015 N/AN/A (N/A)0 .. 20,00000:00 (00:00)Xiotex Studios LtdXiotex Studios Ltd
516 Magician's Apprentice Nov 9, 2015 N/AN/A (N/A)0 .. 20,00000:00 (00:00)Kosek.comKosek.com
517 Purgatory: War of the Damned Feb 11, 2015 $14.99N/A (N/A)0 .. 20,00000:00 (00:00)Ironsun StudiosKISS ltd
518 Raise Your Own Clone Oct 13, 2015 $0.99N/A (N/A)100,000 .. 200,00000:00 (00:00)CoaguCo IndustriesCoaguCo Industries
519 Man Alive May 25, 2015 $4.99N/A (N/A)0 .. 20,00000:00 (00:00)Global Empire SoftGlobal Empire Soft
520 Catorize Nov 11, 2015 $2.99N/A (N/A)0 .. 20,00000:00 (00:00)Anima LocusAnima Locus
521 Jurassic Island: The Dinosaur Zoo Jun 11, 2015 $3.99N/A (N/A)0 .. 20,00000:00 (00:00)FrameLineNetworkFrameLineNetwork
522 Dad Beat Dads Oct 19, 2015 N/AN/A (N/A)0 .. 20,00000:00 (00:00)Stellar Jay StudiosStellar Jay Studios
523 Eczema Angel Orifice Jun 27, 2015 $4.99N/A (N/A)0 .. 20,00000:00 (00:00)Porpentine, NeotenomiePorpentine
524 Dr. Bulbaceous Nov 19, 2015 $3.99N/A (N/A)0 .. 20,00000:00 (00:00)WetgenesWetgenes
525 Celia's Quest Jun 24, 2015 $9.99N/A (N/A)0 .. 20,00000:00 (00:00)Duckvalley ProductionsDuckvalley Productions
526 MicroRC Simulation Dec 15, 2015 $1.99N/A (N/A)0 .. 20,00000:00 (00:00)Minindustries Game FactoryMinindustries Game Factory
527 Raining Coins Jan 18, 2015 $3.99N/A (N/A)0 .. 20,00000:00 (00:00)Crazysoft LimitedCrazysoft Limited
528 Tower of Eglathia Apr 6, 2015 $3.99N/A (N/A)0 .. 20,00000:00 (00:00)Lord EglathiaEglathia Games
529 Fatty Maze's Adventures Feb 19, 2015 $5.99N/A (N/A)0 .. 20,00000:00 (00:00)Five CubedT.G.S. TRUE GAMES STUDIO LIMITED
530 Mass Destruction Aug 24, 2015 $4.99N/A (N/A)0 .. 20,00000:00 (00:00)NMS SoftwareConsole Classics
531 Poppy Kart Oct 9, 2015 $4.99N/A (N/A)0 .. 20,00000:00 (00:00)Stephane Graziano, Franck Graziano, Mathieu LamarcheWebrox
532 Rothschild: The Sheep Will Wake Nov 23, 2015 $9.99N/A (N/A)0 .. 20,00000:00 (00:00)Loudpak StudiosLoudpak Studios
533 Funtoon's World May 1, 2015 $4.99N/A (N/A)0 .. 20,00000:00 (00:00)Yash Future Tech Solutions Pvt LtdYash Future Tech Solutions Pvt Ltd
534 Downpour May 14, 2015 $0.99N/A (N/A)0 .. 20,00000:00 (00:00)Modesto A. RabenaDivergent Game Studio
535 Mystery Maze Of Balthasar Castle Jul 10, 2015 $4.99N/A (N/A)0 .. 20,00000:00 (00:00)Caipirinha Games, DevQ1Libredia
536 ReLoaded Jul 24, 2015 $4.99N/A (N/A)0 .. 20,00000:00 (00:00)UrbanscanConsole Classics
537 The Worm Sep 29, 2015 $4.99N/A (N/A)0 .. 20,00000:00 (00:00)Carlo D'Apostoli ProjectsStrategy First
538 Cell HD: emergence Feb 19, 2015 $5.99N/A (N/A)0 .. 20,00000:00 (00:00)New Life Interactive, LLCNew Life Interactive, LLC
539 Super Pixalo Feb 3, 2015 $0.99N/A (N/A)0 .. 20,00000:00 (00:00)Philip RoyerPhilip Royer
540 Doomed'n Damned Jul 13, 2015 $5.99N/A (N/A)0 .. 20,00000:00 (00:00)Arc-genArc-gen
541 Eternal Realm May 18, 2015 FreeN/A (N/A)0 .. 20,00000:00 (00:00)Omega GamesOmega Games
542 Witches, Heroes and Magic Jun 29, 2015 $7.99N/A (N/A)0 .. 20,00000:00 (00:00)Michael SwanAweSwan
543 Super Space Meltdown Jul 31, 2015 $3.99N/A (N/A)0 .. 20,00000:00 (00:00)Polyquest Games, ZXDigital LtdZXDigital Ltd
544 Flight Unlimited Las Vegas Jul 6, 2015 $2.99N/A (N/A)20,000 .. 50,00000:00 (00:00)Flight Systems LLCFlight Systems LLC
545 QuestEvent Mar 24, 2015 $2.99N/A (N/A)0 .. 20,00000:00 (00:00)FivangFivang
546 The Legend of Candlewind: Nights & Candles Feb 12, 2015 $9.99N/A (N/A)20,000 .. 50,00000:00 (00:00)Atmosphere Entertainment Studios2tainment GmbH
547 SLIDE: platformer Jul 16, 2015 $4.99N/A (N/A)0 .. 20,00000:00 (00:00)APAS gamesAPAS games
548 Icebound Aug 5, 2015 $14.99N/A (N/A)0 .. 20,00000:00 (00:00)Fastermind GamesFastermind Games
549 Legend of Moros May 21, 2015 $4.99N/A (N/A)0 .. 20,00000:00 (00:00)Cannibal InteractiveCannibal Interactive
550 Drone Zero Gravity Oct 2, 2015 $9.99N/A (N/A)0 .. 20,00000:00 (00:00)Isaac NicholsIsaac Nichols
551 Amos From Outer Space Oct 5, 2015 $2.99N/A (N/A)0 .. 20,00000:00 (00:00)Poisson Rouge Interactica ltdPoisson Rouge Interactica ltd
552 Quantum Lock Dec 14, 2015 $5.99N/A (N/A)0 .. 20,00000:00 (00:00)FAT BOMB STUDIOS, LLCFAT BOMB STUDIOS, LLC
553 inSynch Sep 30, 2015 $4.99N/A (N/A)0 .. 20,00000:00 (00:00)Them GamesThem Games
554 عالم أريب Nov 2, 2015 $54.99N/A (N/A)0 .. 20,00000:00 (00:00)Remal ITRemal IT
555 Celestrion Dec 7, 2015 $0.99N/A (N/A)0 .. 20,00000:00 (00:00)dSky9, Inc.dSky9, Inc.
556 ATLAS レジェンドパック Jan 8, 2015 $24.99N/A (N/A)0 .. 20,00000:00 (00:00)ARTDINKDegica
557 Brain Guzzler: The End Is Nigh May 8, 2015 $0.99N/A (N/A)0 .. 20,00000:00 (00:00)Flaming Pumpkin LtdFlaming Pumpkin Ltd
558 Velocity Stream Oct 5, 2015 N/AN/A (N/A)0 .. 20,00000:00 (00:00)Cavelight EntertainmentCavelight Entertainment
559 Quatro Luzes Nov 15, 2015 $5.99N/A (N/A)0 .. 20,00000:00 (00:00)Jardel EliasJardel Elias
560 Nulldrifters Dec 14, 2015 $1.99N/A (N/A)0 .. 20,00000:00 (00:00)Cliax GamesCliax Games
561 My Family Creative Studio Jan 28, 2015 $6.99N/A (N/A)0 .. 20,00000:00 (00:00)Alternative Software LtdAlternative Software Ltd
562 Heart of Ember CH1 Jul 27, 2015 $1.99N/A (N/A)0 .. 20,00000:00 (00:00)Animation CatalystAnimation Catalyst
563 The Logomancer Aug 4, 2015 $3.99N/A (N/A)0 .. 20,00000:00 (00:00)Jeffrey Nordin, Justin NordinJeffrey Nordin
564 Louie Cooks Nov 10, 2015 $4.99N/A (N/A)0 .. 20,00000:00 (00:00)starlit studios, http://starlit-studio.com/starlit studios, http://starlit-studio.com/
565 Goggles - World of Vaporia Oct 9, 2015 $7.99N/A (N/A)20,000 .. 50,00000:00 (00:00)Bit2Good UgBit2Good Ug
566 All Fall Down Oct 16, 2015 $0.99N/A (N/A)0 .. 20,00000:00 (00:00)khos85khos85
567 Ramayana May 25, 2015 FreeN/A (N/A)0 .. 20,00000:00 (00:00)Rakesh MalikRakesh Malik
568 Umbra: Shadow of Death Dec 18, 2015 N/AN/A (N/A)0 .. 20,00000:00 (00:00)Colludium LtdColludium Ltd
569 Atlantic Quest Solitaire Jun 22, 2015 $8.99N/A (N/A)0 .. 20,00000:00 (00:00)familyplay
570 Chronoclysm Nov 12, 2015 $4.99N/A (N/A)0 .. 20,00000:00 (00:00)Zed-exZed-ex
571 Orc Slayer Nov 5, 2015 $4.99N/A (N/A)0 .. 20,00000:00 (00:00)Cooply SolutionsCooply Solutions
572 Dexterity Ball 3D Dec 7, 2015 $6.99N/A (N/A)0 .. 20,00000:00 (00:00)Quandary Solutions LTDQuandary Solutions LTD
573 Soccer Legends Aug 5, 2015 N/AN/A (N/A)0 .. 20,00000:00 (00:00)ZackBellGames
574 Martial Law May 26, 2015 $2.99N/A (N/A)0 .. 20,00000:00 (00:00)DropDGamesDropDGames
575 Hatland Adventures Feb 3, 2015 $2.99N/A (N/A)0 .. 20,00000:00 (00:00)Fractal AlligatorFractal Alligator
576 Red Bit Ninja May 4, 2015 $4.99N/A (N/A)0 .. 20,00000:00 (00:00)Seven Sails GamesSeven Sails Games
577 Invisible Apartment 2 Sep 24, 2015 $3.99N/A (N/A)0 .. 20,00000:00 (00:00)Milan Kazarka, Jeroen van OostenVysoko Anime Production
578 BEARZERKERS Oct 23, 2015 $12.99N/A (N/A)0 .. 20,00000:00 (00:00)WildgrassWildgrass
579 Dawn of the Plow Nov 3, 2015 $3.99N/A (N/A)0 .. 20,00000:00 (00:00)Dan FitzGerald, TrichotomyDan FitzGerald, Trichotomy
580 Treasure Hunter Man 2 Oct 24, 2015 $1.99N/A (N/A)0 .. 20,00000:00 (00:00)origamihero gamesorigamihero games
581 Lighthockey Oct 30, 2015 $1.99N/A (N/A)0 .. 20,00000:00 (00:00)Aries-LenovAries-Lenov
582 FALL Dec 17, 2015 $5.99N/A (N/A)0 .. 20,00000:00 (00:00)NorthbrainNorthbrain
583 Con Amore Nov 28, 2015 $4.99N/A (N/A)0 .. 20,00000:00 (00:00)Team TajuWronghut
584 Super Goo Goo Apr 16, 2015 $2.99N/A (N/A)0 .. 20,00000:00 (00:00)Greg LobanovDonut Games
585 Diamond Deeps Jun 1, 2015 $4.99N/A (N/A)0 .. 20,00000:00 (00:00)BIT-GENBIT-GEN
586 Tiki Galore Oct 5, 2015 N/AN/A (N/A)0 .. 20,00000:00 (00:00)Abyss StudiosAbyss Studios
587 Icarus-X: Tides of Fire Jun 24, 2015 $4.99N/A (N/A)0 .. 20,00000:00 (00:00)The QuadsphereThe Quadsphere
588 Gamefuel Driver Control Dec 10, 2015 $29.99N/A (N/A)0 .. 20,00000:00 (00:00)Auslogics SoftwareConsole Classics
589 VR Karts Apr 17, 2015 N/AN/A (N/A)0 .. 20,00000:00 (00:00)Viewpoint GamesViewpoint Games
590 Troubles Land Sep 11, 2015 $4.99N/A (N/A)0 .. 20,00000:00 (00:00)ENKSoftENKSoft
591 Janky Tanks Feb 12, 2015 $4.99N/A (N/A)0 .. 20,00000:00 (00:00)Hyper Hippo GamesHyper Hippo Games
592 Unheard Screams - King Leopold II's Rule Over The Congo May 11, 2015 $2.99N/A (N/A)0 .. 20,00000:00 (00:00)LocomotivahLocomotivah
593 Wicked Witches Nov 27, 2015 $9.99N/A (N/A)0 .. 20,00000:00 (00:00)Ectoplasm Studio Inc.Ectoplasm Studio Inc.
594 Rooftop Cop Mar 2, 2015 $2.99N/A (N/A)0 .. 20,00000:00 (00:00)S. L. ClarkIndependent
595 Professor Why: The Quantum Eye Dec 1, 2015 $9.99N/A (N/A)0 .. 20,00000:00 (00:00)Professor WhyProfessor Why
596 Pocket God vs Desert Ashes Aug 20, 2015 $4.99N/A (N/A)0 .. 20,00000:00 (00:00)Nine Tales Digital, Bolt CreativeNine Tales Digital
597 TOTM Feb 3, 2015 $7.99N/A (N/A)0 .. 20,00000:00 (00:00)Juniper GamesJuniper GmbH
598 Relativity Wars - A Science Space RTS Apr 10, 2015 $5.99N/A (N/A)0 .. 20,00000:00 (00:00)Fungameco LtdFungameco Ltd
599 Two Steps Back Aug 6, 2015 $2.99N/A (N/A)0 .. 20,00000:00 (00:00)Kristen CheelyKristen Cheely
600 Fruits Inc. Deluxe Pack Feb 19, 2015 $7.99N/A (N/A)0 .. 20,00000:00 (00:00)Manifesto Game StudioStrategy First
601 The Glow Dec 10, 2015 $3.99N/A (N/A)0 .. 20,00000:00 (00:00)Brainwashing gamesBrainwashing games
602 Shiny Gauntlet Oct 1, 2015 $0.99N/A (N/A)0 .. 20,00000:00 (00:00)SpritewrenchSpritewrench
603 3D Paraglider Aug 3, 2015 $1.99N/A (N/A)0 .. 20,00000:00 (00:00)khos85khos85
604 You Are Not The Hero Jun 2, 2015 $14.99N/A (N/A)0 .. 20,00000:00 (00:00)ToMorning ProductionsToMorning Productions
605 TAKEN Jul 7, 2015 $1.99N/A (N/A)0 .. 20,00000:00 (00:00)Undead Yeti SoftwareMath Nerd Productions, LLC
606 Caffeine Oct 12, 2015 $10.99N/A (N/A)0 .. 20,00000:00 (00:00)Incandescent ImagingIncandescent Imaging
607 Alchemist Penguin Jun 6, 2015 $1.99N/A (N/A)0 .. 20,00000:00 (00:00)Foot in the Box, LLCFoot in the Box, LLC
608 Steamalot: Epoch's Journey Aug 31, 2015 $4.99N/A (N/A)0 .. 20,00000:00 (00:00)Risen Phoenix StudiosRisen Phoenix Studios
609 Professor Why Chemistry 1 Oct 13, 2015 $9.99N/A (N/A)0 .. 20,00000:00 (00:00)Professor WhyProfessor Why
610 The BoX Dec 7, 2015 $2.99N/A (N/A)0 .. 20,00000:00 (00:00)White Clover WorldsWhite Clover Inc.
611 MagNets Jan 30, 2015 $7.99N/A (N/A)0 .. 20,00000:00 (00:00)Total MonkeryTotal Monkery
612 Marble Muse Aug 14, 2015 $4.99N/A (N/A)0 .. 20,00000:00 (00:00)Ketos Games, Shiny Snail LLCShiny Snail LLC
613 RED Fuse: Rolling Explosive Device Sep 16, 2015 $4.99N/A (N/A)0 .. 20,00000:00 (00:00)Meteor ShockMeteor Shock
614 Everything is Black and White Apr 23, 2015 $1.99N/A (N/A)0 .. 20,00000:00 (00:00)Thomas GwaltneyThomas Gwaltney
615 Carrotting Brain Oct 23, 2015 $8.99N/A (N/A)0 .. 20,00000:00 (00:00)Raving BotsRaving Bots
616 Crimson Light Jul 28, 2015 FreeN/A (N/A)0 .. 20,00000:00 (00:00)NandeeCrimson Lodge
617 Buggy Jul 6, 2015 $4.99N/A (N/A)0 .. 20,00000:00 (00:00)UrbanscanConsole Classics
618 Hunter Gatherer Mar 24, 2015 $1.99N/A (N/A)0 .. 20,00000:00 (00:00)Hunter Gatherer GamesHunter Gatherer Games
619 The Sheltered Apr 16, 2015 $1.99N/A (N/A)0 .. 20,00000:00 (00:00)Benjamin FamigliettiPuppet Arcade
620 Quadle Jul 23, 2015 N/AN/A (N/A)0 .. 20,00000:00 (00:00)GamesareClickteam
621 Parallels Nov 13, 2015 $0.99N/A (N/A)0 .. 20,00000:00 (00:00)RisingHighRisingHigh
622 Galaxy Union Jun 1, 2015 $4.99N/A (N/A)20,000 .. 50,00000:00 (00:00)cybercriticscybercritics
623 Extreme Formula Championship May 4, 2015 $6.99N/A (N/A)0 .. 20,00000:00 (00:00)Yash Future Tech Solutions Pvt LtdYash Future Tech Solutions Pvt Ltd
624 Bridge Creator 2015 Jan 26, 2015 N/AN/A (N/A)0 .. 20,00000:00 (00:00)Zojoi
625 Judgement Sep 15, 2015 $4.99N/A (N/A)0 .. 20,00000:00 (00:00)Nathan Archer, Luke Brown, Dan KramerNewfa Games
626 Choice of the Petal Throne Apr 10, 2015 $3.99N/A (N/A)0 .. 20,00000:00 (00:00)Choice of GamesChoice of Games
627 Hidden Mysteries: Civil War Aug 11, 2015 $4.99N/A (N/A)0 .. 20,00000:00 (00:00)Gunnar GamesGameMill Entertainment
628 none Nov 5, 2015 N/AN/A (N/A)20,000 .. 50,00000:00 (00:00)nonenone
629 Lonath Online Oct 16, 2015 $6.99N/A (N/A)0 .. 20,00000:00 (00:00)4NetGames4NetGames
630 Red Crow Mysteries: Legion May 28, 2015 $6.99N/A (N/A)0 .. 20,00000:00 (00:00)Cateia GamesLibredia Entertainment
631 Aqua Panic ! Nov 9, 2015 $7.99N/A (N/A)0 .. 20,00000:00 (00:00)Eko SoftwareEko Software
632 Destructamundo Jan 28, 2015 $4.99N/A (N/A)0 .. 20,00000:00 (00:00)MiniVisionsChoice Provisions
633 Jaques Roque Apr 1, 2015 $8.99N/A (N/A)0 .. 20,00000:00 (00:00)Thomas Schreiter, Dirk Schreiter, Jörg Winterstein, Peer Draeger, Gereon BartelAugusta Software GmbH
634 Bass Blocks Sep 15, 2015 $4.99N/A (N/A)0 .. 20,00000:00 (00:00)Paul CooneyPaul Cooney
635 Decromancer Oct 13, 2015 $9.99N/A (N/A)0 .. 20,00000:00 (00:00)UNIT9UNIT9
636 The Forgotten Forest Nov 11, 2015 $0.99N/A (N/A)0 .. 20,00000:00 (00:00)Dylan WentzDylan Wentz
637 Knight of the Hamsters Apr 15, 2015 $0.99N/A (N/A)0 .. 20,00000:00 (00:00)Johnny Death GamesRed Fly Studio
638 Sun Dogs Oct 29, 2015 $9.99N/A (N/A)0 .. 20,00000:00 (00:00)Royal PolygonRoyal Polygon
639 Freedom Poopie Oct 16, 2015 $2.99N/A (N/A)0 .. 20,00000:00 (00:00)Electroplasmatic GamesElectroplasmatic Games
640 WolfWars Jan 2, 2015 $2.99N/A (N/A)0 .. 20,00000:00 (00:00)Peter HrdyPeter Hrdy
641 Fury Of The Gods Jun 4, 2015 $2.99N/A (N/A)0 .. 20,00000:00 (00:00)Spectral GamesLibredia
642 It's Killing Time Jun 27, 2015 $3.99N/A (N/A)0 .. 20,00000:00 (00:00)Choice of GamesChoice of Games
643 Beatbuddy: On Tour Dec 4, 2015 $6.99N/A (N/A)0 .. 20,00000:00 (00:00)ThreaksThreaks
644 Paparazzi Feb 17, 2015 $1.99N/A (N/A)0 .. 20,00000:00 (00:00)Pringo Dingo GamesPringo Dingo Games
645 The Hole Story Jul 13, 2015 $4.99N/A (N/A)0 .. 20,00000:00 (00:00)LearnDistrict Inc., The NegativesLearnDistrict Inc.
646 Hills Of Glory 3D May 28, 2015 $4.99N/A (N/A)0 .. 20,00000:00 (00:00)AMA, Mando ProductionsPlug In Digital
647 Hostile Dimension Jun 25, 2015 $1.99N/A (N/A)0 .. 20,00000:00 (00:00)Alrauna StudiosPlay sp. z o. o.
648 The Legend of Tango Sep 11, 2015 N/AN/A (N/A)20,000 .. 50,00000:00 (00:00)Spilt Milk Studios LtdSpilt Milk Studios Ltd
649 3d Bridges Mar 24, 2015 $3.99N/A (N/A)0 .. 20,00000:00 (00:00)Robert DahlenburgDahlenburg
650 Isaac the Adventurer Mar 2, 2015 $2.99N/A (N/A)0 .. 20,00000:00 (00:00)Artisiti, Studio VrtinecArtisiti
651 3d Engineers Feb 10, 2015 $5.99N/A (N/A)0 .. 20,00000:00 (00:00)Robert DahlenburgDahlenburg
652 Break the Cube Jan 26, 2015 $0.99N/A (N/A)0 .. 20,00000:00 (00:00)Raxi PetrovRaxi Petrov
653 BattleQuiz Sep 3, 2015 $2.99N/A (N/A)0 .. 20,00000:00 (00:00)Rhema GroupPlay sp. z o. o.
654 CHAOS - In the Darkness Oct 7, 2015 $7.99N/A (N/A)0 .. 20,00000:00 (00:00)4Realms4Realms
655 Fantastic Pinball Thrills Jun 26, 2015 $4.99N/A (N/A)0 .. 20,00000:00 (00:00)Fancy Bytes, ReactorUnited Independent Entertainment GmbH
656 D/Generation HD Oct 23, 2015 $9.99N/A (N/A)0 .. 20,00000:00 (00:00)West Coast SoftwareWest Coast Software
657 Ice Cream Surfer Jul 21, 2015 $2.99N/A (N/A)0 .. 20,00000:00 (00:00)Dolores EntertainmentDolores Entertainment
658 Reiner Knizia's The Confrontation Sep 21, 2015 N/AN/A (N/A)0 .. 20,00000:00 (00:00)Offworld Games, LLCOffworld Games, LLC
659 One Final Chaos Oct 21, 2015 $4.99N/A (N/A)0 .. 20,00000:00 (00:00)Pusselbit, Sweet Studio LabsA Sweet Studio
660 Naught Reawakening Sep 10, 2015 N/AN/A (N/A)0 .. 20,00000:00 (00:00)Wild SphereGenera Games
661 Daily Espada Sep 30, 2015 $9.99N/A (N/A)0 .. 20,00000:00 (00:00)PidrohPidroh
662 Impulse Revolution Sep 9, 2015 $6.99N/A (N/A)0 .. 20,00000:00 (00:00)MandlebarMandlebar
663 SodaCity Dec 8, 2015 $9.99N/A (N/A)0 .. 20,00000:00 (00:00)Tochas StudiosTochas Studios
664 Tile Rider Jun 4, 2015 $3.99N/A (N/A)0 .. 20,00000:00 (00:00)7 Soft Pillows7 Soft Pillows
665 The Eigengrau Menagerie Jun 4, 2015 $2.99N/A (N/A)0 .. 20,00000:00 (00:00)Ozzie SneddonLibrarium Studios
666 Celestial Tear: Demon's Revenge Nov 19, 2015 N/AN/A (N/A)0 .. 20,00000:00 (00:00)White Guardian Studios, LLCDegica
667 Operation KREEP Oct 31, 2015 $2.99N/A (N/A)0 .. 20,00000:00 (00:00)Magic Item TechMagic Item Tech
668 Helena The 3rd May 1, 2015 $0.99N/A (N/A)0 .. 20,00000:00 (00:00)Only Human StudiosOnly Human Studios
669 Mystical Jul 31, 2015 N/AN/A (N/A)0 .. 20,00000:00 (00:00)Philippe ForgeurPhilippe Forgeur
670 A.V. Feb 13, 2015 FreeN/A (N/A)0 .. 20,00000:00 (00:00)FirstForever StudiosMAGIC Spell Studios
671 Invisible Apartment Zero Sep 24, 2015 $2.99N/A (N/A)0 .. 20,00000:00 (00:00)Jeroen van Oosten, Milan KazarkaVysoko Anime Production
672 Eisenbahn X Jun 8, 2015 $39.99N/A (N/A)0 .. 20,00000:00 (00:00)TREND, SoftproKoch Media
673 Bernie Needs Love Aug 21, 2015 $2.99N/A (N/A)0 .. 20,00000:00 (00:00)Protomni MultimediaProtomni Multimedia
674 Colony Assault Dec 15, 2015 N/AN/A (N/A)0 .. 20,00000:00 (00:00)Logic treeLogic tree
675 iso-Sphere Nov 13, 2015 $4.99N/A (N/A)0 .. 20,00000:00 (00:00)Mighty Fox StudioMighty Fox Studio
676 Usagi Yojimbo: Way of the Ronin Jan 30, 2015 $4.99N/A (N/A)0 .. 20,00000:00 (00:00)HappyGiantHappyGiant
677 Angels That Kill - The Final Cut Nov 20, 2015 $4.99N/A (N/A)0 .. 20,00000:00 (00:00)Rising Sun InteractiveRising Sun Interactive
678 Tactical Soccer The New Season Nov 20, 2015 $9.99N/A (N/A)20,000 .. 50,00000:00 (00:00)EGCLKISS ltd
679 Crazy Steam Bros 2 Apr 2, 2015 FreeN/A (N/A)0 .. 20,00000:00 (00:00)Ars CreativaArs Creativa
680 Amygdala Jul 15, 2015 $9.99N/A (N/A)0 .. 20,00000:00 (00:00)MachineSpiritMachineSpirit
681 Karma Jul 14, 2015 $0.99N/A (N/A)0 .. 20,00000:00 (00:00)WnMStudioWnMStudio
682 Fireflies Sep 7, 2015 $1.99N/A (N/A)20,000 .. 50,00000:00 (00:00)Phanom GamesPhanom Games
683 ABD: A Beautiful Day Aug 14, 2015 $24.99N/A (N/A)0 .. 20,00000:00 (00:00)Robert Bonner, Jack Hanley, Ben Rawles, Boris BlosseGag A Maggot Entertainment, LLC.
684 Offscreen Colonies: VR Edition Apr 5, 2015 FreeN/A (N/A)0 .. 20,00000:00 (00:00)ConspiracyConspiracy
685 Six F and Six 0 Sep 15, 2015 FreeN/A (N/A)0 .. 20,00000:00 (00:00)うどんぱうどんぱ
686 Box Out! May 4, 2015 $6.99N/A (N/A)0 .. 20,00000:00 (00:00)Da Picky MonkeyDa Picky Monkey
687 Champions Of Chaos 2 Aug 24, 2015 $1.99N/A (N/A)20,000 .. 50,00000:00 (00:00)Epic LLamaEpic LLama
688 Miko Gakkou Monogatari: Kaede Episode Aug 16, 2015 $8.99N/A (N/A)0 .. 20,00000:00 (00:00)xinoroxinoro
689 Rising Runner Nov 1, 2015 N/AN/A (N/A)50,000 .. 100,00000:00 (00:00)MagicbaneMagicbane
690 KreisReise Jun 8, 2015 FreeN/A (N/A)0 .. 20,00000:00 (00:00)Twilling Skyeonayu
691 Bleeding Blocks Sep 5, 2015 $1.99N/A (N/A)0 .. 20,00000:00 (00:00)Killer Teapot GamesKiller Teapot Games
692 Titanis Jun 8, 2015 $4.99N/A (N/A)0 .. 20,00000:00 (00:00)Silver Goblet GamesSilver Goblet Games
693 Traps N' Gemstones Apr 16, 2015 $4.99N/A (N/A)0 .. 20,00000:00 (00:00)Donut GamesDonut Games
694 Superstar Dance Club Aug 4, 2015 $4.99N/A (N/A)0 .. 20,00000:00 (00:00)Atomic PlanetConsole Classics
695 Slinki Apr 15, 2015 $0.99N/A (N/A)0 .. 20,00000:00 (00:00)Titan Forged GamesTitan Forged Games
696 Ghost in the Machine Apr 22, 2015 $4.99N/A (N/A)0 .. 20,00000:00 (00:00)Michael J. Moffitt, Julian J. HammersteinPolar Bunny Ltd
697 Threads of Destiny Dec 4, 2015 $4.99N/A (N/A)0 .. 20,00000:00 (00:00)Warfare StudiosWarfare Studios
698 Vagrant Hearts 2 May 20, 2015 $9.99N/A (N/A)0 .. 20,00000:00 (00:00)Warfare StudiosWarfare Studios
699 The Language Game Jul 9, 2015 $0.99N/A (N/A)0 .. 20,00000:00 (00:00)Tap To WinTap To Win
700 SkyScrappers Oct 15, 2015 $9.99N/A (N/A)0 .. 20,00000:00 (00:00)Ground ShatterGround Shatter
701 Signal to Noise Nov 20, 2015 $4.99N/A (N/A)0 .. 20,00000:00 (00:00)Solanimus Inc.Solanimus Inc.
702 Reigning Cats Aug 28, 2015 $1.99N/A (N/A)0 .. 20,00000:00 (00:00)Myra D'AnnMyra D'Ann
703 Ashes of Immortality II Aug 28, 2015 $6.99N/A (N/A)0 .. 20,00000:00 (00:00)Warfare StudiosWarfare Studios
704 Get Over Here Aug 20, 2015 $9.99N/A (N/A)0 .. 20,00000:00 (00:00)Reload Games StudioStrategy First
705 Deliverance Aug 31, 2015 $4.99N/A (N/A)0 .. 20,00000:00 (00:00)TBDTS GamesTBDTS Games
706 MAGIX Music Maker 2016 Live Steam Edition Oct 19, 2015 N/AN/A (N/A)0 .. 20,00000:00 (00:00)MAGIX Software GmbHMAGIX Software GmbH
707 World of Cinema - Movie Tycoon Apr 2, 2015 $4.99N/A (N/A)0 .. 20,00000:00 (00:00)Pepi GamesPepi Games
708 Car Washer: Summer of the Ninja Nov 4, 2015 $4.99N/A (N/A)0 .. 20,00000:00 (00:00)Pen and Sword GamesPen and Sword Games
709 Raywin Jul 29, 2015 $0.99N/A (N/A)50,000 .. 100,00000:00 (00:00)FlatlineVolens Nolens Games
710 Vindicator: Uprising Jul 3, 2015 $2.99N/A (N/A)0 .. 20,00000:00 (00:00)GamePhaseGamePhase
711 ルナティックドーン レジェンドパック Jan 8, 2015 $34.99N/A (N/A)0 .. 20,00000:00 (00:00)ARTDINKDegica
712 JamG Jul 6, 2015 $9.99N/A (N/A)0 .. 20,00000:00 (00:00)Ernő KirályErnő Király
713 XO-Planets Oct 23, 2015 $3.99N/A (N/A)0 .. 20,00000:00 (00:00)BohfamBohfam
714 Pavel Quest May 13, 2015 $2.99N/A (N/A)0 .. 20,00000:00 (00:00)ElevenSeventy, LLCElevenSeventy, LLC
715 Erwin's Timewarp Sep 21, 2015 $9.99N/A (N/A)0 .. 20,00000:00 (00:00)JayanamJayanam
716 Legena: Union Tides Oct 8, 2015 FreeN/A (N/A)0 .. 20,00000:00 (00:00)Grandpa PixelGrandpa Pixel
717 When In Rome Oct 29, 2015 $4.99N/A (N/A)0 .. 20,00000:00 (00:00)RealoreQumaron
718 Never Ending Night Sep 30, 2015 $0.99N/A (N/A)0 .. 20,00000:00 (00:00)Dot DreamDot Dream
719 Frizzy Dec 22, 2015 $2.99N/A (N/A)0 .. 20,00000:00 (00:00)Team FrizzTeam Frizz
720 Tidal Affair: Before The Storm Nov 24, 2015 $9.99N/A (N/A)0 .. 20,00000:00 (00:00)OvercurfewOvercurfew
721 Dorke and Ymp Oct 4, 2015 $4.99N/A (N/A)0 .. 20,00000:00 (00:00)Norse, Piko InteractivePiko Interactive LLC, Classics Digital
722 FranknJohn Mar 4, 2015 N/AN/A (N/A)0 .. 20,00000:00 (00:00)bitSmith GamesbitSmith Games
723 Ride the Bullet May 22, 2015 $3.99N/A (N/A)0 .. 20,00000:00 (00:00)Jordan SendarJordan Sendar
724 Navpoint Sep 23, 2015 $4.99N/A (N/A)0 .. 20,00000:00 (00:00)Ross EdgarPlug In Digital
725 Trap Them - Sniper Edition Oct 9, 2015 $3.99N/A (N/A)0 .. 20,00000:00 (00:00)Juri SchupiloJuri Schupilo
726 Demigods Oct 13, 2015 $3.99N/A (N/A)0 .. 20,00000:00 (00:00)RealoreQumaron
727 Dark Storm: VR Missions Aug 19, 2015 N/AN/A (N/A)0 .. 20,00000:00 (00:00)Fenrir StudiosFenrir Studios
728 Red Goblin: Cursed Forest May 15, 2015 $4.99N/A (N/A)0 .. 20,00000:00 (00:00)Eerie GamesFlying Interactive
729 Our Nation's Miner Dec 22, 2015 $5.99N/A (N/A)0 .. 20,00000:00 (00:00)Curtis HoltCurtis Holt
730 ROGUS - Kingdom of The Lost Souls Jun 30, 2015 $4.99N/A (N/A)0 .. 20,00000:00 (00:00)IronDrop StudiosIronDrop Studios
731 Space Thinger Sep 25, 2015 $1.99N/A (N/A)0 .. 20,00000:00 (00:00)WytchlightWytchlight
732 Human Extinction Simulator Jan 21, 2015 $19.99N/A (N/A)0 .. 20,00000:00 (00:00)Machine 22Machine 22
733 Solar System Conflict Apr 6, 2015 $9.99N/A (N/A)0 .. 20,00000:00 (00:00)UnexEvoUnexEvo
734 Hush Jul 29, 2015 $9.99N/A (N/A)0 .. 20,00000:00 (00:00)Game Studio 78Game Studio 78
735 Industry Transporters Aug 31, 2015 $9.99N/A (N/A)0 .. 20,00000:00 (00:00)Markus FickMK game production
736 10 Years After Jan 30, 2015 $5.99N/A (N/A)0 .. 20,00000:00 (00:00)Rock Paper GamesRock Paper Games
737 Red Spider2: Exiled Jan 17, 2015 FreeN/A (N/A)0 .. 20,00000:00 (00:00)studio waspstudio wasp
738 Friendship Club Mar 24, 2015 $11.99N/A (N/A)0 .. 20,00000:00 (00:00)Force Of Habit, Clockwork CuckooForce Of Habit
739 Expander Dec 1, 2015 $2.99N/A (N/A)0 .. 20,00000:00 (00:00)All Civilized PlanetsAll Civilized Planets
740 BADBLOOD Nov 13, 2015 $7.99N/A (N/A)0 .. 20,00000:00 (00:00)Winnie SongWSONG LLC
741 Déjà Vu II: MacVenture Series Jan 26, 2015 $2.99N/A (N/A)0 .. 20,00000:00 (00:00)ZojoiZojoi
742 Spud! Mar 3, 2015 $3.99N/A (N/A)0 .. 20,00000:00 (00:00)Charybdis LtdAlternative Software Ltd
743 Project Green Beat Jan 16, 2015 $4.99N/A (N/A)0 .. 20,00000:00 (00:00)SeattleEggIndie Game - None
744 Rapture Session & Pro Apr 28, 2015 N/AN/A (N/A)0 .. 20,00000:00 (00:00)CakewalkCakewalk
745 99 Waves to Die Apr 9, 2015 $2.99N/A (N/A)0 .. 20,00000:00 (00:00)SpookyFish GamesSpookyFish Games
746 StandPoint Mar 5, 2015 $9.99N/A (N/A)0 .. 20,00000:00 (00:00)Unruly AttractionsBANDAI NAMCO Entertainment, United Independent Entertainment GmbH
747 NeXus: One Core Feb 26, 2015 $4.99N/A (N/A)20,000 .. 50,00000:00 (00:00)Hyde GamesBulkyPix
748 In Space We Brawl Jul 17, 2015 N/AN/A (N/A)0 .. 20,00000:00 (00:00)Forge Reply srlPLAYISM
749 Build 'n Bump Jul 22, 2015 $3.99N/A (N/A)0 .. 20,00000:00 (00:00)Roppy Chop StudiosRoppy Chop Studios
750 Crystal Picnic Nov 2, 2015 N/AN/A (N/A)0 .. 20,00000:00 (00:00)NooskewlNooskewl
751 Ghost Cleaner Nov 5, 2015 $5.99N/A (N/A)0 .. 20,00000:00 (00:00)LookAtMyGameLookAtMyGame, Plug In Digital
752 A-Men 2 Jun 24, 2015 $8.99N/A (N/A)0 .. 20,00000:00 (00:00)Bloober Team SABloober Team SA
753 After All Apr 17, 2015 $2.99N/A (N/A)0 .. 20,00000:00 (00:00)JAMgamesW. T. B.
754 The Last Dogma - Wilder Wein Edition Jun 30, 2015 $6.99N/A (N/A)0 .. 20,00000:00 (00:00)Sasha DarkoSasha Darko
755 Arevan Jul 24, 2015 $7.99N/A (N/A)0 .. 20,00000:00 (00:00)Overcloud9Aldorlea Games
756 Hot Pinball Thrills Jun 26, 2015 $3.99N/A (N/A)0 .. 20,00000:00 (00:00)Fancy Bytes, ReactorUnited Independent Entertainment GmbH
757 Run Run And Die Sep 11, 2015 $1.99N/A (N/A)0 .. 20,00000:00 (00:00)Pixel Bones StudioHeadup Games
758 AWAKE Dec 16, 2015 N/AN/A (N/A)0 .. 20,00000:00 (00:00)DiiosYeti Studio©
759 Assault Corps 2 Jul 16, 2015 $2.99N/A (N/A)0 .. 20,00000:00 (00:00)AOS GAMEAOS GAME
760 Yasai Ninja Jul 21, 2015 $1.99N/A (N/A)0 .. 20,00000:00 (00:00)Recotechnology S.L.Recotechnology S.L.
761 MotorSport Revolution Jan 15, 2015 $14.99N/A (N/A)0 .. 20,00000:00 (00:00)Ghost MachineGhost Machine
762 SUMICO - The Numbers Game Jul 3, 2015 $4.99N/A (N/A)0 .. 20,00000:00 (00:00)LudomotionLudomotion
763 Shades of Black Aug 10, 2015 $11.99N/A (N/A)0 .. 20,00000:00 (00:00)MDNA GamesTri Synergy, Inc.
764 Melter Man Sep 18, 2015 $1.99N/A (N/A)0 .. 20,00000:00 (00:00)Husky Swim TeamRMM Studios, LLC
765 Space Xonix Sep 17, 2015 $0.99N/A (N/A)0 .. 20,00000:00 (00:00)SRF GamesSRF Games
766 Country Tales Aug 27, 2015 $6.99N/A (N/A)0 .. 20,00000:00 (00:00)Cateia GamesLibredia Entertainment
767 Super Mega Bob Dec 3, 2015 $4.99N/A (N/A)0 .. 20,00000:00 (00:00)JenitoJenito
768 Little Cells Jun 4, 2015 $3.99N/A (N/A)0 .. 20,00000:00 (00:00)Fully BuggedFully Bugged
769 PING 1.5+ Aug 13, 2015 $4.99N/A (N/A)0 .. 20,00000:00 (00:00)Nami TentouNami Tentou
770 Lapland Solitaire Sep 14, 2015 N/AN/A (N/A)0 .. 20,00000:00 (00:00)Lemon MooseNomad Games
771 Furfly Dec 18, 2015 $4.99N/A (N/A)0 .. 20,00000:00 (00:00)SMD Gaming StudioSMD Gaming Studio
772 Voyage to Farland Jun 2, 2015 $5.99N/A (N/A)0 .. 20,00000:00 (00:00)Peculiar GamesPeculiar Games
773 Panda School Browser May 22, 2015 $2.99N/A (N/A)0 .. 20,00000:00 (00:00)Wiseman SoftworksWiseman Softworks
774 Space Robot Samurai Zombie Slayer May 21, 2015 $1.99N/A (N/A)0 .. 20,00000:00 (00:00)Brandon BrizziBrandon Brizzi
775 Tkl Online Jan 27, 2015 $7.99N/A (N/A)0 .. 20,00000:00 (00:00)KURONEKO SOFTKURONEKO SOFT
776 SCHAR: Blue Shield Alliance Mar 3, 2015 $1.99N/A (N/A)0 .. 20,00000:00 (00:00)Brainshape GamesBA Productions LLC
777 Mad Snowboarding Sep 8, 2015 $4.99N/A (N/A)0 .. 20,00000:00 (00:00)Denis LapinerDenis Lapiner
778 Starlight Tactics Apr 7, 2015 $9.99N/A (N/A)0 .. 20,00000:00 (00:00)Escape Hatch Entertainment,LLCEscape Hatch Entertainment, LLC
779 Green Moon May 15, 2015 $6.99N/A (N/A)0 .. 20,00000:00 (00:00)Absolutist Ltd.Absolutist Ltd.
780 Barter Empire Feb 6, 2015 $4.99N/A (N/A)0 .. 20,00000:00 (00:00)Mayhem Games USAMayhem Games USA
781 Expert Rifleman - Reloaded Aug 14, 2015 $14.99N/A (N/A)0 .. 20,00000:00 (00:00)BattleByteBattleByte
782 The Curse of Nordic Cove Apr 23, 2015 $0.99N/A (N/A)0 .. 20,00000:00 (00:00)On The Level Game StudiosOn The Level Game Studios
783 Omnipresent Sep 28, 2015 $3.99N/A (N/A)0 .. 20,00000:00 (00:00)Starkey IndustriesStarkey Industries
784 Barbarian Brawl Feb 12, 2015 $4.99N/A (N/A)0 .. 20,00000:00 (00:00)ThrillionThrillion
785 Mech Marines: Steel March Jan 9, 2015 N/AN/A (N/A)0 .. 20,00000:00 (00:00)ByteTrail SoftwareByteTrail Software
786 Project Tarvotan Sep 25, 2015 $0.49N/A (N/A)20,000 .. 50,00000:00 (00:00)FlagmanJeremyFlagmanJeremy
787 Silicone-2 Jun 3, 2015 $0.99N/A (N/A)0 .. 20,00000:00 (00:00)Dima KivaDima Kiva
788 Go To Bed: Survive The Night Oct 28, 2015 $4.99N/A (N/A)0 .. 20,00000:00 (00:00)Touchfight Games LLCTouchfight Games LLC
789 Owys Aug 25, 2015 $0.99N/A (N/A)0 .. 20,00000:00 (00:00)Gameware StudiosGameware Studios
790 IPackThat Oct 6, 2015 N/AN/A (N/A)0 .. 20,00000:00 (00:00)Piranha Bytes Distribution UG&Co KGPiranha Bytes Distribution UG&Co KG
791 Taken Souls: Blood Ritual Collector's Edition Mar 23, 2015 $6.99N/A (N/A)0 .. 20,00000:00 (00:00)Space Monkey InternationalShaman Games Studio
792 Apollo4x May 5, 2015 $1.99N/A (N/A)0 .. 20,00000:00 (00:00)Digital EntertainmentDigital Entertainment
793 Pilot Crusader Jul 3, 2015 N/AN/A (N/A)0 .. 20,00000:00 (00:00)RadLabGamingLudomotion
794 The Tower Aug 15, 2015 $0.99N/A (N/A)20,000 .. 50,00000:00 (00:00)Narrow MonolithNarrow Monolith
795 Word Wonders: The Tower of Babel May 8, 2015 $3.99N/A (N/A)0 .. 20,00000:00 (00:00)Chimera EntertainmentGAMES in FLAMES
796 articy:draft 3 - Flex License Oct 5, 2015 N/AN/A (N/A)0 .. 20,00000:00 (00:00)Articy SoftwareArticy Software
797 Kagura Douchuuki Oct 22, 2015 $13.99N/A (N/A)0 .. 20,00000:00 (00:00)DebonosuWorks Inc.DebonosuWorks Inc.
798 Pixel: ru² Mar 6, 2015 $9.99N/A (N/A)0 .. 20,00000:00 (00:00)C63 IndustriesC63 Industries
799 Inventioneers Oct 5, 2015 $6.99N/A (N/A)0 .. 20,00000:00 (00:00)FilimundusFilimundus
800 Thundering Skies May 12, 2015 $0.99N/A (N/A)20,000 .. 50,00000:00 (00:00)Flat VoxelFlat Voxel
801 Baseball Riot Dec 9, 2015 $4.99N/A (N/A)0 .. 20,00000:00 (00:00)10tons Ltd10tons Ltd
802 Sherlock Holmes Consulting Detective: The Case of the Tin Soldier Jun 8, 2015 $2.99N/A (N/A)20,000 .. 50,00000:00 (00:00)ZojoiZojoi
803 Macabre Jul 6, 2015 N/AN/A (N/A)20,000 .. 50,00000:00 (00:00)MOCBJ SoftwareMOCBJ Software
804 Sir! I'd Like To Report A Bug! Oct 19, 2015 $1.99N/A (N/A)0 .. 20,00000:00 (00:00)Lord Puggington GamesLord Puggington Games
805 Factions: Origins of Malu Mar 23, 2015 N/AN/A (N/A)0 .. 20,00000:00 (00:00)Burning Dog MediaBurning Dog Media
806 Nightmare on Azathoth Oct 30, 2015 $0.99N/A (N/A)0 .. 20,00000:00 (00:00)Modesto RabenaDivergent Game Studio
807 Gamer Simulator Sep 22, 2015 $0.99N/A (N/A)0 .. 20,00000:00 (00:00)Punk Games StudioPunk Games Studio
808 DGU: Death God University Jul 15, 2015 $9.99N/A (N/A)0 .. 20,00000:00 (00:00)DSK Studios Pvt. LtdKPL
809 Elements: Epic Heroes Dec 21, 2015 $6.99N/A (N/A)0 .. 20,00000:00 (00:00)Zadzen Games Ltd.Zadzen Games Ltd.
810 Dark Gates Jan 26, 2015 $3.99N/A (N/A)0 .. 20,00000:00 (00:00)DFour GamesDFour Games
811 Shrooms May 8, 2015 $14.99N/A (N/A)0 .. 20,00000:00 (00:00)Immersive DouroImmersive Douro
812 Wonky Pigeon! Nov 26, 2015 N/AN/A (N/A)0 .. 20,00000:00 (00:00)Carlotta TattiCarlotta Tatti
813 Once Bitten, Twice Dead! Jul 17, 2015 $4.99N/A (N/A)20,000 .. 50,00000:00 (00:00)GamestartersGamestarters Publisher, Gamestarter's
814 Moonstrider Sep 30, 2015 $11.99N/A (N/A)0 .. 20,00000:00 (00:00)Triple LasersTriple Lasers
815 Mos Speedrun 2 Sep 3, 2015 $3.99N/A (N/A)0 .. 20,00000:00 (00:00)PhysmoPhysmo
816 Crystal Towers 2 XL Aug 11, 2015 $7.99N/A (N/A)0 .. 20,00000:00 (00:00)David NewtonDavid Newton
817 Subaeria Sep 22, 2015 $12.99N/A (N/A)0 .. 20,00000:00 (00:00)Studios iLLOGIKAStudios iLLOGIKA
818 Carnivore Land Sep 15, 2015 $7.99N/A (N/A)0 .. 20,00000:00 (00:00)dwCrewdwCrew
819 InnerCube Feb 13, 2015 $3.99N/A (N/A)0 .. 20,00000:00 (00:00)Schell GamesSchell Games
820 Innoquous 5 Aug 29, 2015 $0.99N/A (N/A)0 .. 20,00000:00 (00:00)Chequered Ink Ltd.Chequered Ink Ltd.
821 Mysterious Space May 15, 2015 $10N/A (N/A)0 .. 20,00000:00 (00:00)Ben Hendel-Doyingbenmakesgames.com
822 Cheats 4 Hire Jun 25, 2015 $4.99N/A (N/A)0 .. 20,00000:00 (00:00)Travian Games GmbHTravian Games GmbH
823 Piloteer Sep 25, 2015 $2.99N/A (N/A)0 .. 20,00000:00 (00:00)Fixpoint ProductionsFixpoint Productions
824 Aveyond 3-3: The Lost Orb Jan 16, 2015 $9.99N/A (N/A)0 .. 20,00000:00 (00:00)Amaranth Games, LLCDegica
825 Haywire on Fuel Station Zeta Sep 24, 2015 $3.99N/A (N/A)20,000 .. 50,00000:00 (00:00)Mad Goblin GamesMad Goblin Games
826 Robot Exploration Squad Sep 16, 2015 $2.99N/A (N/A)0 .. 20,00000:00 (00:00)Jack DolabanyDolaSoft
827 Weather Lord: The Successor's Path Apr 8, 2015 $4.99N/A (N/A)0 .. 20,00000:00 (00:00)Yustas Game Studio, Alawar EntertainmentBuka Entertainment
828 SCS deORBIT Aug 17, 2015 $0.99N/A (N/A)0 .. 20,00000:00 (00:00)Zero DollarzZero Dollarz
829 Lord of the Dark Castle Apr 20, 2015 $0.99N/A (N/A)200,000 .. 500,00000:00 (00:00)Craze Creative StudiosTrinity Project
830 Advent May 15, 2015 FreeN/A (N/A)0 .. 20,00000:00 (00:00)Omega GamesOmega Games
831 SWR JST DX Selective Memory Erase Effect Apr 20, 2015 $4.99N/A (N/A)0 .. 20,00000:00 (00:00)Nekomura GamesNekomura Games
832 Spirit Run - Fire vs. Ice Feb 12, 2015 $1.99N/A (N/A)0 .. 20,00000:00 (00:00)LunagamesLibredia
833 Chronicles of a Dark Lord: Rhapsody Clash Nov 20, 2015 N/AN/A (N/A)50,000 .. 100,00000:00 (00:00)Kisareth StudiosKisareth Studios
834 Rise of Keepers Dec 4, 2015 $12.99N/A (N/A)0 .. 20,00000:00 (00:00)Samaritan StudiosSamaritan Studios
835 Rolling Shapes Jun 5, 2015 $0.99N/A (N/A)0 .. 20,00000:00 (00:00)Vertex Games, S.C.Vertex Games, S.C.
836 Dale Hardshovel HD Sep 22, 2015 $0.99N/A (N/A)20,000 .. 50,00000:00 (00:00)phime studio LLCphime studio LLC
837 Rumble Oct 14, 2015 $1.99N/A (N/A)0 .. 20,00000:00 (00:00)OverflowOverflow
838 Gunslugs 2 Jan 14, 2015 $8.99N/A (N/A)0 .. 20,00000:00 (00:00)OrangepixelOrangepixel
839 Don'Yoku Jun 29, 2015 $3.99N/A (N/A)0 .. 20,00000:00 (00:00)Dark-Spot StudioDark-Spot Studio
840 Go Home - Rage incoming Aug 3, 2015 $1.99N/A (N/A)20,000 .. 50,00000:00 (00:00)Synter GamesSynter Games
841 Epic Showdown Oct 27, 2015 $4.99N/A (N/A)0 .. 20,00000:00 (00:00)NalokiNaloki
842 Dream Factory Nov 2, 2015 $9.99N/A (N/A)20,000 .. 50,00000:00 (00:00)The TambourineThe Tambourine
843 Light Bound Apr 23, 2015 $9.99N/A (N/A)0 .. 20,00000:00 (00:00)Garden Knight GamesGarden Knight Games
844 Daydreamer: Awakened Edition Aug 21, 2015 $10.99N/A (N/A)0 .. 20,00000:00 (00:00)Roland StudiosATLUS
845 Bocce Revolution Oct 23, 2015 $9.99N/A (N/A)0 .. 20,00000:00 (00:00)DysotekDysotek
846 Hypnosis Jan 28, 2015 $4.99N/A (N/A)0 .. 20,00000:00 (00:00)NevosoftNevosoft
847 Lucadian Chronicles Oct 15, 2015 $7.99N/A (N/A)0 .. 20,00000:00 (00:00)Dark Roast EntertainmentDark Roast Entertainment
848 Hacker Evolution Source Code May 11, 2015 $9.99N/A (N/A)0 .. 20,00000:00 (00:00)exosyphen studiosexosyphen studios
849 Deity Quest Jan 20, 2015 $3.99N/A (N/A)0 .. 20,00000:00 (00:00)Fancy Fish GamesFancy Fish Games
850 The Ables: Freepoint High Dec 16, 2015 $4.99N/A (N/A)0 .. 20,00000:00 (00:00)Qiwi Games, LLC, GraveckQiwi Games, LLC
851 Nandeyanen!? - The 1st Sûtra Jul 22, 2015 $1.99N/A (N/A)0 .. 20,00000:00 (00:00)Tchagata GamesTchagata Games
852 Tisnart Tiles Aug 31, 2015 $0.99N/A (N/A)0 .. 20,00000:00 (00:00)TisnartTisnart
853 UnSummoning: the Spectral Horde Dec 21, 2015 FreeN/A (N/A)0 .. 20,00000:00 (00:00)Roaming Ground StudioRoaming Ground Studio
854 Fairspace Oct 21, 2015 $8.99N/A (N/A)0 .. 20,00000:00 (00:00)Sub Orbital SoftwareSub Orbital Software
855 ORBIT Sep 30, 2015 $6.99N/A (N/A)0 .. 20,00000:00 (00:00)4Bit Games4Bit Games
856 PD Howler 9.6 Digital Painter and Visual FX box Mar 11, 2015 $8.99N/A (N/A)0 .. 20,00000:00 (00:00)Daniel Ritchie - PDHowler.com, Philip Staiger - TheBest3D.comKPL
857 Wildlife Park - Wild Creatures Apr 1, 2015 $3.89N/A (N/A)20,000 .. 50,00000:00 (00:00)b-alive gmbhb-alive gmbh
858 Evil Hazard Sep 16, 2015 $2.99N/A (N/A)0 .. 20,00000:00 (00:00)Pixel Blitz StudiosPixel Blitz Studios
859 The Way of the Pixelated Fist Apr 27, 2015 $0.99N/A (N/A)0 .. 20,00000:00 (00:00)Blaze EpicBlaze Epic
860 Monster RPG 2 Oct 12, 2015 N/AN/A (N/A)0 .. 20,00000:00 (00:00)NooskewlNooskewl
861 Cosplay Maker Dec 10, 2015 FreeN/A (N/A)0 .. 20,00000:00 (00:00)Locked Door PuzzleLupus Studios Limited
862 Artizens Mar 5, 2015 N/AN/A (N/A)0 .. 20,00000:00 (00:00)Artizens, Inc.Artizens, Inc.
863 Playing History: Vikings Jul 1, 2015 $0.99N/A (N/A)20,000 .. 50,00000:00 (00:00)Serious Games InteractiveSerious Games Interactive
864 Big Journey to Home Aug 20, 2015 $2.99N/A (N/A)20,000 .. 50,00000:00 (00:00)The Light Sword TeamThe Light Sword Team
865 Arkhelom 3D May 29, 2015 $3.99N/A (N/A)0 .. 20,00000:00 (00:00)DreamsSoftGamesDreamsSoftGames
866 MadOut Jun 6, 2015 $9.99N/A (N/A)0 .. 20,00000:00 (00:00)Nuligine, MadOut GamesNuligine, MadOut Games
867 Undead Shadows Feb 2, 2015 $3.99N/A (N/A)0 .. 20,00000:00 (00:00)Ignition Games Inc.Ignition Games Inc.
868 500 Years Act 1 Apr 15, 2015 $7.99N/A (N/A)0 .. 20,00000:00 (00:00)Poorwill GamesPoorwill Games
869 The Lost Island Nov 20, 2015 N/AN/A (N/A)50,000 .. 100,00000:00 (00:00)Finalspark GamestudiosFinalspark Gamestudios
870 Damned Nation Reborn Feb 12, 2015 $12.99N/A (N/A)20,000 .. 50,00000:00 (00:00)SinisterSinister
871 Curse of the Assassin May 12, 2015 $4.99N/A (N/A)0 .. 20,00000:00 (00:00)Tin Man GamesTin Man Games
872 Ludoku May 25, 2015 $4.99N/A (N/A)0 .. 20,00000:00 (00:00)Ludomo GamestudioLudomo Gamestudio
873 Chunky Orbits Sep 8, 2015 $1.99N/A (N/A)0 .. 20,00000:00 (00:00)Don WhitakerBrain Blinks
874 Trigger Saint Oct 9, 2015 $6.99N/A (N/A)0 .. 20,00000:00 (00:00)Aaron ArcandUndergroundies
875 Rogue Continuum Sep 15, 2015 N/AN/A (N/A)0 .. 20,00000:00 (00:00)Rocktastic GamesRocktastic Games
876 Getsuei Gakuen -kou- Nov 3, 2015 $24.99N/A (N/A)0 .. 20,00000:00 (00:00)Arc System WorksArc System Works
877 Aveyond 3-4: The Darkthrop Prophecy Feb 13, 2015 $9.99N/A (N/A)0 .. 20,00000:00 (00:00)Amaranth Games, LLCDegica
878 ZombieZoid Zenith Sep 30, 2015 $5.99N/A (N/A)0 .. 20,00000:00 (00:00)Adhoc GamesAdhoc Games
879 ASDAD: All-Stars Dungeons and Diamonds Oct 1, 2015 $4.99N/A (N/A)0 .. 20,00000:00 (00:00)Giant Enemy LabsGiant Enemy Labs
880 Amihailu in Dreamland Feb 15, 2015 FreeN/A (N/A)0 .. 20,00000:00 (00:00)DelmunsoftDelmunsoft
881 Metro Warp Aug 5, 2015 $4.99N/A (N/A)20,000 .. 50,00000:00 (00:00)Another YetiAnother Yeti
882 Hoven the Sages Spinel Aug 31, 2015 $1.99N/A (N/A)20,000 .. 50,00000:00 (00:00)Bradley Elam, Colton BoneHoven Indies
883 Mondrian - Abstraction in Beauty Sep 21, 2015 $4.99N/A (N/A)0 .. 20,00000:00 (00:00)Lantana GamesLantana Games
884 The Journey Back Aug 12, 2015 $2.99N/A (N/A)0 .. 20,00000:00 (00:00)Erwin WolfMarWin Studios
885 TableTop Cricket Feb 25, 2015 $9.99N/A (N/A)0 .. 20,00000:00 (00:00)Big Ant StudiosBig Ant Studios
886 Nicolas Eymerich The Inquisitor Book II : The Village Jan 22, 2015 $9.99N/A (N/A)0 .. 20,00000:00 (00:00)TiconBluMicroids Indie
887 But to Paint a Universe Jan 15, 2015 $4.99N/A (N/A)0 .. 20,00000:00 (00:00)Mårten JonssonJMJ Interactive
888 Undercover Missions: Operation Kursk K-141 Dec 11, 2015 $9.99N/A (N/A)0 .. 20,00000:00 (00:00)The Game SpeciesGrip Games
889 DRIFT 84 Jul 14, 2015 $2.99N/A (N/A)0 .. 20,00000:00 (00:00)Reventador GamesReventador Games
890 Pump-Action Captain Aug 20, 2015 N/AN/A (N/A)0 .. 20,00000:00 (00:00)Paradox Interactive
891 MadOut Ice Storm Sep 4, 2015 $6.99N/A (N/A)0 .. 20,00000:00 (00:00)Nuligine, MadOut GamesNuligine, MadOut Games
892 PeriAreion Feb 19, 2015 FreeN/A (N/A)0 .. 20,00000:00 (00:00)Explorasaurus StudiosExplorasaurus Studios
893 ABO MANDO Dec 31, 2015 $0.99N/A (N/A)50,000 .. 100,00000:00 (00:00)UNDEADAndrés Calva, Luis Calva
894 Exowar Mar 26, 2015 N/AN/A (N/A)20,000 .. 50,00000:00 (00:00)Aleksander CiesielskiNeomex-Games
895 Fractured Soul Feb 5, 2015 $9.99N/A (N/A)0 .. 20,00000:00 (00:00)Endgame StudiosEndgame Studios
896 Lightbender Dec 17, 2015 $2.99N/A (N/A)0 .. 20,00000:00 (00:00)Math Nerd Productions, LLCMath Nerd Productions, LLC
897 High Strangeness May 6, 2015 $4.99N/A (N/A)0 .. 20,00000:00 (00:00)Barnyard Intelligence Games, Crystal LabsBarnyard Intelligence Games
898 Unfair Jousting Fair Sep 3, 2015 $4.99N/A (N/A)0 .. 20,00000:00 (00:00)RodajaRodaja
899 Tenshu General Dec 1, 2015 $5.99N/A (N/A)0 .. 20,00000:00 (00:00)SmartArt Game StudioTenshu General
900 Geocore Jul 31, 2015 $2.99N/A (N/A)0 .. 20,00000:00 (00:00)Anarchy InteractiveAnarchy Interactive
901 ORBITOR Aug 21, 2015 $14.99N/A (N/A)0 .. 20,00000:00 (00:00)Evil AliensEvil Aliens
902 Shoot 'Em Up Kit Jun 5, 2015 $39.99N/A (N/A)0 .. 20,00000:00 (00:00)Tall StudiosTall Studios
903 Ninjahtic Mind Tricks Jul 16, 2015 $1.99N/A (N/A)20,000 .. 50,00000:00 (00:00)Blaze EpicBlaze Epic
904 Necromonads Oct 27, 2015 N/AN/A (N/A)0 .. 20,00000:00 (00:00)GamesareClickteam
905 NOBUNAGA'S AMBITION: Tenshouki WPK HD Version / 信長の野望・天翔記 with パワーアップキット HD Version Nov 11, 2015 $54.99N/A (N/A)0 .. 20,00000:00 (00:00)KOEI TECMO GAMES CO., LTD.KOEI TECMO GAMES CO., LTD.
906 Veteran Combat Feb 16, 2015 $1.99N/A (N/A)0 .. 20,00000:00 (00:00)CyberphobXCyberphobX
907 Anti-Opoly Aug 14, 2015 N/AN/A (N/A)0 .. 20,00000:00 (00:00)WebfootViva Media
908 Age of Castles: Warlords May 15, 2015 $2.99N/A (N/A)0 .. 20,00000:00 (00:00)Anarchy EnterprisesAnarchy Enterprises
909 Infect and Destroy Jan 29, 2015 $6.99N/A (N/A)0 .. 20,00000:00 (00:00)FarrugiaSoftFarrugiaSoft
910 Spellcrafter May 4, 2015 $4.99N/A (N/A)0 .. 20,00000:00 (00:00)Jujubee S.A.Jujubee S.A.
911 The Asskickers-Steam Edition Feb 6, 2015 $9.99N/A (N/A)0 .. 20,00000:00 (00:00)AGO GamesAGO Games
912 One Final Breath Sep 28, 2015 $3.99N/A (N/A)0 .. 20,00000:00 (00:00)Dark Day InteractiveDark Day Interactive
913 Cloudrift Oct 30, 2015 $6.99N/A (N/A)0 .. 20,00000:00 (00:00)friendlyOctopusfriendlyOctopus
914 Networm Oct 27, 2015 $1.99N/A (N/A)0 .. 20,00000:00 (00:00)Cuddly Zombie GamesCuddly Zombie Games
915 Reverse x Reverse Dec 10, 2015 $9.99N/A (N/A)0 .. 20,00000:00 (00:00)desunoyaSekai Project
916 Gulf of Aden - Task Force Somalia Dec 14, 2015 $8.99N/A (N/A)0 .. 20,00000:00 (00:00)BlewScreenBlewScreen
917 Daemon Detective Gaiden Aug 14, 2015 $9.99N/A (N/A)0 .. 20,00000:00 (00:00)YalDegica
918 Zeuxis : procedural texture generator Jun 2, 2015 $6.99N/A (N/A)0 .. 20,00000:00 (00:00)Martin VeilleuxMartin Veilleux
919 Dungeon Highway Mar 23, 2015 $3.99N/A (N/A)0 .. 20,00000:00 (00:00)SubstantialSubstantial
920 Throbax TD Nov 5, 2015 $2.99N/A (N/A)0 .. 20,00000:00 (00:00)Unterrainer Informatik OGUnterrainer Informatik OG
921 Sherlock Holmes Consulting Detective: The Case of the Mystified Murderess Jun 8, 2015 $2.99N/A (N/A)20,000 .. 50,00000:00 (00:00)ZojoiZojoi
922 The Architect Jun 4, 2015 N/AN/A (N/A)0 .. 20,00000:00 (00:00)Spooky StarSpooky Star
923 Crossbow Warrior - The Legend of William Tell Dec 10, 2015 $4.99N/A (N/A)0 .. 20,00000:00 (00:00)MobyDick GamesScherrer Medien GmbH
924 The Little Crane That Could Apr 27, 2015 $11.99N/A (N/A)0 .. 20,00000:00 (00:00)Game Studio Abraham Stolk Inc.Game Studio Abraham Stolk Inc.
925 Ancestory Oct 13, 2015 $14.99N/A (N/A)0 .. 20,00000:00 (00:00)Kajak GamesKajak Games
926 A Mass of Dead Jul 15, 2015 $4.99N/A (N/A)0 .. 20,00000:00 (00:00)Dev ArcDev Arc
927 Forest Warrior Jun 25, 2015 $3.99N/A (N/A)0 .. 20,00000:00 (00:00)Inferno StudioPlug In Digital
928 Bomb The Monsters! Nov 6, 2015 $0.99N/A (N/A)20,000 .. 50,00000:00 (00:00)Finalboss game studioTrinity Project
929 Scott in Space Jul 23, 2015 FreeN/A (N/A)20,000 .. 50,00000:00 (00:00)Ragiva Games e.K.Chris Hopkin
930 Sim Junta Aug 18, 2015 $1.99N/A (N/A)0 .. 20,00000:00 (00:00)Icehole GamesStrategy First
931 A.I. Invasion Sep 30, 2015 $9.99N/A (N/A)0 .. 20,00000:00 (00:00)GameArt Studio GmbHGameArt Studio GmbH
932 SHOFER Race Driver Jun 30, 2015 $8.99N/A (N/A)0 .. 20,00000:00 (00:00)Zhoori Maang EntertainmentZhoori Maang Entertainment
933 Super Snow Fight Nov 24, 2015 $4.99N/A (N/A)0 .. 20,00000:00 (00:00)Patrick GodPatrick God
934 Damn virgins Jul 31, 2015 $2.99N/A (N/A)0 .. 20,00000:00 (00:00)Luis RuizLuis Ruiz
935 Viking Saga: New World Nov 5, 2015 $1.99N/A (N/A)0 .. 20,00000:00 (00:00)RealoreQumaron
936 Xenocide Aug 28, 2015 $2.99N/A (N/A)0 .. 20,00000:00 (00:00)Confused GeniusSpawn Point OSK
937 Deathless: The City's Thirst Oct 23, 2015 $3.99N/A (N/A)0 .. 20,00000:00 (00:00)Choice of GamesChoice of Games
938 Where Angels Cry: Tears of the Fallen (Collector's Edition) Nov 9, 2015 $9.99N/A (N/A)0 .. 20,00000:00 (00:00)Cateia GamesLibredia Entertainment
939 Caverns of the Snow Witch (Standalone) Aug 3, 2015 $4.99N/A (N/A)0 .. 20,00000:00 (00:00)Tin Man GamesTin Man Games
940 Kaiju Panic Oct 9, 2015 $9.99N/A (N/A)0 .. 20,00000:00 (00:00)Mechabit LtdMechabit Ltd
941 XLarn May 25, 2015 $4.99N/A (N/A)0 .. 20,00000:00 (00:00)Swinfjord-GamesSwinfjord-Games
942 Musclecar Online Feb 12, 2015 $5.99N/A (N/A)0 .. 20,00000:00 (00:00)Psychic SoftwarePsychic Software
943 The Viceroy Jul 28, 2015 $19.99N/A (N/A)0 .. 20,00000:00 (00:00)Goatee GamesGoatee Games
944 Superstatic Sep 15, 2015 $4.99N/A (N/A)0 .. 20,00000:00 (00:00)Sleepy StudiosSleepy Studios
945 Roads of Rome 3 Oct 19, 2015 $3.99N/A (N/A)0 .. 20,00000:00 (00:00)WhiterraQumaron
946 Capsule Force Aug 25, 2015 $4.99N/A (N/A)0 .. 20,00000:00 (00:00)klobit LLCIron Galaxy
947 Unfinished - An Artist's Lament Aug 4, 2015 $4.99N/A (N/A)20,000 .. 50,00000:00 (00:00)Dust Scratch GamesDust Scratch Games
948 Let There Be Life Feb 13, 2015 $5.99N/A (N/A)0 .. 20,00000:00 (00:00)Backward pieSBackward pieS
949 Vicky Saves the Big Dumb World Oct 1, 2015 $0.99N/A (N/A)20,000 .. 50,00000:00 (00:00)DumbfoundedDumbfounded
950 Lightrise Dec 21, 2015 $0.99N/A (N/A)0 .. 20,00000:00 (00:00)Bulkhead Studios CorporationBulkhead Studios Corporation
951 Sunken Dec 3, 2015 $9.99N/A (N/A)0 .. 20,00000:00 (00:00)Hit the CrowJenito
952 Mars Colony: Frontier Sep 25, 2015 $4.99N/A (N/A)0 .. 20,00000:00 (00:00)HyperKat GamesHyperKat Games
953 Just Alone Jul 28, 2015 $12.99N/A (N/A)0 .. 20,00000:00 (00:00)EvergreenEvergreen
954 The Clans - Saga of the Twins Apr 21, 2015 $9.99N/A (N/A)20,000 .. 50,00000:00 (00:00)Supreme Clans EntertainmentSupreme Clans Entertainment
955 Legends of Dawn Reborn Oct 20, 2015 $29.99N/A (N/A)20,000 .. 50,00000:00 (00:00)DreamatrixDreamatrix
956 Second Warfare Jun 22, 2015 $14.99N/A (N/A)0 .. 20,00000:00 (00:00)Kobra StudioKobra Studio
957 WE ARE DOOMED Apr 21, 2015 $9.99N/A (N/A)0 .. 20,00000:00 (00:00)Vertex PopVertex Pop
958 ENIGMA : An Illusion Named Family Mar 16, 2015 $4.99N/A (N/A)0 .. 20,00000:00 (00:00)AV media labAV media lab
959 Legends of Pixelia Jun 17, 2015 $4.99N/A (N/A)0 .. 20,00000:00 (00:00)SimaGamesSimaGames
960 Rainbow Hero Feb 27, 2015 $4.99N/A (N/A)0 .. 20,00000:00 (00:00)Pixel ElephantBigger Boat
961 Color Guardians May 12, 2015 $14.99N/A (N/A)0 .. 20,00000:00 (00:00)Fair Play LabsNiffler Ltd.
962 Flem Apr 28, 2015 FreeN/A (N/A)0 .. 20,00000:00 (00:00)Henchman & GoonHenchman & Goon
963 TorqueL Jan 22, 2015 $4.99N/A (N/A)0 .. 20,00000:00 (00:00)Nanmo (Takayuki Yanagihara) @ FullPowerSideAttack.com, sanodg (Nobuyoshi Sano), FullPowerSideAttack.comPLAYISM
964 Gran Vitreous May 20, 2015 $4.99N/A (N/A)0 .. 20,00000:00 (00:00)Heliocentric StudiosHeliocentric Studios
965 Sentris Aug 12, 2015 $14.99N/A (N/A)0 .. 20,00000:00 (00:00)Timbre InteractiveTimbre Interactive
966 Soul Locus Apr 30, 2015 $9.99N/A (N/A)0 .. 20,00000:00 (00:00)Fat Loot GamesFat Loot Games
967 Spy Bugs Jun 26, 2015 N/AN/A (N/A)0 .. 20,00000:00 (00:00)Digital Soul GamesTheGameWall Studios
968 Save Halloween: City of Witches Oct 20, 2015 $4.99N/A (N/A)20,000 .. 50,00000:00 (00:00)Quick Click GamesCalenture Remedy Ltd
969 Blowy Fish Sep 25, 2015 $1.99N/A (N/A)0 .. 20,00000:00 (00:00)One Man Band GamesOne Man Band Games
970 Deadly Sin Mar 27, 2015 $4.99N/A (N/A)20,000 .. 50,00000:00 (00:00)Dancing Dragon GamesDegica
971 Pilot Brothers 3: Back Side of the Earth Jan 22, 2015 $4.99N/A (N/A)20,000 .. 50,00000:00 (00:00)1C Wireless1C Entertainment
972 Not without my donuts Apr 28, 2015 $1.99N/A (N/A)0 .. 20,00000:00 (00:00)Ben Aprigliano, Stefan EversEvilized productions, Different donut
973 Sky Battles Mar 25, 2015 $3.99N/A (N/A)20,000 .. 50,00000:00 (00:00)Peter LacalamitaVolens Nolens Games
974 Knight Adventure Oct 15, 2015 $0.99N/A (N/A)20,000 .. 50,00000:00 (00:00)SyberstudioSyberstudio
975 Princess Kaguya: Legend of the Moon Warrior Aug 4, 2015 $10.99N/A (N/A)0 .. 20,00000:00 (00:00)Zoo CorporationZoo Corporation
976 MyRPG Master Feb 9, 2015 N/AN/A (N/A)0 .. 20,00000:00 (00:00)DragonHead StudioPlug In Digital
977 Outpost 13 Oct 26, 2015 $0.99N/A (N/A)0 .. 20,00000:00 (00:00)Cantina Games and Entertainment, Inc.Cantina Games and Entertainment, Inc.
978 Naninights Jul 24, 2015 N/AN/A (N/A)20,000 .. 50,00000:00 (00:00)Maxim MooreAldorlea Games
979 Polychromatic Oct 2, 2015 $2.99N/A (N/A)0 .. 20,00000:00 (00:00)Brushfire GamesBrushfire Games
980 Nubs' Adventure Oct 12, 2015 $6.99N/A (N/A)0 .. 20,00000:00 (00:00)IMakeGamesIMakeGames
981 Trigonarium Aug 31, 2015 $3.99N/A (N/A)0 .. 20,00000:00 (00:00)Kimmo LahtinenKimmo Factor Oy
982 Color Assembler Jun 3, 2015 $7.99N/A (N/A)0 .. 20,00000:00 (00:00)Purple NebulaPurple Nebula
983 Robinson Crusoe and the Cursed Pirates Feb 10, 2015 $9.99N/A (N/A)20,000 .. 50,00000:00 (00:00)MagicIndieMumboJumbo
984 Heroes of Legionwood Jul 24, 2015 $6.99N/A (N/A)0 .. 20,00000:00 (00:00)Dark Gaia StudiosDegica
985 APT Aug 27, 2015 $14.99N/A (N/A)0 .. 20,00000:00 (00:00)RIP Studios LLCRIP Studios LLC
986 Stone Tales Dec 11, 2015 $0.99N/A (N/A)0 .. 20,00000:00 (00:00)Yellow Worm StudiosKISS ltd
987 My Paper Boat Sep 23, 2015 $4.99N/A (N/A)0 .. 20,00000:00 (00:00)TML-StudiosAerosoft GmbH
988 Faron's Fate Aug 14, 2015 $0.99N/A (N/A)0 .. 20,00000:00 (00:00)Winter Drake TellerWinter Drake Teller
989 XenoBloom Sep 23, 2015 $4.99N/A (N/A)0 .. 20,00000:00 (00:00)IBOLOGY LLCIBOLOGY LLC
990 Illuminascii Aug 11, 2015 $10.99N/A (N/A)0 .. 20,00000:00 (00:00)DDD WaresDDD Wares
991 Freedom Cry Sep 4, 2015 $6.99N/A (N/A)0 .. 20,00000:00 (00:00)Warfare StudiosWarfare Studios
992 Hatch and Slay Dec 22, 2015 $1.99N/A (N/A)20,000 .. 50,00000:00 (00:00)Myrolit StudiosMyrolit Studios
993 Giana Sisters: Dream Runners Aug 26, 2015 $9.99N/A (N/A)0 .. 20,00000:00 (00:00)Black Forest GamesEuroVideo Medien
994 The Archetype Sep 18, 2015 $4.99N/A (N/A)0 .. 20,00000:00 (00:00)Rafael Barreto, MacKenzie KaserThe Mundi Project Game Studios
995 Battle For The Sun Jul 22, 2015 $4.99N/A (N/A)20,000 .. 50,00000:00 (00:00)Appsolutely StudiosAppsolutely Studios
996 D Series OFF ROAD Driving Simulation May 19, 2015 $7.99N/A (N/A)0 .. 20,00000:00 (00:00)devotiddevotid Media
997 Professional Lumberjack 2015 Mar 5, 2015 $19.99N/A (N/A)20,000 .. 50,00000:00 (00:00)PlayWay S.A.BANDAI NAMCO Entertainment, United Independent Entertainment GmbH
998 SECTOR Jun 29, 2015 FreeN/A (N/A)20,000 .. 50,00000:00 (00:00)UDUD
999 CortexGear: AngryDroids Sep 6, 2015 $5.99N/A (N/A)50,000 .. 100,00000:00 (00:00)JH12world, Jordan BenoitJH12world
1000 Bit Shifter Nov 2, 2015 $14.99N/A (N/A)0 .. 20,00000:00 (00:00)Plastic GamesPlastic Games
1001 Volvox Dec 7, 2015 $9.99N/A (N/A)0 .. 20,00000:00 (00:00)NeoteniaNeotenia
1002 ルナティックドーン 前途への道標 Jan 8, 2015 $15.99N/A (N/A)0 .. 20,00000:00 (00:00)ARTDINKDegica
1003 Supreme League of Patriots - Episode 3: Ice Cold in Ellis Jan 29, 2015 $5.99N/A (N/A)20,000 .. 50,00000:00 (00:00)No Bull IntentionsPhoenix Online Publishing
1004 Castles Oct 9, 2015 $2.99N/A (N/A)20,000 .. 50,00000:00 (00:00)WhootgamesBadLand Publishing
1005 Skyflower Jun 25, 2015 $2.99N/A (N/A)0 .. 20,00000:00 (00:00)The Taco HeavenKOEI TECMO GAMES CO., LTD.
1006 Seeders Aug 21, 2015 $4.99N/A (N/A)0 .. 20,00000:00 (00:00)BigosaurBigosaur
1007 Zombie Killtime Aug 4, 2015 $1.99N/A (N/A)0 .. 20,00000:00 (00:00)Nicholas MalloryNicholas Mallory
1008 Match 3 Revolution Sep 11, 2015 $3.99N/A (N/A)0 .. 20,00000:00 (00:00)DreamsSoftGamesDreamsSoftGames
1009 B.A.D Battle Armor Division Aug 18, 2015 $5.99N/A (N/A)0 .. 20,00000:00 (00:00)Crian SoftCrian Soft
1010 President for a Day - Corruption Aug 5, 2015 $0.99N/A (N/A)20,000 .. 50,00000:00 (00:00)Serious Games InteractiveSerious Games Interactive
1011 ZombieRun Jun 3, 2015 $2.99N/A (N/A)0 .. 20,00000:00 (00:00)Guerrilla BanditGuerrilla Bandit
1012 Pirate's Life Apr 17, 2015 $4.99N/A (N/A)0 .. 20,00000:00 (00:00)Team EyepatchNone
1013 Corona MotorSport Mar 13, 2015 $9.99N/A (N/A)0 .. 20,00000:00 (00:00)LucasGameLucasGame
1014 March of Industry: Very Capitalist Factory Simulator Entertainments Oct 7, 2015 $9.99N/A (N/A)0 .. 20,00000:00 (00:00)Archive EntertainmentArchive Entertainment
1015 Kitchen Simulator 2015 Sep 4, 2015 $3.99N/A (N/A)50,000 .. 100,00000:00 (00:00)WhackAKey GamesBig Black Bear
1016 Way to Go! Jun 8, 2015 $4.99N/A (N/A)0 .. 20,00000:00 (00:00)Makivision GamesMakivision Games
1017 N2O: Nitrous Oxide Jun 29, 2015 $4.99N/A (N/A)0 .. 20,00000:00 (00:00)UrbanscanConsole Classics
1018 Inside Me Sep 29, 2015 $7.99N/A (N/A)0 .. 20,00000:00 (00:00)SnowBiteGamesSnowBiteGames
1019 DSY: Don't Shoot Yourself Apr 10, 2015 $4.99N/A (N/A)0 .. 20,00000:00 (00:00)Silverware Games, Inc.Silverware Games, Inc.
1020 Island Tribe Oct 19, 2015 $2.99N/A (N/A)0 .. 20,00000:00 (00:00)RealoreQumaron
1021 Alarameth TD Jun 23, 2015 $4.99N/A (N/A)0 .. 20,00000:00 (00:00)Matt GadientMatt Gadient
1022 Dr.Green Jan 2, 2015 $2.99N/A (N/A)0 .. 20,00000:00 (00:00)Johan AronssonJohan Aronsson
1023 Devouring Stars Jul 3, 2015 $9.99N/A (N/A)0 .. 20,00000:00 (00:00)NerialBulkyPix
1024 JUMP Jul 30, 2015 $9.99N/A (N/A)0 .. 20,00000:00 (00:00)Endeavor One Inc.Endeavor One Inc.
1025 Midnight's Blessing May 25, 2015 $9.99N/A (N/A)0 .. 20,00000:00 (00:00)Warfare StudiosWarfare Studios
1026 Thirty Years' War Sep 3, 2015 $29.99N/A (N/A)0 .. 20,00000:00 (00:00)Ageod, HQSlitherine Ltd.
1027 Break_In Apr 29, 2015 $9.99N/A (N/A)0 .. 20,00000:00 (00:00)Craig GibbsCraig Gibbs
1028 Ted by Dawn Jun 29, 2015 N/AN/A (N/A)0 .. 20,00000:00 (00:00)Proteus PixelProteus Pixel
1029 GeoVox May 22, 2015 $24.99N/A (N/A)0 .. 20,00000:00 (00:00)Axis Game Factory, Inc.Axis Game Factory, Inc.
1030 3D MiniGolf May 29, 2015 $4.99N/A (N/A)0 .. 20,00000:00 (00:00)Z-Software GmbHfamilyplay
1031 Dark Years Oct 16, 2015 $14.99N/A (N/A)20,000 .. 50,00000:00 (00:00)RSK EntertainmentKPL
1032 After Reset RPG Mar 9, 2015 $49.99N/A (N/A)0 .. 20,00000:00 (00:00)Black Cloud StudiosBlack Cloud Studios
1033 Age of Survival Aug 25, 2015 $18.99N/A (N/A)0 .. 20,00000:00 (00:00)SeattletekSeattletek
1034 Machineers - Episode 1: Tivoli Town May 14, 2015 $4.99N/A (N/A)0 .. 20,00000:00 (00:00)Lohika GamesLohika Games
1035 Khaba Jan 12, 2015 $3.99N/A (N/A)0 .. 20,00000:00 (00:00)Hello There ABHello There AB
1036 Megatect Nov 4, 2015 $7.99N/A (N/A)0 .. 20,00000:00 (00:00)Timedrop StudiosTimedrop Studios
1037 Shu's Garden Aug 11, 2015 $4.99N/A (N/A)0 .. 20,00000:00 (00:00)Colin Sanders, Jason RT BondJason RT Bond
1038 Deadlands Noir - That Old Time Religion Jul 3, 2015 $1.99N/A (N/A)0 .. 20,00000:00 (00:00)SmiteWorks USA, LLCSmiteWorks USA, LLC
1039 Centauri Sector Jun 24, 2015 $4.99N/A (N/A)0 .. 20,00000:00 (00:00)LW GamesLW Games
1040 VolChaos Dec 8, 2015 $2.99N/A (N/A)50,000 .. 100,00000:00 (00:00)Fun Infused GamesFun Infused Games
1041 Wonky Ship Sep 10, 2015 FreeN/A (N/A)0 .. 20,00000:00 (00:00)Kiz StudiosYou42, Inc.
1042 President for a Day - Floodings Aug 12, 2015 $0.99N/A (N/A)20,000 .. 50,00000:00 (00:00)Serious Games InteractiveSerious Games Interactive
1043 Hoyle Official Card Games Nov 18, 2015 N/AN/A (N/A)20,000 .. 50,00000:00 (00:00)Webfoot GamesViva Media
1044 The Book of Desires Dec 18, 2015 $6.99N/A (N/A)20,000 .. 50,00000:00 (00:00)Meridian'931C Entertainment
1045 ARM PLANETARY PROSPECTORS EP1 Asteroid Resource Mining Oct 1, 2015 $9.99N/A (N/A)0 .. 20,00000:00 (00:00)Nefarious Dimensions Interactive Games, NDiGNefarious Dimensions Inc.
1046 Puzzle Ball Oct 1, 2015 $2.99N/A (N/A)20,000 .. 50,00000:00 (00:00)Почежерцев Влад, Кашковский Антон, Бурков НикитаArt-Pulsar
1047 Bleeding Border Nov 9, 2015 $0.99N/A (N/A)50,000 .. 100,00000:00 (00:00)Curse Box StudiosVolens Nolens Games
1048 Hack Run ZERO Jul 13, 2015 $2.99N/A (N/A)0 .. 20,00000:00 (00:00)i273 LLCi273 LLC
1049 Dwarven Brawl Bros Jun 25, 2015 $4.99N/A (N/A)0 .. 20,00000:00 (00:00)Dwarves Might FlyDwarves Might Fly
1050 Starsphere Oct 26, 2015 $3.99N/A (N/A)0 .. 20,00000:00 (00:00)Julia GamesJulia Games
1051 Super Slam Dunk Touchdown Dec 16, 2015 $15N/A (N/A)0 .. 20,00000:00 (00:00)Tipping Goat LLCTipping Goat LLC
1052 Autumn Park Mini Golf Apr 2, 2015 $1.99N/A (N/A)0 .. 20,00000:00 (00:00)Serious TangentsSerious Tangents
1053 The World Named Fred Feb 27, 2015 $3.99N/A (N/A)0 .. 20,00000:00 (00:00)Here Be DragonzHere Be Dragonz
1054 Runes of Brennos Oct 16, 2015 FreeN/A (N/A)0 .. 20,00000:00 (00:00)LuGus StudiosLuGus Studios
1055 Spandex Force: Champion Rising Jun 24, 2015 $0.51N/A (N/A)20,000 .. 50,00000:00 (00:00)KarjaSoftVolens Nolens Games
1056 Inevitability Aug 24, 2015 $4.99N/A (N/A)0 .. 20,00000:00 (00:00)SFS StudiosSFS Studios
1057 Sister’s Secrecy: Arcanum Bloodlines - Premium Edition May 28, 2015 $6.99N/A (N/A)0 .. 20,00000:00 (00:00)Space Monkey International1C Company
1058 Drew and the Floating Labyrinth Feb 4, 2015 $4.99N/A (N/A)0 .. 20,00000:00 (00:00)Dust Scratch GamesDust Scratch Games
1059 Goodnight Butcher Dec 18, 2015 $1.99N/A (N/A)0 .. 20,00000:00 (00:00)Perfect Square StudiosPerfect Square Studios
1060 Alexia Crow and the Cave of Heroes May 4, 2015 $5.99N/A (N/A)0 .. 20,00000:00 (00:00)QuesttracersQuesttracers
1061 Cyberpunk 3776 Mar 24, 2015 $4.99N/A (N/A)20,000 .. 50,00000:00 (00:00)Peter HannPeter Hann
1062 MAGIX Music Maker Hip Hop 6 Steam Edition Mar 30, 2015 $39.99N/A (N/A)0 .. 20,00000:00 (00:00)MAGIX Software GmbHMAGIX Software GmbH
1063 MiniBikers Nov 5, 2015 N/AN/A (N/A)20,000 .. 50,00000:00 (00:00)Ivanovich GamesIvanovich Games
1064 Astro Emporia Feb 2, 2015 $0.99N/A (N/A)50,000 .. 100,00000:00 (00:00)Squirrelbot GamesSquirrelbot Games
1065 Hypership Out of Control Sep 29, 2015 $1.99N/A (N/A)20,000 .. 50,00000:00 (00:00)Fun Infused GamesFun Infused Games
1066 Sixth Grade Detective Dec 21, 2015 $3.99N/A (N/A)0 .. 20,00000:00 (00:00)Choice of GamesChoice of Games
1067 Adelantado Trilogy. Book one Dec 1, 2015 $4.99N/A (N/A)0 .. 20,00000:00 (00:00)WhiterraQumaron
1068 The Tiny Tale 2 Jan 30, 2015 $6.99N/A (N/A)0 .. 20,00000:00 (00:00)Running PillowRunning Pillow
1069 The Indie Mixtape Apr 23, 2015 $9.99N/A (N/A)0 .. 20,00000:00 (00:00)Daniel Linssen, Detective, Ditto, Glitchnap, Shark Jump StudiosCDP
1070 DP Animation Maker Feb 16, 2015 $69.99N/A (N/A)0 .. 20,00000:00 (00:00)DesktopPaints LLCDesktopPaints LLC
1071 Supreme League of Patriots - Episode 2: Patriot Frames Jan 29, 2015 $5.99N/A (N/A)0 .. 20,00000:00 (00:00)No Bull IntentionsPhoenix Online Publishing
1072 Turnover Dec 15, 2015 $1.99N/A (N/A)0 .. 20,00000:00 (00:00)Long Division LLCLong Division LLC
1073 Respawn Man Dec 21, 2015 $2.99N/A (N/A)0 .. 20,00000:00 (00:00)Evan (Solidplasma) PeiperlSolidplasma Studios LLC
1074 Super Sky Arena Oct 5, 2015 $14.99N/A (N/A)0 .. 20,00000:00 (00:00)Hammer LabsHammer Labs, Deck13
1075 City Quest Aug 20, 2015 $1.99N/A (N/A)0 .. 20,00000:00 (00:00)Stone Monkey StudiosStone Monkey Studios
1076 CMYW Oct 16, 2015 $3.99N/A (N/A)20,000 .. 50,00000:00 (00:00)Shane BerezowskiZen Labs
1077 Gare Sapphire Mechs Apr 1, 2015 $7.99N/A (N/A)0 .. 20,00000:00 (00:00)Prexen StudiosPrexen Studios
1078 Save Your Mother Dec 3, 2015 $2.99N/A (N/A)0 .. 20,00000:00 (00:00)Tuomo LaineTuomo's games
1079 ASA: A Space Adventure - Remastered Edition Mar 4, 2015 $9.99N/A (N/A)20,000 .. 50,00000:00 (00:00)Simon Says: Play!Simon Says: Play!
1080 The Princess' Heart Jul 30, 2015 $4.99N/A (N/A)0 .. 20,00000:00 (00:00)RosePortal GamesDegica
1081 Avaris 2: The Return of the Empress Dec 15, 2015 $7.99N/A (N/A)0 .. 20,00000:00 (00:00)StudioGIWZoo Corporation
1082 A Sirius Game Aug 21, 2015 $4.99N/A (N/A)0 .. 20,00000:00 (00:00)Overcloud9, Phantasm GamesAldorlea Games
1083 Abduction Action! Plus Sep 1, 2015 $1.99N/A (N/A)0 .. 20,00000:00 (00:00)Fun Infused GamesFun Infused Games
1084 Shadowrun Chronicles: INFECTED Director's Cut Dec 10, 2015 N/AN/A (N/A)0 .. 20,00000:00 (00:00)Cliffhanger ProductionsCliffhanger Productions
1085 Hacker's Beat Sep 15, 2015 $9.99N/A (N/A)20,000 .. 50,00000:00 (00:00)TEAM TANDS PLUSPLAYISM
1086 Undeadz! Sep 25, 2015 $0.99N/A (N/A)0 .. 20,00000:00 (00:00)Miguel LlerasMiguel Lleras
1087 Retaliation Nov 24, 2015 FreeN/A (N/A)20,000 .. 50,00000:00 (00:00)Cameron Baxter, Billy Jazz Hills StickleyCameron Baxter
1088 Project Druid - 2D Labyrinth Explorer- Jul 30, 2015 $0.99N/A (N/A)20,000 .. 50,00000:00 (00:00)Cemil TasdemirBack To Basics Gaming
1089 Space - The Return Of The Pixxelfrazzer Nov 2, 2015 $2.99N/A (N/A)0 .. 20,00000:00 (00:00)SørbSørb
1090 quadrant May 1, 2015 $3.99N/A (N/A)0 .. 20,00000:00 (00:00)undefundef
1091 Weather Lord: Following the Princess Collector's Edition Nov 4, 2015 $9.99N/A (N/A)0 .. 20,00000:00 (00:00)Yustas Game StudioAlawar Entertainment
1092 The Fool Mar 9, 2015 $9.99N/A (N/A)20,000 .. 50,00000:00 (00:00)MagicIndieMumboJumbo
1093 Arclight Cascade Aug 25, 2015 FreeN/A (N/A)0 .. 20,00000:00 (00:00)Hexdragonal GamesHexdragonal Games
1094 Samsa and the Knights of Light Dec 2, 2015 $4.99N/A (N/A)20,000 .. 50,00000:00 (00:00)Atixx, ClorithStudioClorithStudio
1095 Game Type Sep 23, 2015 $2.99N/A (N/A)20,000 .. 50,00000:00 (00:00)Mommy's Best GamesMommy's Best Games
1096 Alice's Mom's Rescue Sep 3, 2015 $7.99N/A (N/A)0 .. 20,00000:00 (00:00)OrionSoftOrionSoft
1097 Attack of the Labyrinth + Mar 3, 2015 FreeN/A (N/A)0 .. 20,00000:00 (00:00)Timedrop StudiosTimedrop Studios
1098 Zombie Camp: Last Survivor Apr 17, 2015 $1.99N/A (N/A)0 .. 20,00000:00 (00:00)LunagamesLibredia
1099 Card Dungeon Jun 2, 2015 $5.99N/A (N/A)0 .. 20,00000:00 (00:00)Playtap GamesPlaytap Games
1100 Fated Souls Jul 30, 2015 $9.99N/A (N/A)0 .. 20,00000:00 (00:00)Warfare StudiosAldorlea Games
1101 Arcane Sorcery Sep 15, 2015 FreeN/A (N/A)100,000 .. 200,00000:00 (00:00)Andrew RoweAndrew Rowe
1102 Front Wars Aug 17, 2015 $6.99N/A (N/A)0 .. 20,00000:00 (00:00)Homemade GamesHomemade Games
1103 CO-OP : Decrypted Apr 6, 2015 $9.99N/A (N/A)20,000 .. 50,00000:00 (00:00)Pixelz GamesPixelz Games
1104 Damnation City of Death Mar 3, 2015 N/AN/A (N/A)0 .. 20,00000:00 (00:00)AntiprotoAntiproto
1105 Streets of Chaos Jan 23, 2015 N/AN/A (N/A)100,000 .. 200,00000:00 (00:00)SimProse StudiosSimProse Studios
1106 Shadow of Kingdoms Aug 11, 2015 FreeN/A (N/A)50,000 .. 100,00000:00 (00:00)TernGameAdmax Game
1107 Roads of Rome 2 Oct 16, 2015 $3.99N/A (N/A)0 .. 20,00000:00 (00:00)WhiterraQumaron
1108 Hyphen Feb 12, 2015 N/AN/A (N/A)0 .. 20,00000:00 (00:00)FarSpace StudiosFarSpace Studios
1109 DungeonRift Jul 1, 2015 $9.99N/A (N/A)0 .. 20,00000:00 (00:00)RiftyGamesRiftyGames
1110 Mayhem Triple Sep 4, 2015 $4.99N/A (N/A)0 .. 20,00000:00 (00:00)Dustin GunnDustin Gunn
1111 RePete Nov 1, 2015 $1.99N/A (N/A)0 .. 20,00000:00 (00:00)Luke GodfreyLuke Godfrey
1112 Valiant: Resurrection May 8, 2015 $9.99N/A (N/A)0 .. 20,00000:00 (00:00)Warfare StudiosAldorlea Games
1113 TREBUCHET Jul 30, 2015 $5.99N/A (N/A)0 .. 20,00000:00 (00:00)iconical Ltd.iconical Ltd.
1114 Ironclads 2: American Civil War Nov 5, 2015 $9.99N/A (N/A)0 .. 20,00000:00 (00:00)Totem GamesStrategy First
1115 The Travels of Marco Polo May 6, 2015 $6.99N/A (N/A)0 .. 20,00000:00 (00:00)Totem StudioPlug In Digital
1116 Black Home Aug 7, 2015 $9.99N/A (N/A)0 .. 20,00000:00 (00:00)Warfare StudiosAldorlea Games
1117 Exile's End Aug 31, 2015 $9.99N/A (N/A)0 .. 20,00000:00 (00:00)Magnetic RealmsMarvelous
1118 The Race for the White House Jan 2, 2015 $14.99N/A (N/A)0 .. 20,00000:00 (00:00)EversimEversim
1119 Hyperspace Pinball Sep 30, 2015 $2.99N/A (N/A)20,000 .. 50,00000:00 (00:00)Gamieon, Inc.Gamieon, Inc.
1120 Herding Dog Dec 25, 2015 $0.99N/A (N/A)0 .. 20,00000:00 (00:00)xixgamesxixgames
1121 Cults and Daggers Feb 12, 2015 $29.99N/A (N/A)0 .. 20,00000:00 (00:00)ChaphatChaphat
1122 Chronicles of a Dark Lord: Episode II War of The Abyss Jan 16, 2015 N/AN/A (N/A)50,000 .. 100,00000:00 (00:00)Kisareth StudiosKisareth Studios
1123 Streamline Aug 21, 2015 $2.99N/A (N/A)20,000 .. 50,00000:00 (00:00)Frostcloud StudiosFrostcloud Studios
1124 Cave Coaster Jun 4, 2015 $4.99N/A (N/A)0 .. 20,00000:00 (00:00)SmyowlStrategy First
1125 Breakout Invaders Apr 24, 2015 $3.99N/A (N/A)20,000 .. 50,00000:00 (00:00)DreamsSoftGamesDreamsSoftGames
1126 Cylne Mar 5, 2015 $8.99N/A (N/A)0 .. 20,00000:00 (00:00)CylneCylne
1127 Wrestling Spirit 3 Dec 9, 2015 $19.99N/A (N/A)0 .. 20,00000:00 (00:00)Grey Dog SoftwareViva Media
1128 Bard to the Future Feb 27, 2015 N/AN/A (N/A)20,000 .. 50,00000:00 (00:00)Battlebard GamesBattlebard Games
1129 The Emptiness Deluxe Edition Apr 17, 2015 $9.99N/A (N/A)0 .. 20,00000:00 (00:00)Hooligans EntertainmentViva Media
1130 Kenney Game Assets May 8, 2015 N/AN/A (N/A)0 .. 20,00000:00 (00:00)KenneyKenney
1131 Prismatica Jul 1, 2015 $4.99N/A (N/A)0 .. 20,00000:00 (00:00)Loomus GamesLoomus Games
1132 Welcome to Boon Hill Oct 31, 2015 $7.99N/A (N/A)0 .. 20,00000:00 (00:00)Matthew Ritter14 Hours Productions
1133 Teddy Terror May 21, 2015 $4.99N/A (N/A)0 .. 20,00000:00 (00:00)Rage Monster GamesRage Monster Games
1134 Baseball Mogul Diamond Apr 3, 2015 $11.99N/A (N/A)0 .. 20,00000:00 (00:00)Sports Mogul, Inc.Sports Mogul, Inc.
1135 Hypt Apr 23, 2015 $4.99N/A (N/A)20,000 .. 50,00000:00 (00:00)EmpI StudiosCowardly Creations
1136 Entropy Rising Nov 20, 2015 $0.99N/A (N/A)20,000 .. 50,00000:00 (00:00)Autotivity EntertainmentAutotivity Entertainment
1137 Starlaxis Supernova Edition Feb 11, 2015 $8.99N/A (N/A)0 .. 20,00000:00 (00:00)Spiderwork Gamesfamilyplay
1138 Shadowgate: MacVenture Series Jan 26, 2015 $2.99N/A (N/A)50,000 .. 100,00000:00 (00:00)ZojoiZojoi
1139 Lost Labyrinth Extended Version Nov 24, 2015 $4.99N/A (N/A)0 .. 20,00000:00 (00:00)Markus DöbeleFlying Interactive
1140 One Hundred Ways Oct 23, 2015 $3.99N/A (N/A)20,000 .. 50,00000:00 (00:00)Sunlight GamesSunlight Games
1141 Castle Chaos Dec 8, 2015 $2.99N/A (N/A)0 .. 20,00000:00 (00:00)Odd Comet GamesOdd Comet Games
1142 Overruled! Sep 15, 2015 $1.94N/A (N/A)0 .. 20,00000:00 (00:00)Dlala StudiosTeam17 Digital Ltd
1143 Heavy Fire: Shattered Spear Oct 23, 2015 $3.99N/A (N/A)0 .. 20,00000:00 (00:00)TeyonMastiff
1144 Monsterland Dec 14, 2015 $1.99N/A (N/A)0 .. 20,00000:00 (00:00)Second Variety GamesSecond Variety Games
1145 Abomination Tower Feb 13, 2015 N/AN/A (N/A)0 .. 20,00000:00 (00:00)Amethyst QuarterAmethyst Quarter
1146 Wimp: Who Stole My Pants? Jun 5, 2015 $3.99N/A (N/A)0 .. 20,00000:00 (00:00)FlexileStudioFlexileStudio
1147 Cash_Out May 27, 2015 $4.99N/A (N/A)0 .. 20,00000:00 (00:00)UntouchUntouch
1148 Command: Northern Inferno Oct 22, 2015 N/AN/A (N/A)0 .. 20,00000:00 (00:00)WarfareSimsSlitherine Ltd.
1149 Soccertron Mar 12, 2015 $1.99N/A (N/A)0 .. 20,00000:00 (00:00)David ErosaErosa Games
1150 Cannibal Oct 28, 2015 $13.99N/A (N/A)0 .. 20,00000:00 (00:00)Gametek BrasilGametek Brasil
1151 Pillar May 29, 2015 $7.99N/A (N/A)20,000 .. 50,00000:00 (00:00)MichaelArtsMichaelArts
1152 Leadwerks Game Launcher Aug 24, 2015 FreeN/A (N/A)50,000 .. 100,00000:00 (00:00)Leadwerks SoftwareLeadwerks Software
1153 Butsbal Jun 2, 2015 FreeN/A (N/A)20,000 .. 50,00000:00 (00:00)Xtase StudiosXtase Studios
1154 Barren Roads Jun 1, 2015 $8.99N/A (N/A)0 .. 20,00000:00 (00:00)ForcequitapplicatonsForcequitapplicatons
1155 Nusantara: Legend of The Winged Ones Dec 13, 2015 $4.99N/A (N/A)0 .. 20,00000:00 (00:00)SweetChielSweetChiel
1156 Nature's Zombie Apocalypse Jul 23, 2015 $12.99N/A (N/A)0 .. 20,00000:00 (00:00)AniodeAniode
1157 Spectra Jul 10, 2015 $7.49N/A (N/A)0 .. 20,00000:00 (00:00)Gateway InteractiveMastertronic
1158 Serafina's Crown May 26, 2015 $7.99N/A (N/A)20,000 .. 50,00000:00 (00:00)Woodsy StudioThesis Games
1159 Rugby League Team Manager 2015 Jun 19, 2015 $19.99N/A (N/A)0 .. 20,00000:00 (00:00)Alternative Software LtdAlternative Software Ltd
1160 Sherlock Holmes Consulting Detective: The Case of the Mummy's Curse Jun 8, 2015 $2.99N/A (N/A)20,000 .. 50,00000:00 (00:00)ZojoiZojoi
1161 Cluck Yegger in Escape From The Planet of The Poultroid Nov 9, 2015 $2.99N/A (N/A)0 .. 20,00000:00 (00:00)Guys From Andromeda LLCGuys From Andromeda LLC
1162 Black Island Oct 14, 2015 FreeN/A (N/A)0 .. 20,00000:00 (00:00)Helsinki NoirHelsinki Noir
1163 The Land Of Lamia Nov 23, 2015 $0.99N/A (N/A)20,000 .. 50,00000:00 (00:00)Eddy GamesEddy Games
1164 Blood of Magic Dec 18, 2015 $9.99N/A (N/A)20,000 .. 50,00000:00 (00:00)Stoneworks GamesStoneworks Games
1165 KRUM - Edge Of Darkness Nov 24, 2015 $2.99N/A (N/A)20,000 .. 50,00000:00 (00:00)HA Studio Ltd.HA Studio Ltd.
1166 Combat Cats Mar 2, 2015 $2.99N/A (N/A)0 .. 20,00000:00 (00:00)Dingo DangoDingo Dango
1167 Viking Saga: The Cursed Ring Oct 29, 2015 $2.99N/A (N/A)0 .. 20,00000:00 (00:00)RealoreQumaron
1168 Aquadelic GT Mar 25, 2015 $4.99N/A (N/A)0 .. 20,00000:00 (00:00)Hammerware, s.r.o.Hammerware, s.r.o.
1169 Dragon Fantasy: The Volumes of Westeria Apr 9, 2015 $9.99N/A (N/A)0 .. 20,00000:00 (00:00)MutekiChoice Provisions
1170 Terraform May 8, 2015 $2.99N/A (N/A)0 .. 20,00000:00 (00:00)Holgersson EntertainmentHolgersson Entertainment
1171 Starchaser: Priestess of the Night Sky Jul 24, 2015 $9.99N/A (N/A)0 .. 20,00000:00 (00:00)NonlinearPLAYISM
1172 Dandy: Or a Brief Glimpse Into the Life of the Candy Alchemist Aug 4, 2015 $9.99N/A (N/A)0 .. 20,00000:00 (00:00)wefiends, Inc.wefiends, Inc.
1173 WonderCat Adventures Sep 11, 2015 $2.99N/A (N/A)20,000 .. 50,00000:00 (00:00)Obscure CloudObscure Cloud
1174 DigiFish Aqua Real 2 Jun 10, 2015 N/AN/A (N/A)0 .. 20,00000:00 (00:00)Formosoft InternationalDegica
1175 CopperCube 5 Game Engine May 1, 2015 $19.99N/A (N/A)0 .. 20,00000:00 (00:00)Ambiera e.U.Ambiera e.U.
1176 R.O.O.T.S Sep 6, 2015 $1.99N/A (N/A)20,000 .. 50,00000:00 (00:00)reMaginariumreMaginarium
1177 Street Arena Jul 10, 2015 $6.99N/A (N/A)20,000 .. 50,00000:00 (00:00)Blossom GamesGlob Games Studio
1178 Space Station Alpha Feb 27, 2015 $5.99N/A (N/A)20,000 .. 50,00000:00 (00:00)NuclearFirecrackerNuclearFirecracker
1179 Solar Shifter EX Sep 11, 2015 $4.99N/A (N/A)0 .. 20,00000:00 (00:00)Elder GamesHeadup Games
1180 Devils & Demons Oct 6, 2015 $9.99N/A (N/A)20,000 .. 50,00000:00 (00:00)HandyGamesHandyGames
1181 REVERSE SIDE Jul 30, 2015 N/AN/A (N/A)0 .. 20,00000:00 (00:00)RED STAR GAMESRED STAR GAMES
1182 Tompi Jones May 22, 2015 $3.99N/A (N/A)20,000 .. 50,00000:00 (00:00)DreamsSoftGamesDreamsSoftGames
1183 Axion Dec 11, 2015 N/AN/A (N/A)0 .. 20,00000:00 (00:00)Droog71Droog71
1184 Star Trek: Judgment Rites May 8, 2015 $9.99N/A (N/A)20,000 .. 50,00000:00 (00:00)Interplay Entertainment Corp.Interplay Entertainment Corp.
1185 HueBots Aug 26, 2015 FreeN/A (N/A)0 .. 20,00000:00 (00:00)HueboticsHuebotics
1186 XIIZEAL Jun 5, 2015 $11.99N/A (N/A)0 .. 20,00000:00 (00:00)TRIANGLE SERVICEDegica
1187 Samurai of Hyuga Jul 17, 2015 $3.99N/A (N/A)0 .. 20,00000:00 (00:00)Hosted GamesHosted Games
1188 Déjà Vu: MacVenture Series Jan 26, 2015 $2.99N/A (N/A)20,000 .. 50,00000:00 (00:00)ZojoiZojoi
1189 Fermi's Path Apr 20, 2015 $8.99N/A (N/A)0 .. 20,00000:00 (00:00)GameArt Studio GmbHGameArt Studio GmbH
1190 Lootfest Mar 14, 2015 $1.99N/A (N/A)0 .. 20,00000:00 (00:00)vikingfabian.comvikingfabian.com
1191 Eternal Step Oct 16, 2015 $9.99N/A (N/A)0 .. 20,00000:00 (00:00)Once More With GustoGreen Man Gaming Publishing
1192 Deserter Simulator Jul 30, 2015 $9.99N/A (N/A)0 .. 20,00000:00 (00:00)Pocket QueriesZoo Corporation
1193 An Imp? A Fiend! Mar 16, 2015 $0.99N/A (N/A)20,000 .. 50,00000:00 (00:00)Blaze EpicBlaze Epic
1194 Hydraulic Empire Jul 31, 2015 $7.99N/A (N/A)0 .. 20,00000:00 (00:00)Batholith EntertainmentBatholith Entertainment
1195 Dead But Alive! Southern England Oct 2, 2015 $14.99N/A (N/A)0 .. 20,00000:00 (00:00)Niels Bauer GamesNiels Bauer Games
1196 Galactic Inheritors Jun 9, 2015 $19.99N/A (N/A)20,000 .. 50,00000:00 (00:00)Crispon GamesPlug In Digital, Argonauts Interactive
1197 Predator Simulator May 11, 2015 $7.99N/A (N/A)0 .. 20,00000:00 (00:00)Imran ArafatReality Gameware
1198 Arson and Plunder: Unleashed Sep 25, 2015 $4.99N/A (N/A)20,000 .. 50,00000:00 (00:00)Chainsaw SyndicateHeadup Games
1199 liteCam Game 5: 120 FPS Game Capture + Streamer Dec 18, 2015 $19.99N/A (N/A)0 .. 20,00000:00 (00:00)Rsupport Inc.Rsupport Inc.
1200 Switch Galaxy Ultra Nov 20, 2015 $9.99N/A (N/A)20,000 .. 50,00000:00 (00:00)Atomicom LimitedGreen Man Gaming Publishing
1201 Goscurry Jan 16, 2015 $7.99N/A (N/A)0 .. 20,00000:00 (00:00)Daniele Giardini, Isak J MartinssonDemigiant
1202 Ultimate Space Commando May 12, 2015 $9.99N/A (N/A)0 .. 20,00000:00 (00:00)Creatio 49Angry Cat Ltd.
1203 Puzzle Strike Dec 21, 2015 $14.99N/A (N/A)0 .. 20,00000:00 (00:00)Sirlin GamesSirlin Games
1204 Big Thinkers Kindergarten Aug 18, 2015 $6.99N/A (N/A)20,000 .. 50,00000:00 (00:00)Humongous EntertainmentHumongous Entertainment, Nightdive Studios
1205 Crayon Chronicles Mar 2, 2015 $3.99N/A (N/A)0 .. 20,00000:00 (00:00)Outer Grid Games LLCOuter Grid Games LLC
1206 Ladra Nov 13, 2015 $1.99N/A (N/A)20,000 .. 50,00000:00 (00:00)Bright Flask GamesBright Flask Games
1207 liquivid Video Improve 2 Apr 21, 2015 N/AN/A (N/A)0 .. 20,00000:00 (00:00)nullplussoftwarenullplussoftware
1208 Ashley Clark: The Secrets of the Ancient Temple Jun 29, 2015 $9.99N/A (N/A)0 .. 20,00000:00 (00:00)N-Tri StudioN-Tri Studio
1209 Astronaut Simulator Apr 2, 2015 $1.99N/A (N/A)0 .. 20,00000:00 (00:00)AstrosimerAstrosimer
1210 Fist Slash: Of Ultimate Fury Dec 10, 2015 $3.99N/A (N/A)0 .. 20,00000:00 (00:00)Sinclair StrangeRising Star Games
1211 Gem Wars: Attack of the Jiblets Dec 15, 2015 FreeN/A (N/A)20,000 .. 50,00000:00 (00:00)Queen Birdface ProductionsQueen Birdface Productions
1212 Lost in Paradise Aug 20, 2015 $2.99N/A (N/A)20,000 .. 50,00000:00 (00:00)Elev8 GamesElev8 Games
1213 Handball 16 Nov 27, 2015 N/AN/A (N/A)0 .. 20,00000:00 (00:00)Eko SoftwareNacon, Plug In Digital
1214 Crystal Catacombs Jan 15, 2015 $7.99N/A (N/A)0 .. 20,00000:00 (00:00)Levels or Lives, Super Fun GamesCrescent Moon Games
1215 TownCraft Feb 25, 2015 $9.99N/A (N/A)0 .. 20,00000:00 (00:00)Flat Earth Games, Epiphany GamesFlat Earth Games
1216 Spheroid Aug 29, 2015 N/AN/A (N/A)20,000 .. 50,00000:00 (00:00)From Soy Sauce LLCFrom Soy Sauce LLC
1217 Moonbase 332 May 20, 2015 $4.99N/A (N/A)20,000 .. 50,00000:00 (00:00)camefrom.space, Marco Sadowskicamefrom.space
1218 Inferno 2 Jul 29, 2015 $4.99N/A (N/A)0 .. 20,00000:00 (00:00)RadiangamesRadiangames
1219 Big Thinkers 1st Grade Aug 18, 2015 $6.99N/A (N/A)20,000 .. 50,00000:00 (00:00)Humongous EntertainmentHumongous Entertainment, Nightdive Studios
1220 Trap Them Jul 10, 2015 $4.99N/A (N/A)0 .. 20,00000:00 (00:00)Juri SchupiloJuri Schupilo
1221 Mighty Switch Force! Academy Nov 23, 2015 $9.99N/A (N/A)0 .. 20,00000:00 (00:00)WayForwardWayForward
1222 Cute Things Dying Violently Sep 2, 2015 $2.99N/A (N/A)0 .. 20,00000:00 (00:00)ApathyWorks, LLCApathyWorks, LLC
1223 Death Tractor Oct 29, 2015 $0.99N/A (N/A)0 .. 20,00000:00 (00:00)Exato Game StudiosExato Game Studios
1224 Mystery Castle: The Mirror's Secret Dec 18, 2015 $6.99N/A (N/A)20,000 .. 50,00000:00 (00:00)Meridian'931C Entertainment
1225 Treeker: The Lost Glasses Remake May 13, 2015 $2.99N/A (N/A)20,000 .. 50,00000:00 (00:00)Fernando PauloFernando Paulo
1226 Lilly and Sasha: Guardian Angels Jul 7, 2015 N/AN/A (N/A)20,000 .. 50,00000:00 (00:00)John WizardJohn Wizard
1227 Minimon Mar 25, 2015 $9.99N/A (N/A)0 .. 20,00000:00 (00:00)Lunar LabsLunar Labs
1228 True Bliss May 22, 2015 $5.99N/A (N/A)20,000 .. 50,00000:00 (00:00)Artur MandasKPL
1229 PhysDrive Nov 10, 2015 $0.98N/A (N/A)100,000 .. 200,00000:00 (00:00)Royal Deal GamesRoyal Deal Games
1230 Tiamat X May 29, 2015 $1.99N/A (N/A)20,000 .. 50,00000:00 (00:00)BBQ GamesBBQ Games
1231 Scarab Tales Jul 1, 2015 $4.99N/A (N/A)20,000 .. 50,00000:00 (00:00)Playito.comPlayito.com
1232 Wave Mechanics Apr 23, 2015 $0.99N/A (N/A)0 .. 20,00000:00 (00:00)Adam TarnowskiAdam Tarnowski
1233 Replay - VHS is not dead Jul 9, 2015 $9.99N/A (N/A)20,000 .. 50,00000:00 (00:00)Team ReplayNeko Entertainment
1234 Farm Mania: Hot Vacation Oct 23, 2015 $3.99N/A (N/A)0 .. 20,00000:00 (00:00)RealoreQumaron
1235 Silver Creek Falls: Chapter 2 Sep 30, 2015 $4.99N/A (N/A)0 .. 20,00000:00 (00:00)Sapphire Dragon ProductionsSapphire Dragon Productions
1236 Ratings War Oct 2, 2015 $2.99N/A (N/A)0 .. 20,00000:00 (00:00)Choice of GamesChoice of Games
1237 The Lost Heir: The Fall of Daria Feb 20, 2015 $2.99N/A (N/A)0 .. 20,00000:00 (00:00)Hosted GamesHosted Games
1238 SEEP Universe Jul 15, 2015 $2.99N/A (N/A)0 .. 20,00000:00 (00:00)SEEPSEEP
1239 Lilly and Sasha: Nexus of Souls May 25, 2015 N/AN/A (N/A)20,000 .. 50,00000:00 (00:00)John WizardJohn Wizard
1240 Starship Traveller Mar 11, 2015 $4.99N/A (N/A)0 .. 20,00000:00 (00:00)Tin Man GamesTin Man Games
1241 Hello Kitty and Sanrio Friends Racing Jul 9, 2015 $19.99N/A (N/A)0 .. 20,00000:00 (00:00)Scarab EntertainmentScarab Entertainment
1242 Dungeon Crawlers HD Jun 1, 2015 $4.99N/A (N/A)0 .. 20,00000:00 (00:00)Drowning Monkeys GamesDrowning Monkeys Games
1243 //SNOWFLAKE TATTOO// Mar 27, 2015 $4.99N/A (N/A)50,000 .. 100,00000:00 (00:00)Rail Slave GamesKPL
1244 Ninja Guy Jan 5, 2015 $1.99N/A (N/A)20,000 .. 50,00000:00 (00:00)Immunity StudiosImmunity Studios
1245 Duck Life: Retro Pack May 11, 2015 $1.99N/A (N/A)0 .. 20,00000:00 (00:00)Wix GamesMoFunZone Inc.
1246 Default Dan Jan 15, 2015 $5.99N/A (N/A)0 .. 20,00000:00 (00:00)Kikiwik GamesKikiwik Games
1247 Color Symphony 2 Oct 16, 2015 $9.99N/A (N/A)0 .. 20,00000:00 (00:00)REMIMORYREMIMORY
1248 Payroll Nov 10, 2015 $0.99N/A (N/A)0 .. 20,00000:00 (00:00)GZ Storm, AstrojoneAstrojone
1249 Moorhuhn Invasion (Crazy Chicken Invasion) Feb 20, 2015 $3.99N/A (N/A)0 .. 20,00000:00 (00:00)DoyodoRetroism
1250 Cricket Captain 2015 Jul 8, 2015 $9.99N/A (N/A)0 .. 20,00000:00 (00:00)Childish ThingsKISS ltd
1251 CDF Ghostship Jun 26, 2015 $9.99N/A (N/A)0 .. 20,00000:00 (00:00)MadAboutGamesStudiosMadAboutGamesStudios
1252 Burnstar Mar 18, 2015 $4.99N/A (N/A)0 .. 20,00000:00 (00:00)Nerve Software LLCNerve Software LLC
1253 Wait - Extended Oct 29, 2015 $7.99N/A (N/A)0 .. 20,00000:00 (00:00)rest.less Gamesrest.less Games
1254 Pale Echoes Dec 10, 2015 $4.99N/A (N/A)0 .. 20,00000:00 (00:00)Wyrmling ProductionsDegica
1255 Umihara Kawase Shun Nov 24, 2015 $11.99N/A (N/A)0 .. 20,00000:00 (00:00)Studio SaizensenDegica
1256 The Guilt and the Shadow Feb 2, 2015 $8.99N/A (N/A)0 .. 20,00000:00 (00:00)oophokoophok
1257 The fall of gods Dec 18, 2015 $2.99N/A (N/A)20,000 .. 50,00000:00 (00:00)GeexGamesGeexGames
1258 The Body Changer Oct 15, 2015 $29.99N/A (N/A)0 .. 20,00000:00 (00:00)TheShortAndTheTallTheShortAndTheTall
1259 MOAI 2: Path to Another World Apr 11, 2015 $7.99N/A (N/A)0 .. 20,00000:00 (00:00)Toyman Interactive, Alawar EntertainmentBuka Entertainment
1260 Tachyon Project Jul 15, 2015 $9.99N/A (N/A)0 .. 20,00000:00 (00:00)Eclipse GamesEclipse Games
1261 Devilry Jun 30, 2015 $3.99N/A (N/A)0 .. 20,00000:00 (00:00)New StateNew State
1262 16 Bit Arena Mar 24, 2015 N/AN/A (N/A)50,000 .. 100,00000:00 (00:00)16bitarena.com16bitarena.com
1263 Shadow Hunter Apr 20, 2015 FreeN/A (N/A)20,000 .. 50,00000:00 (00:00)Jeff TrierJeff Trier
1264 Tango Fiesta – 80’s Action Film meets 2D Top Down Multiplayer Co-Op Roguelike Military Shooter Sep 24, 2015 $9.99N/A (N/A)20,000 .. 50,00000:00 (00:00)Spilt Milk Studios LtdSpilt Milk Studios Ltd
1265 Reflections Jun 26, 2015 $9.99N/A (N/A)0 .. 20,00000:00 (00:00)Broken Window StudiosBroken Window Studios
1266 Apothecarium: The Renaissance of Evil - Premium Edition May 28, 2015 $6.99N/A (N/A)20,000 .. 50,00000:00 (00:00)Space Monkey International1C Online Games
1267 Guild Commander Jan 23, 2015 $14.99N/A (N/A)0 .. 20,00000:00 (00:00)GTGDGTGD
1268 Rhino's Rage Mar 4, 2015 $4.99N/A (N/A)50,000 .. 100,00000:00 (00:00)DefroidsDefroids
1269 Sentinel 4: Dark Star Aug 13, 2015 $6.99N/A (N/A)0 .. 20,00000:00 (00:00)Origin8 Technologies LtdOrigin8 Technologies Ltd
1270 DELTAZEAL Oct 16, 2015 $11.99N/A (N/A)0 .. 20,00000:00 (00:00)TRIANGLE SERVICEDegica
1271 Buff Knight Advanced Sep 4, 2015 $2.99N/A (N/A)0 .. 20,00000:00 (00:00)Buff Studio Co.,Ltd.Buff Studio Co.,Ltd.
1272 The Great Fusion Feb 25, 2015 $2.99N/A (N/A)20,000 .. 50,00000:00 (00:00)Loading HomeLoading Home
1273 ManaCollect Apr 17, 2015 $6.99N/A (N/A)0 .. 20,00000:00 (00:00)Tazigen ClockFruitbat Factory
1274 Spirit of War Mar 12, 2015 $9.99N/A (N/A)20,000 .. 50,00000:00 (00:00)G-OLDPlug In Digital
1275 STAR-BOX: RPG Adventures in Space Aug 17, 2015 $4.99N/A (N/A)20,000 .. 50,00000:00 (00:00)Michael FlynnFlynnFour Games
1276 We Are Legion Aug 7, 2015 $9.99N/A (N/A)0 .. 20,00000:00 (00:00)Pwnee StudiosPwnee Studios
1277 Strania - The Stella Machina - Nov 24, 2015 $14.99N/A (N/A)0 .. 20,00000:00 (00:00)G.rev Ltd.G.rev Ltd.
1278 Prompt Jul 6, 2015 $4.99N/A (N/A)0 .. 20,00000:02 (00:02)Peter GutenkoPeter Gutenko
1279 Bad Sector HDD Sep 3, 2015 $0.99N/A (N/A)0 .. 20,00000:00 (00:00)Dan RuscoeDan Ruscoe
1280 Toto Temple Deluxe Sep 29, 2015 $9.99N/A (N/A)0 .. 20,00000:00 (00:00)Juicy BeastJuicy Beast
1281 Caromble! Aug 27, 2015 $12.99N/A (N/A)0 .. 20,00000:00 (00:00)Crimson Owl StudiosCrimson Owl Studios
1282 This Starry Midnight We Make Jun 1, 2015 $9.99N/A (N/A)0 .. 20,00000:00 (00:00)CAVYHOUSECarpe Fulgur LLC
1283 Isbarah Feb 25, 2015 $13.99N/A (N/A)0 .. 20,00000:00 (00:00)Leikir StudioLeikir Studio
1284 Army of Pixels Oct 29, 2015 $4.99N/A (N/A)0 .. 20,00000:00 (00:00)Gergely Zsolnay, Richard MarkosGergely Zsolnay, Richard Markos
1285 Pulsen Jul 27, 2015 $14.99N/A (N/A)0 .. 20,00000:00 (00:00)4-Panel Footprint4-Panel Footprint
1286 Boneless Zombie Jul 27, 2015 $4.99N/A (N/A)0 .. 20,00000:00 (00:00)Zoo CorporationZoo Corporation
1287 iaidoka_interlude Apr 24, 2015 $0.99N/A (N/A)0 .. 20,00000:00 (00:00)Blaze EpicBlaze Epic
1288 Akuatica Nov 27, 2015 $4.99N/A (N/A)0 .. 20,00000:00 (00:00)Tianyu StudioTianyu Studio
1289 ADventure Lib Aug 4, 2015 $1.99N/A (N/A)0 .. 20,00000:00 (00:00)Fancy Fish GamesFancy Fish Games
1290 Ferrum's Secrets: Where Is Grandpa? Aug 14, 2015 $4.99N/A (N/A)0 .. 20,00000:00 (00:00)EJRGamesEJRGames
1291 Stay Dead Evolution Feb 4, 2015 $5.99N/A (N/A)20,000 .. 50,00000:00 (00:00)BrucefilmPlug In Digital
1292 Explosionade Sep 23, 2015 $3.99N/A (N/A)0 .. 20,00000:00 (00:00)Mommy's Best GamesMommy's Best Games
1293 Discouraged Workers TEEN Nov 24, 2015 $4.99N/A (N/A)0 .. 20,00000:00 (00:00)YGGDRASIL STUDIOYGGDRASIL STUDIO
1294 ACID Music Studio 10 - Steam Powered Jun 2, 2015 N/AN/A (N/A)0 .. 20,00000:00 (00:00)MAGIX Software GmbHMAGIX Software GmbH
1295 Orion: A Sci-Fi Visual Novel Sep 28, 2015 $12.99N/A (N/A)20,000 .. 50,00000:00 (00:00)Cylight StudiosCylight Studios
1296 Lovely Weather We're Having Nov 10, 2015 N/AN/A (N/A)0 .. 20,00000:00 (00:00)Julian GlanderGlanderco
1297 Afterlife Empire Aug 21, 2015 $4.99N/A (N/A)0 .. 20,00000:00 (00:00)Autobotika, Game Nation IncThe Fine Young Capitalists
1298 Redemption: Eternal Quest Aug 28, 2015 $0.99N/A (N/A)50,000 .. 100,00000:00 (00:00)SimProse StudiosTrinity Project
1299 One Ship Two Ship Redshift Blueshift Sep 24, 2015 $8.99N/A (N/A)0 .. 20,00000:00 (00:00)HYPYRYLHYPYRYL
1300 The Uninvited: MacVenture Series Jan 26, 2015 $2.99N/A (N/A)20,000 .. 50,00000:00 (00:00)ZojoiReverb Triple XP
1301 Dreamscape Feb 2, 2015 $9.99N/A (N/A)0 .. 20,00000:00 (00:00)Aldorlea GamesDegica
1302 Planet Diver Nov 30, 2015 $3.99N/A (N/A)0 .. 20,00000:00 (00:00)FabrazFabraz
1303 Design it, Drive it : Speedboats Nov 28, 2015 $24.99N/A (N/A)0 .. 20,00000:00 (00:00)Performance SimulationsPerformance Simulations
1304 Link: The Unleashed Nexus Aug 21, 2015 $9.99N/A (N/A)0 .. 20,00000:00 (00:00)ReminisceReminisce
1305 The Living Dungeon Nov 2, 2015 $9.99N/A (N/A)0 .. 20,00000:00 (00:00)RadiationBurnRadiationBurn
1306 Sleep Attack May 28, 2015 $6.99N/A (N/A)0 .. 20,00000:00 (00:00)Bad SeedBad Seed
1307 Daughter of Shadows: An SCP Breach Event Jun 26, 2015 $0.99N/A (N/A)0 .. 20,00000:00 (00:00)Blackrose IndustriesBlackrose Industries
1308 The Lost Battalion: All Out Warfare Apr 23, 2015 $0.99N/A (N/A)20,000 .. 50,00000:00 (00:00)Jake OlsonImpartial Studios
1309 Rubber and Lead Sep 4, 2015 $4.99N/A (N/A)50,000 .. 100,00000:00 (00:00)Omega Point GamesCleverweek
1310 Ookibloks Oct 8, 2015 $1.99N/A (N/A)0 .. 20,00000:00 (00:00)Studio Work3, Lampert & Sons, Skyboy GamesSkyboy Games
1311 Natural Soccer Feb 2, 2015 $9.99N/A (N/A)0 .. 20,00000:00 (00:00)Thorsten SchleinzerThorsten Schleinzer
1312 Planetship Feb 6, 2015 $8.99N/A (N/A)0 .. 20,00000:00 (00:00)LaserWzzrd GamesLaserWzzrd Games
1313 The Ritual on Weylyn Island Dec 4, 2015 $11.99N/A (N/A)20,000 .. 50,00000:00 (00:00)zemaGamezzemaGamez
1314 The Defenders: The Second Wave Mar 30, 2015 $2.99N/A (N/A)20,000 .. 50,00000:00 (00:00)FallenMasterFallenMaster
1315 Lost in a Forest Jan 21, 2015 $1.99N/A (N/A)0 .. 20,00000:00 (00:00)KonsordoKonsordo
1316 Pure Hold'em Aug 20, 2015 $19.99N/A (N/A)0 .. 20,00000:00 (00:00)VooFoo StudiosRipstone
1317 C-Wars Aug 13, 2015 $12.99N/A (N/A)0 .. 20,00000:00 (00:00)Onipunks Studio Inc.Onipunks Studio Inc.
1318 Gravity Error Aug 12, 2015 $4.99N/A (N/A)20,000 .. 50,00000:00 (00:00)Faris MohammedFaris Mohammed
1319 The Last Warlock Aug 24, 2015 $4.99N/A (N/A)0 .. 20,00000:00 (00:00)Sonic SlothSonic Sloth
1320 STEEL STRIDER Nov 12, 2015 $5.99N/A (N/A)20,000 .. 50,00000:00 (00:00)ASTRO PORTHenteko Doujin
1321 Sandmason May 4, 2015 $3.99N/A (N/A)0 .. 20,00000:00 (00:00)GoodVoleGoodVole
1322 Vector Strain Dec 9, 2015 $4.99N/A (N/A)20,000 .. 50,00000:00 (00:00)OMNIDREAM CREATIONSOMNIDREAM CREATIONS
1323 Vektor Wars Jun 4, 2015 $9.99N/A (N/A)20,000 .. 50,00000:00 (00:00)Super Icon LtdSuper Icon Ltd
1324 Twilight City: Love as a Cure Dec 18, 2015 $6.99N/A (N/A)0 .. 20,00000:00 (00:00)Meridian'931C Entertainment
1325 Dungeon Manager ZV Oct 16, 2015 $9.99N/A (N/A)0 .. 20,00000:00 (00:00)StudioGIWZoo Corporation
1326 Ski Park Tycoon Feb 3, 2015 $9.99N/A (N/A)0 .. 20,00000:00 (00:00)Jan ZizkaJan Zizka
1327 Cahors Sunset Jan 12, 2015 $1.99N/A (N/A)0 .. 20,00000:00 (00:00)LocomotivahLocomotivah
1328 Club Manager 2016 Nov 19, 2015 $19.99N/A (N/A)20,000 .. 50,00000:00 (00:00)BigBlaze Games2tainment GmbH
1329 JUDGEMENT SILVERSWORD - Resurrection - Sep 18, 2015 $4.99N/A (N/A)0 .. 20,00000:00 (00:00)QuteDegica
1330 Mighty Switch Force! Hose It Down! Jun 4, 2015 $2.99N/A (N/A)0 .. 20,00000:00 (00:00)WayForwardWayForward
1331 Fuego! Nov 16, 2015 $4.99N/A (N/A)0 .. 20,00000:00 (00:00)radiostaticradiostatic
1332 Warriors & Castles Jun 30, 2015 $2.99N/A (N/A)20,000 .. 50,00000:00 (00:00)Estudio Raed WulfEstudio Raed Wulf
1333 BOMB: Who let the dogfight? Aug 1, 2015 $7.99N/A (N/A)0 .. 20,00000:00 (00:00)La Moustache StudioLa Moustache Studio
1334 Showing Tonight: Mindhunters Incident Nov 12, 2015 $2.99N/A (N/A)20,000 .. 50,00000:00 (00:00)phime studio LLCphime studio LLC
1335 AdvertCity Apr 17, 2015 $19.99N/A (N/A)0 .. 20,00000:00 (00:00)VoxelStormVoxelStorm
1336 Wars of Napoleon Dec 3, 2015 $39.99N/A (N/A)0 .. 20,00000:00 (00:00)AgeodSlitherine Ltd.
1337 Wave of Darkness Nov 5, 2015 $29.99N/A (N/A)20,000 .. 50,00000:00 (00:00)DreamatrixDreamatrix
1338 Servo May 28, 2015 N/AN/A (N/A)0 .. 20,00000:00 (00:00)BonusXPBonusXP
1339 Roads of Rome Oct 16, 2015 $3.99N/A (N/A)0 .. 20,00000:00 (00:00)WhiterraQumaron
1340 Spaceman Sparkles 2 May 20, 2015 $2.99N/A (N/A)20,000 .. 50,00000:00 (00:00)tjerntjern
1341 In Exilium Mar 13, 2015 N/AN/A (N/A)20,000 .. 50,00000:00 (00:00)Conflux GamesConflux Games
1342 Visibility May 25, 2015 FreeN/A (N/A)20,000 .. 50,00000:00 (00:00)ZeritumZeritum
1343 Tic-Toc-Tower Sep 28, 2015 $2.99N/A (N/A)0 .. 20,00000:00 (00:00)Sneaky MammothSOEDESCO
1344 FreezeME Dec 10, 2015 $13.99N/A (N/A)0 .. 20,00000:00 (00:00)Rainy Night CreationsRainy Night Creations
1345 Orbit HD Mar 18, 2015 $1.99N/A (N/A)20,000 .. 50,00000:00 (00:00)BrainchildBrainchild
1346 True Lover's Knot Nov 19, 2015 $6.99N/A (N/A)20,000 .. 50,00000:00 (00:00)Sapphire Dragon ProductionsSapphire Dragon Productions
1347 stratO Jun 1, 2015 $4.99N/A (N/A)0 .. 20,00000:00 (00:00)Mark ChongMark Chong
1348 Garden Rescue: Christmas Edition Nov 9, 2015 $3.99N/A (N/A)20,000 .. 50,00000:00 (00:00)Rainbow GamesRainbow Games
1349 Infinitrap Classic: Ohio Jack and The Cup Of Eternity Dec 22, 2015 FreeN/A (N/A)20,000 .. 50,00000:00 (00:00)Shadebob GamesShadebob Games
1350 Steam and Metal Feb 9, 2015 $4.99N/A (N/A)0 .. 20,00000:00 (00:00)MaltakreuzMaltakreuz
1351 Demon Hearts Aug 7, 2015 $3.99N/A (N/A)0 .. 20,00000:00 (00:00)Jon Harwood Games LLCJon Harwood Games LLC
1352 Snake Blocks Dec 21, 2015 $4.99N/A (N/A)20,000 .. 50,00000:00 (00:00)Spooky CatSpooky Cat
1353 BRAWL Aug 13, 2015 $14.99N/A (N/A)0 .. 20,00000:00 (00:00)Bloober Team SABloober Team SA
1354 Odysseus: Long Way Home Feb 23, 2015 $3.99N/A (N/A)50,000 .. 100,00000:00 (00:00)Rainbow GamesRainbow Games
1355 Swords & Crossbones: An Epic Pirate Story Sep 30, 2015 $4.99N/A (N/A)0 .. 20,00000:00 (00:00)Epic Devs LLCEpic Devs LLC
1356 Disposable Heroes Oct 1, 2015 $1.99N/A (N/A)0 .. 20,00000:00 (00:00)Ben ApriglianoEvilized productions
1357 Will Fight for Food: Super Actual Sellout: Game of the Hour Apr 22, 2015 $4.99N/A (N/A)20,000 .. 50,00000:00 (00:00)PyrodactylPyrodactyl
1358 Osteya Nov 20, 2015 $0.51N/A (N/A)100,000 .. 200,00000:00 (00:00)Volens Nolens GamesVolens Nolens Games
1359 Stones of Sorrow May 26, 2015 $2.99N/A (N/A)50,000 .. 100,00000:00 (00:00)Cult SoftwareCult Software
1360 Dungeon Hero Jul 7, 2015 $9.99N/A (N/A)20,000 .. 50,00000:00 (00:00)Grzegorz SlazinskiGrzegorz Slazinski
1361 Straima Sep 25, 2015 $4.99N/A (N/A)0 .. 20,00000:00 (00:00)Anthony CaseCaiysware
1362 Quarries of Scred Apr 22, 2015 $5.99N/A (N/A)0 .. 20,00000:00 (00:00)Hammerspace GamesHammerspace Games
1363 Weapon of Choice Sep 23, 2015 $4.99N/A (N/A)20,000 .. 50,00000:00 (00:00)Mommy's Best GamesMommy's Best Games
1364 Yet Another World Nov 30, 2015 $1.59N/A (N/A)50,000 .. 100,00000:00 (00:00)energy milkenergy milk
1365 BlastZone 2 Feb 19, 2015 $9.99N/A (N/A)0 .. 20,00000:00 (00:00)Matt EdzengaStrategy First
1366 Mighty Dungeons Mar 3, 2015 $4.99N/A (N/A)0 .. 20,00000:00 (00:00)Yohan Launay, Frederic GaillardLaylio Games
1367 Car Mechanic Manager Sep 23, 2015 $0.99N/A (N/A)20,000 .. 50,00000:00 (00:00)InImagesManager Games S.A.
1368 Force of Elements Dec 29, 2015 FreeN/A (N/A)20,000 .. 50,00000:00 (00:00)Wicked Fun, Inc.Wicked Fun, Inc.
1369 Bitweb Jun 3, 2015 FreeN/A (N/A)50,000 .. 100,00000:00 (00:00)practicing01practicing01
1370 Days Under Custody Nov 23, 2015 $4.99N/A (N/A)0 .. 20,00000:00 (00:00)Abraham CarreolaGroupees Interactive
1371 The Interview Feb 3, 2015 $1.99N/A (N/A)0 .. 20,00000:00 (00:00)AnothinkAnothink
1372 Heroes of Loot May 25, 2015 $4.99N/A (N/A)0 .. 20,00000:00 (00:00)OrangepixelOrangepixel
1373 Hidden: On the trail of the Ancients Aug 5, 2015 $9.99N/A (N/A)0 .. 20,00000:00 (00:00)Lost SpellLost Spell
1374 Farm Mechanic Simulator 2015 Apr 23, 2015 N/AN/A (N/A)0 .. 20,00000:00 (00:00)PlayWay, Si7Thomas Gwaltney
1375 Time Ramesside (A New Reckoning) May 1, 2015 $7.99N/A (N/A)50,000 .. 100,00000:00 (00:00)Panzer Gaming StudiosPanzer Gaming Studios
1376 Luminosity Apr 9, 2015 $4.99N/A (N/A)50,000 .. 100,00000:00 (00:00)Windmill GamesWindmill Games
1377 Shred! Downhill Mountain Biking Jul 8, 2015 $2.99N/A (N/A)0 .. 20,00000:00 (00:00)ASBO InteractiveASBO Interactive
1378 DEUS EX MACHINA 2 Mar 11, 2015 $6.99N/A (N/A)0 .. 20,00000:00 (00:00)Automata Source, QuirkafleegAutomata Source, Potassium Frog
1379 Sword Daughter Feb 13, 2015 $4.99N/A (N/A)20,000 .. 50,00000:00 (00:00)HanabiraHanako Games
1380 SoulCraft Jun 1, 2015 $0.99N/A (N/A)20,000 .. 50,00000:00 (00:00)MobileBitsHeadup Games
1381 Masterspace Jun 15, 2015 $7.99N/A (N/A)0 .. 20,00000:00 (00:00)MastertechMastertech
1382 Robbery Bob: Man of Steal Oct 21, 2015 $7.99N/A (N/A)0 .. 20,00000:00 (00:00)Level Eight ABLevel Eight AB
1383 Mystery of Neuschwanstein Feb 18, 2015 $11.99N/A (N/A)0 .. 20,00000:00 (00:00)Chimera Entertainmentastragon Entertainment
1384 Incredible Dracula: Chasing Love Collector's Edition Nov 29, 2015 $9.99N/A (N/A)0 .. 20,00000:00 (00:00)New Bridge GamesAlawar Entertainment
1385 1,000 Heads Among the Trees Dec 11, 2015 $4.99N/A (N/A)100,000 .. 200,00000:00 (00:00)Aaron OldenburgKISS ltd
1386 Keebles Mar 27, 2015 $9.99N/A (N/A)20,000 .. 50,00000:00 (00:00)Burnt FuseGreen Man Gaming Publishing
1387 City of Fools Jul 10, 2015 $7.99N/A (N/A)20,000 .. 50,00000:00 (00:00)Absolutist Ltd.Absolutist Ltd.
1388 The Mystery of a Lost Planet Dec 17, 2015 $4.99N/A (N/A)0 .. 20,00000:00 (00:00)AlikArt StudioAlikArt Studio
1389 Comic Book Hero: The Greatest Cape Dec 9, 2015 $19.99N/A (N/A)20,000 .. 50,00000:00 (00:00)Grey Dog SoftwareViva Media
1390 Airport Simulator 2015 Apr 22, 2015 $17.99N/A (N/A)20,000 .. 50,00000:00 (00:00)LinkSolutions Ltd.rondomedia GmbH
1391 Swapperoo Dec 18, 2015 $4.99N/A (N/A)0 .. 20,00000:00 (00:00)Fallen Tree Games LtdFallen Tree Games Ltd
1392 Galagan's Island: Reprymian Rising Jun 12, 2015 $1.99N/A (N/A)0 .. 20,00000:00 (00:00)Skinny Jean Death StudiosForever Humble PDX
1393 Diadra Empty Jul 21, 2015 $5.99N/A (N/A)0 .. 20,00000:00 (00:00)Frozen OrbRockin' Android
1394 Kumoon : Ballistic Physics Puzzle Nov 10, 2015 $2.99N/A (N/A)20,000 .. 50,00000:00 (00:00)Lucky You StudioLucky You Studio
1395 Shin Samurai Jazz Mar 16, 2015 $0.99N/A (N/A)0 .. 20,00000:00 (00:00)Blaze EpicBlaze Epic
1396 Farm Frenzy: Hurricane Season Apr 1, 2015 $6.99N/A (N/A)0 .. 20,00000:00 (00:00)Alawar Stargaze, Alawar EntertainmentBuka Entertainment
1397 Nusakana Nov 19, 2015 $8.99N/A (N/A)0 .. 20,00000:00 (00:00)Studio NamaapaStudio Namaapa
1398 AquaSnap Window Manager Dec 18, 2015 $18.99N/A (N/A)0 .. 20,00000:00 (00:00)Nurgo SoftwareNurgo Software
1399 Lost Legends: The Weeping Woman Collector's Edition Oct 21, 2015 $7.99N/A (N/A)0 .. 20,00000:00 (00:00)Gunnar GamesGunnar Games
1400 The Dreamatorium of Dr. Magnus 2 Sep 9, 2015 $7.99N/A (N/A)20,000 .. 50,00000:00 (00:00)Two DesperadosTwo Desperados
1401 Last Heroes Nov 13, 2015 $2.99N/A (N/A)20,000 .. 50,00000:00 (00:00)Warfare StudiosAldorlea Games
1402 Shoppy Mart: Steam Edition Sep 25, 2015 $1.99N/A (N/A)0 .. 20,00000:00 (00:00)PezomiPezomi
1403 Armor Clash Oct 22, 2015 $6.99N/A (N/A)0 .. 20,00000:00 (00:00)WindforceWindforce
1404 Rise: Battle Lines Nov 17, 2015 N/AN/A (N/A)0 .. 20,00000:00 (00:00)The Secret Games CompanyDigital Tribe
1405 samurai_jazz Jan 27, 2015 $0.99N/A (N/A)0 .. 20,00000:00 (00:00)Blaze EpicBlaze Epic
1406 Return NULL - Episode 1 Apr 2, 2015 FreeN/A (N/A)20,000 .. 50,00000:00 (00:00)Michael LückgenDigital Tribe, iNDEE SOLO
1407 Aero's Quest Jun 8, 2015 $4.99N/A (N/A)0 .. 20,00000:00 (00:00)Soloweb Studios, Ravens Eye StudioSoloweb Studios
1408 Pulut Adventure Jul 9, 2015 $1.99N/A (N/A)20,000 .. 50,00000:00 (00:00)yayapipiYayapipi Studio
1409 The Battle of Sol Jul 1, 2015 $9.99N/A (N/A)0 .. 20,00000:00 (00:00)Bit Planet Games, LLCBit Planet Games, LLC
1410 Island Defense Jul 23, 2015 $1.99N/A (N/A)50,000 .. 100,00000:00 (00:00)Stereo7 GamesStereo7 Games
1411 Monster Jam Battlegrounds Jun 10, 2015 N/AN/A (N/A)20,000 .. 50,00000:00 (00:00)Team6 game studios B.V.GameMill Entertainment
1412 Kings of Israel Dec 21, 2015 $4.99N/A (N/A)0 .. 20,00000:00 (00:00)Alastair John Jack, Lance HillFunhill Games
1413 Mystery of Unicorn Castle: The Beastmaster Dec 2015 $6.99N/A (N/A)20,000 .. 50,00000:00 (00:00)Meridian'931C Entertainment
1414 Ashes of Immortality Jun 26, 2015 $9.99N/A (N/A)50,000 .. 100,00000:00 (00:00)Warfare StudiosWarfare Studios
1415 Ninjahtic Jul 6, 2015 $1.99N/A (N/A)0 .. 20,00000:00 (00:00)Blaze EpicBlaze Epic
1416 Zenohell Oct 15, 2015 $9.99N/A (N/A)0 .. 20,00000:00 (00:00)Team Grybanser FoxTeam Grybanser Fox
1417 Snik Sep 4, 2015 $2.99N/A (N/A)20,000 .. 50,00000:00 (00:00)CleverweekCleverweek
1418 Nightside Apr 2, 2015 $4.99N/A (N/A)20,000 .. 50,00000:00 (00:00)OMNIDREAM CREATIONSOMNIDREAM CREATIONS
1419 Mechs & Mercs: Black Talons Jan 9, 2015 $3.99N/A (N/A)20,000 .. 50,00000:00 (00:00)Camel 101Camel 101
1420 Abyss Raiders: Uncharted Apr 30, 2015 $4.99N/A (N/A)50,000 .. 100,00000:00 (00:00)DarkStar GamesDarkStar Games
1421 The Undying Plague Apr 10, 2015 $0.99N/A (N/A)100,000 .. 200,00000:00 (00:00)Pixel Theory GamesPixel Theory Games
1422 The Adventures of Fatman Oct 1, 2015 $0.99N/A (N/A)20,000 .. 50,00000:00 (00:00)SOCKO! EntertainmentScreen 7
1423 Curses 'N Chaos Aug 18, 2015 $9.99N/A (N/A)20,000 .. 50,00000:00 (00:00)Tribute Games Inc.Tribute Games Inc.
1424 Adventures of Robinson Crusoe Jan 9, 2015 $9.99N/A (N/A)20,000 .. 50,00000:00 (00:00)MagicIndieMumboJumbo
1425 Epsilon Oct 1, 2015 N/AN/A (N/A)50,000 .. 100,00000:00 (00:00)Serellan LLCSerellan LLC
1426 VERLIES II Sep 25, 2015 $4.99N/A (N/A)20,000 .. 50,00000:00 (00:00)Koya GameKoya Game
1427 Project Pulsation Dec 15, 2015 $4.99N/A (N/A)50,000 .. 100,00000:00 (00:00)VGstudioVGstudio
1428 Brighter Day Jul 17, 2015 $2.99N/A (N/A)0 .. 20,00000:00 (00:00)girl softwaregirl software
1429 Dodge Mar 16, 2015 $1.99N/A (N/A)20,000 .. 50,00000:00 (00:00)YokcosYokcos
1430 Rack N Ruin Sep 1, 2015 $9.99N/A (N/A)0 .. 20,00000:00 (00:00)LifeSpark EntertainmentLifeSpark Entertainment
1431 TankZone Battle Sep 21, 2015 $9.99N/A (N/A)0 .. 20,00000:00 (00:00)Render SystemRender System
1432 Solitaire Christmas. Match 2 Cards Dec 24, 2015 $4.99N/A (N/A)50,000 .. 100,00000:00 (00:00)Creobit8Floor
1433 4089: Ghost Within Jan 9, 2015 $5.99N/A (N/A)0 .. 20,00000:00 (00:00)Phr00t's SoftwarePhr00t's Software
1434 Idol Hands Feb 18, 2015 $4.99N/A (N/A)20,000 .. 50,00000:00 (00:00)Pocket Games, Fluid Games, GodSpeed GamesGreen Man Gaming Publishing
1435 Crocotile 3D May 7, 2015 $24.99N/A (N/A)0 .. 20,00000:00 (00:00)Alex Hanson-WhiteAlex Hanson-White
1436 Plastiland Dec 1, 2015 $7.99N/A (N/A)0 .. 20,00000:00 (00:00)FreshGem, Zillion WhalesZillion Whales
1437 The Big Secret of a Small Town Mar 2, 2015 $6.99N/A (N/A)20,000 .. 50,00000:00 (00:00)FlenxBuka Entertainment
1438 MyDream Feb 20, 2015 FreeN/A (N/A)20,000 .. 50,00000:00 (00:00)MyDream Interactive, IncMyDream Interactive, Inc
1439 Aces of the Luftwaffe May 6, 2015 $4.99N/A (N/A)20,000 .. 50,00000:00 (00:00)HandyGamesHandyGames
1440 Discouraged Workers Sep 16, 2015 $14.9998% (59%)0 .. 20,00000:00 (00:00)YGGDRASIL STUDIOYGGDRASIL STUDIO
1441 Scribble Space Jun 1, 2015 $1.99N/A (N/A)20,000 .. 50,00000:00 (00:00)Coty GetzelmanN/A
1442 Luna's Wandering Stars May 15, 2015 $9.99N/A (N/A)50,000 .. 100,00000:00 (00:00)Serenity ForgeSerenity Forge
1443 Block Legend DX Feb 24, 2015 $4.99N/A (N/A)20,000 .. 50,00000:00 (00:00)Hanaji GamesHanaji Games, Gamera Game
1444 Pitiri 1977 Jan 3, 2015 $3.99N/A (N/A)20,000 .. 50,00000:00 (00:00)ILIKESCIFI GamesILIKESCIFI Games
1445 Blind Love Jun 28, 2015 $0.99N/A (N/A)0 .. 20,00000:00 (00:00)Michaela LawsMichaela Laws
1446 RETSNOM Jul 23, 2015 $4.99N/A (N/A)0 .. 20,00000:00 (00:00)SomiZero Rock Entertainment
1447 Neoncube Oct 2, 2015 $0.99N/A (N/A)0 .. 20,00000:00 (00:00)David Lawrence, Nico ThomasDavid Lawrence
1448 Vampire of the Sands Jul 17, 2015 $4.99N/A (N/A)0 .. 20,00000:00 (00:00)HomphHomph LLC
1449 Funk of Titans Jul 24, 2015 $6.99N/A (N/A)0 .. 20,00000:00 (00:00)A Crowd of MonstersMerge Games
1450 Power of Love Jul 21, 2015 $0.99N/A (N/A)20,000 .. 50,00000:00 (00:00)Yang SunYang Sun
1451 Circuit Breakers - Multiplayer twin stick shoot 'em up Nov 17, 2015 $2.37N/A (N/A)50,000 .. 100,00000:00 (00:00)TriverskeTriverske, Excalibur Games
1452 Alone in the Dark: Illumination Jun 11, 2015 $19.99N/A (N/A)20,000 .. 50,00000:00 (00:00)Pure FPSTHQ Nordic
1453 Gigachess Dec 15, 2015 $3.99N/A (N/A)0 .. 20,00000:00 (00:00)Drixxel SoftDrixxel Soft
1454 Heroes Never Lose: Professor Puzzler's Perplexing Ploy Nov 23, 2015 $8.99N/A (N/A)0 .. 20,00000:00 (00:00)Magic PantsSpearhead
1455 Sumo Revise Jun 25, 2015 $4.99N/A (N/A)50,000 .. 100,00000:00 (00:00)John Szymanski, Evan Szymanski, David SzymanskiJohn Szymanski
1456 Idol Magical Girl Chiru Chiru Michiru Part 2 Jul 29, 2015 $19.99N/A (N/A)20,000 .. 50,00000:00 (00:00)FrontwingFrontwing USA
1457 Cardinal Quest 2 Nov 23, 2015 $14.99N/A (N/A)0 .. 20,00000:00 (00:00)Randomnine LtdRandomnine Ltd
1458 An Assassin in Orlandes May 12, 2015 $4.99N/A (N/A)0 .. 20,00000:00 (00:00)Tin Man GamesTin Man Games
1459 Song of the Myrne: What Lies Beneath Jan 13, 2015 $4.99N/A (N/A)20,000 .. 50,00000:00 (00:00)Beldarak GamesBeldarak Games
1460 ENYO Arcade Nov 9, 2015 FreeN/A (N/A)0 .. 20,00000:00 (00:00)James Mearmanwww.dev-zoo.net
1461 Arvale Aug 14, 2015 $7.99N/A (N/A)0 .. 20,00000:00 (00:00)Jaybot7Aldorlea Games
1462 Emerland Solitaire: Endless Journey Jan 6, 2015 FreeN/A (N/A)20,000 .. 50,00000:00 (00:00)Rainbow GamesRainbow Games
1463 Curse of the Crescent Isle DX Aug 21, 2015 $0.99N/A (N/A)20,000 .. 50,00000:00 (00:00)Adam MoweryAdam Mowery
1464 Last Days of Spring Visual Novel Oct 7, 2015 $2.99N/A (N/A)20,000 .. 50,00000:00 (00:00)Sapphire Dragon ProductionsSapphire Dragon Productions
1465 Badland Bandits Jul 16, 2015 FreeN/A (N/A)20,000 .. 50,00000:00 (00:00)Wild Wolf StdWild Wolf Std
1466 Shallow Space Oct 21, 2015 $14.99N/A (N/A)0 .. 20,00000:00 (00:00)astragon Sales & Services GmbH
1467 Farm Frenzy: Heave Ho Aug 26, 2015 $4.99N/A (N/A)0 .. 20,00000:00 (00:00)Alawar Stargaze, Alawar EntertainmentBuka Entertainment
1468 Plush Feb 13, 2015 $0.99N/A (N/A)0 .. 20,00000:00 (00:00)Red Head GamesRed Head Games
1469 Stranded In Time Jul 17, 2015 $2.99N/A (N/A)50,000 .. 100,00000:00 (00:00)DQ Team, Hidden Hallow StudioValkyrieInitiative
1470 Loot Hunter Jan 23, 2015 $6.99N/A (N/A)0 .. 20,00000:00 (00:00)Rake in GrassRake in Grass
1471 Chainsaw Warrior: Lords of the Night Feb 17, 2015 $5.99N/A (N/A)20,000 .. 50,00000:00 (00:00)Auroch DigitalAuroch Digital
1472 Vapour Jul 3, 2015 $0.99N/A (N/A)50,000 .. 100,00000:00 (00:00)Skobbejak GamesSkobbejak Games
1473 Forsaken Fortress Strategy Sep 18, 2015 $9.99N/A (N/A)20,000 .. 50,00000:00 (00:00)Photon ArenaKISS ltd
1474 Loot Hound Nov 17, 2015 $7.99N/A (N/A)0 .. 20,00000:00 (00:00)Rhizome Games™Rhizome Games™
1475 Vintage Year Jan 2, 2015 $3.99N/A (N/A)20,000 .. 50,00000:00 (00:00)Nooner Bear Studio LLCNooner Bear Studio LLC
1476 One Last Day Apr 28, 2015 $12.99N/A (N/A)0 .. 20,00000:00 (00:00)Bloodwolf StudioBloodwolf Studio
1477 Miner Mayhem Sep 23, 2015 $2.99N/A (N/A)20,000 .. 50,00000:00 (00:00)Anarchy EnterprisesAnarchy Enterprises
1478 Luna Sky Oct 2, 2015 $12.99N/A (N/A)50,000 .. 100,00000:00 (00:00)Vovoid Media Technologies ABKISS ltd
1479 ALPAGES : THE FIVE BOOKS Oct 14, 2015 $0.99N/A (N/A)20,000 .. 50,00000:00 (00:00)Nicolas BernardMicroids Indie
1480 ChargeShot Sep 18, 2015 $9.99N/A (N/A)20,000 .. 50,00000:00 (00:00)Cowboy ColorCowboy Color
1481 Kill The Plumber Dec 31, 2015 $4.99N/A (N/A)0 .. 20,00000:00 (00:00)Keybol, Iskander AminovTekitown
1482 Adventurezator: When Pigs Fly Sep 17, 2015 $19.99N/A (N/A)0 .. 20,00000:00 (00:00)Pigasus GamesDegica
1483 Supreme: Pizza Empire Jan 9, 2015 $9.99N/A (N/A)0 .. 20,00000:00 (00:00)Nexeon StudiosNexeon Studios
1484 Towers of Altrac - Epic Defense Battles Jan 5, 2015 $2.99N/A (N/A)20,000 .. 50,00000:00 (00:00)Jsmael Stieger, Manuel Stieger, Andreas StiegerCybertron Design Studios
1485 MiniDrivers Aug 20, 2015 N/AN/A (N/A)20,000 .. 50,00000:00 (00:00)Ivanovich GamesIvanovich Games
1486 R.B.I. Baseball 15 Apr 30, 2015 N/AN/A (N/A)0 .. 20,00000:00 (00:00)MLB.comMLB.com
1487 I must kill...: Fresh Meat Nov 30, 2015 FreeN/A (N/A)50,000 .. 100,00000:00 (00:00)Gaming Cats StudioGaming Cats Studio
1488 All My Gods Oct 13, 2015 $3.99N/A (N/A)0 .. 20,00000:00 (00:00)RealoreQumaron
1489 Reload Feb 13, 2015 $4.99N/A (N/A)0 .. 20,00000:00 (00:00)Top3Line s.r.o.Mastiff
1490 Shadows on the Vatican Act II: Wrath Oct 26, 2015 $6.99N/A (N/A)20,000 .. 50,00000:00 (00:00)Daring Touch, 10th Art StudioAdventure Productions, Daring Touch
1491 Lex Mortis Feb 9, 2015 $4.99N/A (N/A)50,000 .. 100,00000:00 (00:00)Dennis EsieDennis Esie
1492 Ghost Encounters: Deadwood - Collector's Edition Mar 13, 2015 $6.99N/A (N/A)20,000 .. 50,00000:00 (00:00)Anarchy EnterprisesAnarchy Enterprises
1493 Riding Out Dec 24, 2015 $19.99N/A (N/A)0 .. 20,00000:00 (00:00)UnexEvoUnexEvo
1494 Top Trumps Turbo Mar 20, 2015 $2.99N/A (N/A)0 .. 20,00000:00 (00:00)Good Day Games, NYX DigitalFunbox Media Ltd
1495 Remnants Of Isolation May 1, 2015 $1.99N/A (N/A)50,000 .. 100,00000:00 (00:00)Team IsolationDegica
1496 Reign of Bullets Aug 19, 2015 $9.99N/A (N/A)0 .. 20,00000:00 (00:00)Critical BitCritical Bit, Triangle Studios
1497 Stargazer May 28, 2015 $4.99N/A (N/A)50,000 .. 100,00000:00 (00:00)John WizardAmaranth Games
1498 Super Trench Attack 2 Nov 6, 2015 $2.99N/A (N/A)20,000 .. 50,00000:00 (00:00)Retro Army Limitedpaulstephendavis
1499 Dead Sea Mar 25, 2015 N/AN/A (N/A)50,000 .. 100,00000:00 (00:00)๋The Dead Sea is changing.The Dead Sea is changing.
1500 RPG Maker 2000 Jul 13, 2015 $24.99N/A (N/A)20,000 .. 50,00000:00 (00:00)Gotcha Gotcha Games, KADOKAWA, Yoji OjimaDegica
1501 Star Trek: Starfleet Academy May 8, 2015 $9.99N/A (N/A)50,000 .. 100,00000:00 (00:00)Interplay Entertainment Corp.Interplay Entertainment Corp.
1502 Rescue Team 5 Sep 30, 2015 $3.99N/A (N/A)0 .. 20,00000:00 (00:00)RionixAlawar Entertainment
1503 Olympia Rising Jul 23, 2015 $4.99N/A (N/A)20,000 .. 50,00000:00 (00:00)PaleozoicPaleozoic
1504 A-Train 9 V4.0 : Japan Rail Simulator Oct 21, 2015 $59.99N/A (N/A)0 .. 20,00000:00 (00:00)ARTDINKDegica
1505 Untamed: Life Of A Cougar Aug 27, 2015 $2.99N/A (N/A)0 .. 20,00000:00 (00:00)OCCA StudiosStrategy First
1506 Breezeblox May 15, 2015 $2.99N/A (N/A)20,000 .. 50,00000:00 (00:00)Pugsley LLCPugsley LLC
1507 Hollywood Visionary May 1, 2015 $4.99N/A (N/A)0 .. 20,00000:00 (00:00)Choice of GamesChoice of Games
1508 Foosball: World Tour Dec 11, 2015 $8.99N/A (N/A)0 .. 20,00000:00 (00:00)Grip Games, 3DivisionGrip Games
1509 Mirrored - Chapter 1 Oct 30, 2015 $0.99N/A (N/A)20,000 .. 50,00000:00 (00:00)Kelkafa Studios, Cardboard Sword Limited, Jet Stone StudiosKelkafa Studios
1510 Chronicle Keepers: The Dreaming Garden Jun 11, 2015 $0.49N/A (N/A)20,000 .. 50,00000:00 (00:00)Novaq GamesUltimate Games S.A.
1511 Way of Gold and Steel Aug 17, 2015 $1.97N/A (N/A)20,000 .. 50,00000:00 (00:00)Sergey BobrovSergey Bobrov
1512 Chronicles of the Witches and Warlocks Nov 18, 2015 $4.99N/A (N/A)20,000 .. 50,00000:00 (00:00)8Floor8Floor
1513 Kingdoms CCG Jan 22, 2015 N/AN/A (N/A)200,000 .. 500,00000:00 (00:00)Ganz StudioGanz
1514 Three Digits Aug 14, 2015 $1.99N/A (N/A)200,000 .. 500,00000:00 (00:00)CleverweekCleverweek
1515 Metamorphabet Apr 29, 2015 $4.99N/A (N/A)0 .. 20,00000:00 (00:00)VectorparkVectorpark
1516 Nancy Drew: Sea of Darkness May 19, 2015 $19.99N/A (N/A)0 .. 20,00000:00 (00:00)HeR InteractiveHeR Interactive
1517 Living Legends: The Frozen Fear Collection Oct 13, 2015 $19.99N/A (N/A)20,000 .. 50,00000:00 (00:00)4Friends GamesViva Media
1518 Caveman Craig Aug 28, 2015 $4.99N/A (N/A)0 .. 20,00000:00 (00:00)Parabox GamesParabox Games
1519 Airport Madness: Time Machine Sep 18, 2015 $6.99N/A (N/A)20,000 .. 50,00000:00 (00:00)Big Fat Simulations Inc.Big Fat Simulations Inc.
1520 Labyrinth Simulator Sep 21, 2015 $4.99N/A (N/A)0 .. 20,00000:00 (00:00)Phoenix Game and Publisher StudioPhoenix Game and Publisher Studio
1521 Luxor HD May 11, 2015 $9.99N/A (N/A)20,000 .. 50,00000:00 (00:00)MumboJumboMumboJumbo
1522 Gon' E-Choo! Nov 25, 2015 $0.99N/A (N/A)0 .. 20,00000:00 (00:00)Marc EllisMarc Ellis
1523 Kanji Training Game Sep 23, 2015 $4.99N/A (N/A)0 .. 20,00000:00 (00:00)Targhen GamesTarghen Games
1524 The Seven Years War (1756-1763) Oct 30, 2015 $19.99N/A (N/A)20,000 .. 50,00000:00 (00:00)Oliver KeppelmüllerOliver Keppelmüller
1525 Hit Tank PRO Dec 2, 2015 $2.99N/A (N/A)50,000 .. 100,00000:00 (00:00)Bacq StellanOtakuMaker.com
1526 Race Track Builder Aug 20, 2015 $59.99N/A (N/A)0 .. 20,00000:00 (00:00)Brendon PywellBrendon Pywell
1527 Asguaard Apr 10, 2015 $14.99N/A (N/A)0 .. 20,00000:00 (00:00)Aldorlea GamesAldorlea Games
1528 Adventure in the Tower of Flight Dec 23, 2015 $4.99N/A (N/A)0 .. 20,00000:00 (00:00)Pixel Barrage Entertainment, Inc.Pixel Barrage Entertainment, Inc.
1529 Dragonpath Dec 14, 2015 $7.99N/A (N/A)0 .. 20,00000:00 (00:00)Ebonscale GamesEbonscale Games
1530 Pendragon Rising Dec 4, 2015 $3.99N/A (N/A)0 .. 20,00000:00 (00:00)Choice of GamesChoice of Games
1531 The Rivers of Alice - Extended Version Nov 16, 2015 $7.99N/A (N/A)0 .. 20,00000:00 (00:00)Delirium Studios, pequeño salto mortalMerge Games, Tagstar Games, Delirium Studios
1532 NOBUNAGA'S AMBITION: Tendou with Power Up Kit / 信長の野望・天道 with パワーアップキット Jun 25, 2015 $54.99N/A (N/A)50,000 .. 100,00000:00 (00:00)KOEI TECMO GAMES CO., LTD.KOEI TECMO GAMES CO., LTD.
1533 Infinite Space III: Sea of Stars Oct 29, 2015 $4.99N/A (N/A)20,000 .. 50,00000:00 (00:00)Digital EelDigital Eel
1534 Velocity 2X Aug 19, 2015 $19.99N/A (N/A)0 .. 20,00000:00 (00:00)FuturLabSierra
1535 Joe's Diner Mar 31, 2015 $7.99N/A (N/A)0 .. 20,00000:00 (00:00)VIS-GamesUnited Independent Entertainment GmbH
1536 Anode Oct 5, 2015 $3.99N/A (N/A)20,000 .. 50,00000:00 (00:00)Kittehface SoftwareKittehface Software
1537 Vortex Attack: ボルテックスアタック May 27, 2015 $7.99N/A (N/A)20,000 .. 50,00000:00 (00:00)KaleidoGamesKaleidoGames
1538 Miracle Fly Oct 26, 2015 $7.99N/A (N/A)20,000 .. 50,00000:00 (00:00)ElagoTechElagoTech
1539 Lumber Island - That Special Place Oct 1, 2015 $4.99N/A (N/A)20,000 .. 50,00000:00 (00:00)DeanForgeDeanForge
1540 Dark Quest Jan 21, 2015 $1.49N/A (N/A)20,000 .. 50,00000:00 (00:00)Brain Seal LtdBrain Seal Ltd
1541 Incandescent Jun 30, 2015 $0.99N/A (N/A)20,000 .. 50,00000:00 (00:00)Stephen CrabbStephen Crabb
1542 Into the Void Dec 4, 2015 $1.99N/A (N/A)20,000 .. 50,00000:00 (00:00)Mozg LabsMozg Labs
1543 Regimental Chess Apr 29, 2015 $0.99N/A (N/A)50,000 .. 100,00000:00 (00:00)Regimental Chess Dev.Regimental Chess Inc.
1544 Air Guardians Jan 26, 2015 $0.99N/A (N/A)50,000 .. 100,00000:00 (00:00)Lazy Bum GamesLazy Bum Games
1545 Waves 2: Notorious Dec 16, 2015 $9.99N/A (N/A)0 .. 20,00000:00 (00:00)Squid In A Box LtdSquid In A Box Ltd
1546 Stardust Vanguards Jan 30, 2015 $3.99N/A (N/A)20,000 .. 50,00000:00 (00:00)Zanrai InteractiveZanrai Interactive
1547 The Hero of Kendrickstone Mar 13, 2015 $4.99N/A (N/A)0 .. 20,00000:00 (00:00)Choice of GamesChoice of Games
1548 MODO indie Sep 24, 2015 N/AN/A (N/A)0 .. 20,00000:00 (00:00)FoundryFoundry
1549 Ruzar - The Life Stone Dec 2, 2015 $12.99N/A (N/A)0 .. 20,00000:00 (00:00)Hammer Glass StudioHammer Glass Studio
1550 Night Shift Feb 23, 2015 $4.99N/A (N/A)20,000 .. 50,00000:00 (00:00)Brandon BrizziBrandon Brizzi
1551 Jagged Alliance Online: Reloaded Sep 24, 2015 N/AN/A (N/A)0 .. 20,00000:00 (00:00)Cliffhanger ProductionsCliffhanger Productions
1552 Proto Raider Aug 28, 2015 $11.99N/A (N/A)0 .. 20,00000:00 (00:00)Puzzle LabPuzzle Lab
1553 Malebolgia May 6, 2015 $12.99N/A (N/A)20,000 .. 50,00000:00 (00:00)DascuMaruDascuMaru
1554 868-HACK Jan 27, 2015 $5.65N/A (N/A)0 .. 20,00000:00 (00:00)Michael BroughMichael Brough
1555 FPV Freerider Apr 17, 2015 $5.99N/A (N/A)0 .. 20,00000:00 (00:00)John HolmvallJord&Eld
1556 Time Tenshi (2015) Nov 20, 2015 $2.49N/A (N/A)0 .. 20,00000:00 (00:00)Silver Cow StudioSilver Cow Studio
1557 Shot In The Dark Jun 10, 2015 FreeN/A (N/A)50,000 .. 100,00000:00 (00:00)Technomancy StudiosTechnomancy Studios
1558 Indie Game Battle Oct 29, 2015 N/AN/A (N/A)20,000 .. 50,00000:00 (00:00)Blob Games StudioBlob Games Studio
1559 Airport Firefighters - The Simulation May 13, 2015 $17.99N/A (N/A)20,000 .. 50,00000:00 (00:00)Visual Imagination Software GbRrondomedia GmbH
1560 Vagrant Hearts Feb 27, 2015 $9.99N/A (N/A)20,000 .. 50,00000:00 (00:00)Warfare StudiosWarfare Studios
1561 ANKI Aug 17, 2015 $0.99N/A (N/A)100,000 .. 200,00000:00 (00:00)Wojciech KrupinskiKrupinskiArt
1562 Pay2Win: The Tricks Exposed Dec 15, 2015 $4.99N/A (N/A)0 .. 20,00000:00 (00:00)Best Gaem StudioBest Gaem Studio
1563 Astral Terra Nov 10, 2015 $9.99N/A (N/A)0 .. 20,00000:00 (00:00)Tethys Interactive LLCTethys Interactive LLC
1564 Poker Pretty Girls Battle: Texas Hold'em Oct 21, 2015 $4.99N/A (N/A)20,000 .. 50,00000:00 (00:00)Zoo CorporationZoo Corporation
1565 EV3 - Drag Racing Mar 1, 2015 FreeN/A (N/A)50,000 .. 100,00000:00 (00:00)KABloom InteractiveKABloom Interactive
1566 Stories of Bethem: Full Moon Dec 11, 2015 $4.99N/A (N/A)0 .. 20,00000:00 (00:00)GuGames DevelopmentGuGames Development
1567 Littlewitch Romanesque: Editio Regia Apr 3, 2015 $14.99N/A (N/A)0 .. 20,00000:00 (00:00)LittlewitchJAST USA
1568 MegaSphere Aug 25, 2015 $14.99N/A (N/A)0 .. 20,00000:00 (00:00)AKGamesAKGames
1569 Super Dungeon Run Jul 17, 2015 $4.99N/A (N/A)0 .. 20,00000:00 (00:00)Proper GamesProper Games
1570 Squarelands Jul 16, 2015 $3.99N/A (N/A)20,000 .. 50,00000:00 (00:00)Oryon EntertainmentOryon Entertainment
1571 Pushcat Jan 12, 2015 $4.99N/A (N/A)0 .. 20,00000:00 (00:00)Zut GamesZut Games
1572 Moonshot Dec 21, 2015 $4.99N/A (N/A)0 .. 20,00000:00 (00:00)Pump Action GamesPump Action Games
1573 Spider: Rite of the Shrouded Moon Aug 6, 2015 $9.99N/A (N/A)20,000 .. 50,00000:00 (00:00)Tiger StyleTiger Style
1574 Telepath Tactics Apr 16, 2015 $14.99N/A (N/A)0 .. 20,00000:00 (00:00)Sinister DesignSinister Design
1575 MotoGP15 Compact Dec 10, 2015 $9.99N/A (N/A)50,000 .. 100,00000:00 (00:00)Milestone S.r.l.Milestone S.r.l.
1576 Your Quest Apr 13, 2015 FreeN/A (N/A)50,000 .. 100,00000:00 (00:00)Oblivionburn ProductionsOblivionburn Productions
1577 Glass Wing Jun 24, 2015 FreeN/A (N/A)50,000 .. 100,00000:00 (00:00)From Soy Sauce LLCFrom Soy Sauce LLC
1578 Turtle Odyssey Oct 21, 2015 $2.99N/A (N/A)0 .. 20,00000:00 (00:00)RealoreQumaron
1579 Gunslugs Jun 2, 2015 $4.99N/A (N/A)20,000 .. 50,00000:00 (00:00)OrangepixelOrangepixel
1580 RC Mini Racers Jul 16, 2015 $4.99N/A (N/A)20,000 .. 50,00000:00 (00:00)DecaneDecane
1581 Fallen: A2P Protocol Aug 14, 2015 $9.99N/A (N/A)20,000 .. 50,00000:00 (00:00)Red KatanaRed Katana
1582 Steel Rain Dec 3, 2015 $9.99N/A (N/A)20,000 .. 50,00000:00 (00:00)PolarityFlow, Adrian ZinggPolarityFlow
1583 The Prism Sep 8, 2015 $0.99N/A (N/A)0 .. 20,00000:00 (00:00)Nikhil. T, Gabriel. HVolens Nolens Games
1584 Diner Mania Jun 25, 2015 $3.99N/A (N/A)0 .. 20,00000:00 (00:00)InImagesGlob Games Studio
1585 Dark Matter Feb 27, 2015 $4.99N/A (N/A)20,000 .. 50,00000:00 (00:00)Meridian4Meridian4
1586 Cosmophony Jul 9, 2015 $4.99N/A (N/A)0 .. 20,00000:00 (00:00)Bento-StudioFrogames
1587 8-Bit Adventures: The Forgotten Journey Remastered Edition Mar 31, 2015 $9.99N/A (N/A)20,000 .. 50,00000:00 (00:00)Critical GamesCritical Games
1588 in Space Apr 27, 2015 $0.99N/A (N/A)0 .. 20,00000:00 (00:00)Ed Curtis-SivessYsty Games
1589 Revolution Under Siege Gold Jul 2, 2015 $24.99N/A (N/A)20,000 .. 50,00000:00 (00:00)Sep Reds, AgeodSlitherine Ltd.
1590 Stick 'Em Up 2: Paper Adventures Jul 27, 2015 $2.99N/A (N/A)20,000 .. 50,00000:00 (00:00)Never Don't PlayNever Don't Play
1591 Night Mysteries: The Amphora Prisoner Feb 26, 2015 $0.99N/A (N/A)100,000 .. 200,00000:00 (00:00)Anvate GamesAnvate Games
1592 War of the Human Tanks - ALTeR Feb 13, 2015 $12.99N/A (N/A)20,000 .. 50,00000:00 (00:00)Yakiniku BanzaiFruitbat Factory
1593 Chip's Challenge 2 May 28, 2015 $4.99N/A (N/A)20,000 .. 50,00000:00 (00:00)Niffler Ltd.Niffler Ltd.
1594 Laserlife Sep 22, 2015 $9.99N/A (N/A)20,000 .. 50,00000:00 (00:00)Choice ProvisionsChoice Provisions
1595 The Last Crown: Midnight Horror Oct 29, 2015 $4.99N/A (N/A)20,000 .. 50,00000:00 (00:00)Darkling RoomIceberg Interactive
1596 Aerannis Sep 15, 2015 $0.99N/A (N/A)20,000 .. 50,00000:00 (00:00)ektomarchektomarch
1597 Shadow Ninja: Apocalypse Nov 16, 2015 $1.99N/A (N/A)20,000 .. 50,00000:00 (00:00)Boogygames StudiosBoogygames Studios
1598 Urja Jan 9, 2015 $9.99N/A (N/A)20,000 .. 50,00000:00 (00:00)Breaking FourthByteTrail Software
1599 Truck Mechanic Simulator 2015 May 1, 2015 $9.99N/A (N/A)20,000 .. 50,00000:00 (00:00)PlayWay SASillysoft Games
1600 Arms Dealer Mar 26, 2015 N/AN/A (N/A)0 .. 20,00000:00 (00:00)Case in Point Studios, LLCCase in Point Studios, LLC
1601 The Lady Jan 29, 2015 FreeN/A (N/A)50,000 .. 100,00000:00 (00:00)Mikeypoo's Games, Roger LevyMPR ART Hallucinations
1602 ClusterPuck 99 Jan 23, 2015 $4.99N/A (N/A)0 .. 20,00000:00 (00:00)PHL CollectivePHL Collective
1603 The Treasures of Montezuma 5 Dec 28, 2015 $6.99N/A (N/A)0 .. 20,00000:00 (00:00)Wellore, Alawar EntertainmentBuka Entertainment
1604 You Are Not a Banana: Better Edition Feb 19, 2015 $0.99N/A (N/A)20,000 .. 50,00000:00 (00:00)Brian CullenFluxscopic Ltd.
1605 Royal Bounty HD Aug 10, 2015 $2.99N/A (N/A)0 .. 20,00000:00 (00:00)iosoftwareHack The Publisher
1606 Trapped Dead: Lockdown Mar 20, 2015 $0.99N/A (N/A)50,000 .. 100,00000:00 (00:00)Bigmoon StudiosHeadup Games
1607 Idle Civilization Nov 23, 2015 $4.99N/A (N/A)0 .. 20,00000:00 (00:00)Very Simple Idea StudiosVery Simple Idea Studios
1608 Shoot 1UP Sep 23, 2015 $3.99N/A (N/A)20,000 .. 50,00000:00 (00:00)Mommy's Best GamesMommy's Best Games
1609 Tennis in the Face Nov 18, 2015 $4.99N/A (N/A)0 .. 20,00000:00 (00:00)10tons Ltd10tons Ltd
1610 Below Kryll Sep 7, 2015 $4.99N/A (N/A)0 .. 20,00000:00 (00:00)Team KryllTeam Kryll
1611 A Wise Use of Time Sep 4, 2015 $5.99N/A (N/A)0 .. 20,00000:00 (00:00)Choice of GamesChoice of Games
1612 Diabolical Nov 6, 2015 $3.99N/A (N/A)0 .. 20,00000:00 (00:00)Choice of GamesChoice of Games
1613 Dustbowl May 18, 2015 $8.99N/A (N/A)0 .. 20,00000:00 (00:00)The Pompous PixelThe Pompous Pixel
1614 Farmocalypse Nov 24, 2015 N/AN/A (N/A)20,000 .. 50,00000:00 (00:00)Glowstick EntertainmentGlowstick Entertainment
1615 1931: Scheherazade at the Library of Pergamum Mar 26, 2015 $4.99N/A (N/A)0 .. 20,00000:00 (00:00)Black Chicken Studios, inc.Black Chicken Studios, inc.
1616 Star Trek : 25th Anniversary May 7, 2015 $9.99N/A (N/A)50,000 .. 100,00000:00 (00:00)Interplay Entertainment Corp.Interplay Entertainment Corp.
1617 Big Fish Legend Jul 20, 2015 FreeN/A (N/A)0 .. 20,00000:00 (00:00)Igry.ruIgry.ru
1618 Clandestinity of Elsie Jul 8, 2015 FreeN/A (N/A)20,000 .. 50,00000:00 (00:00)COLNELIUS, Albin BernhardssonCOLNELIUS
1619 Aaru's Awakening Feb 23, 2015 $14.99N/A (N/A)20,000 .. 50,00000:00 (00:00)Lumenox ehfLumenox ehf
1620 Cast of the Seven Godsends - Redux Jul 20, 2015 $9.99N/A (N/A)20,000 .. 50,00000:00 (00:00)Raven Travel StudiosMerge Games, IV Productions
1621 Auto Dealership Tycoon Oct 23, 2015 $5.99N/A (N/A)0 .. 20,00000:00 (00:00)Diggidy.netDiggidy.net
1622 Alien Robot Monsters Sep 9, 2015 $5.99N/A (N/A)0 .. 20,00000:00 (00:00)Kraftix GamesKraftix Games
1623 Legends of Solitaire: Curse of the Dragons Sep 28, 2015 $4.99N/A (N/A)0 .. 20,00000:00 (00:00)The Revills GamesThe Revills Games
1624 Total Extreme Wrestling 2010 Mar 19, 2015 $14.99N/A (N/A)0 .. 20,00000:00 (00:00)Grey Dog SoftwareViva Media
1625 Sketch Tales Sep 28, 2015 $1N/A (N/A)0 .. 20,00000:00 (00:00)8D Studio8D Studio
1626 Fly in the House Mar 6, 2015 $9.99N/A (N/A)20,000 .. 50,00000:00 (00:00)Mykhail KonokhMykhail Konokh
1627 MadOut Open City Dec 18, 2015 $7.99N/A (N/A)20,000 .. 50,00000:00 (00:00)MadOut GamesMadOut Games
1628 Gunman Clive 2 Sep 3, 2015 $2.99N/A (N/A)0 .. 20,00000:00 (00:00)Hörberg ProductionsHörberg Productions
1629 Dreamscapes: Nightmare's Heir - Premium Edition Mar 11, 2015 $6.99N/A (N/A)20,000 .. 50,00000:00 (00:00)Shaman Games Studio1C Entertainment
1630 Siege Wars Jul 30, 2015 $1.99N/A (N/A)0 .. 20,00000:00 (00:00)RunServerRunServer
1631 Incitement 3 Aug 19, 2015 $5.99N/A (N/A)100,000 .. 200,00000:00 (00:00)Astronomic GamesNew Reality Games
1632 BiT Evolution Jun 9, 2015 $9.99N/A (N/A)50,000 .. 100,00000:00 (00:00)Major GamesMajor Games
1633 CodeSpells Sep 18, 2015 $4.99N/A (N/A)0 .. 20,00000:00 (00:00)ThoughtSTEM, LLCThoughtSTEM, LLC
1634 Bloody Streets Mar 12, 2015 $4.99N/A (N/A)20,000 .. 50,00000:00 (00:00)Headless WizardHeadless Wizard
1635 There Was A Caveman Oct 8, 2015 $6.99N/A (N/A)100,000 .. 200,00000:00 (00:00)Nauris AmatnieksNauris Amatnieks
1636 Alphadia Genesis Jan 12, 2015 $9.99N/A (N/A)20,000 .. 50,00000:00 (00:00)EXE-CREATEKEMCO
1637 Garden Rescue Feb 2, 2015 $3.99N/A (N/A)100,000 .. 200,00000:00 (00:00)Rainbow GamesRainbow Games
1638 Shutshimi Aug 25, 2015 $4.99N/A (N/A)50,000 .. 100,00000:00 (00:00)Neon Deity GamesChoice Provisions
1639 I, Gladiator Apr 7, 2015 $7.99N/A (N/A)0 .. 20,00000:00 (00:00)Steel MonkeysNext Dimension Game Adventures Ltd.
1640 Raiden Legacy - Steam Edition Dec 10, 2015 $4.99N/A (N/A)20,000 .. 50,00000:00 (00:00)DotemuDotemu
1641 Rugby League Live 3 Sep 29, 2015 $19.99N/A (N/A)0 .. 20,00000:00 (00:00)Big Ant StudiosBig Ant Studios (Steam), Tru Blu Games
1642 Porcunipine May 21, 2015 $9.99N/A (N/A)20,000 .. 50,00000:00 (00:00)Big Green PillowCurve Digital
1643 Backgammon Blitz Nov 12, 2015 $3.99N/A (N/A)20,000 .. 50,00000:00 (00:00)VooFoo StudiosNomad Games
1644 Elements: Soul of Fire Jan 12, 2015 N/AN/A (N/A)50,000 .. 100,00000:00 (00:00)Soul CatapultNew Reality Games
1645 Tinertia Sep 3, 2015 $11.99N/A (N/A)0 .. 20,00000:00 (00:00)Candescent Games, Section StudiosCandescent & Section
1646 Fitz the Fox Aug 6, 2015 $3.99N/A (N/A)20,000 .. 50,00000:00 (00:00)Bread Vision Studios LLC.Bread Vision Studios LLC.
1647 World of Mixed Martial Arts 3 Mar 19, 2015 $19.99N/A (N/A)20,000 .. 50,00000:00 (00:00)Grey Dog SoftwareViva Media
1648 Pyramid Raid Dec 15, 2015 $2.99N/A (N/A)20,000 .. 50,00000:00 (00:00)Travian Games GmbHTravian Games GmbH
1649 FLAMBERGE Mar 25, 2015 $9.99N/A (N/A)0 .. 20,00000:00 (00:00)HYDEZEKEStardock Entertainment
1650 No Time To Live Sep 30, 2015 $1.99N/A (N/A)20,000 .. 50,00000:00 (00:00)Snail-Ninja StudioSnail-Ninja Studio
1651 Colortone Oct 29, 2015 $3.99N/A (N/A)50,000 .. 100,00000:00 (00:00)Greendev.Valkyrie Initiative
1652 Prominence Nov 6, 2015 $19.99N/A (N/A)0 .. 20,00000:00 (00:00)Digital Media WorkshopDigital Media Workshop
1653 Woof Blaster Sep 22, 2015 FreeN/A (N/A)20,000 .. 50,00000:00 (00:00)Fabian JarrettFabian Jarrett
1654 Dungeon Kingdom: Sign of the Moon Nov 19, 2015 $18.99N/A (N/A)0 .. 20,00000:00 (00:00)Hydro GamesHydro Games
1655 The Dwarf Run Oct 21, 2015 $8.99N/A (N/A)20,000 .. 50,00000:00 (00:00)Alexander MirdzveliAlexander Mirdzveli
1656 Battle of the Bulge Sep 17, 2015 $9.99N/A (N/A)20,000 .. 50,00000:00 (00:00)Shenandoah StudioSlitherine Ltd.
1657 Battle Fantasia -Revised Edition- Jul 7, 2015 $14.99N/A (N/A)20,000 .. 50,00000:00 (00:00)Arc System Works, DotEmuArc System Works
1658 Wooden Floor Feb 13, 2015 $1.99N/A (N/A)50,000 .. 100,00000:00 (00:00)pheenix93pheenix93
1659 Quell Reflect May 14, 2015 $3.99N/A (N/A)0 .. 20,00000:00 (00:00)Fallen Tree Games LtdGreen Man Gaming Publishing
1660 Square Brawl Oct 22, 2015 $4.99N/A (N/A)0 .. 20,00000:00 (00:00)LandfallLandfall
1661 Artifact Adventure May 19, 2015 $6.99N/A (N/A)20,000 .. 50,00000:00 (00:00)bluffmanPLAYISM
1662 I Shall Remain Aug 24, 2015 $9.99N/A (N/A)20,000 .. 50,00000:00 (00:00)Scorpius GamesScorpius Games
1663 Relive Oct 15, 2015 N/AN/A (N/A)50,000 .. 100,00000:00 (00:00)Studio EvilStudio Evil
1664 Sirius Jun 1, 2015 $4.99N/A (N/A)100,000 .. 200,00000:00 (00:00)Digital Dawn StudiosDigital Dawn Studios
1665 Botology Jun 24, 2015 $0.99N/A (N/A)50,000 .. 100,00000:00 (00:00)Black Lime StudioBlack Lime Studio
1666 Our Love Will Grow Dec 4, 2015 $4.99N/A (N/A)20,000 .. 50,00000:00 (00:00)John WizardJohn Wizard
1667 Unpossible Jul 3, 2015 $2.99N/A (N/A)0 .. 20,00000:00 (00:00)Acceleroto, Inc.Acceleroto, Inc.
1668 Almightree: The Last Dreamer Sep 7, 2015 $4.99N/A (N/A)20,000 .. 50,00000:00 (00:00)ChocoartsDigital Tribe
1669 Gnumz: Masters of Defense Dec 21, 2015 $0.49N/A (N/A)200,000 .. 500,00000:00 (00:00)Creobit8Floor
1670 Universal Combat CE Feb 6, 2015 $9.99N/A (N/A)0 .. 20,00000:00 (00:00)3000AD3000AD
1671 Yargis - Space Melee Jun 30, 2015 $4.99N/A (N/A)50,000 .. 100,00000:00 (00:00)PlazSoftPlazSoft
1672 Pixel Star May 22, 2015 $2.99N/A (N/A)20,000 .. 50,00000:00 (00:00)Soul ForgeSoul Forge
1673 Yomi May 8, 2015 $14.99N/A (N/A)0 .. 20,00000:00 (00:00)Sirlin GamesSirlin Games
1674 Mold on Pizza Sep 25, 2015 $5.99N/A (N/A)20,000 .. 50,00000:00 (00:00)BTNcafeBTNcafe
1675 Star Nomad 2 Dec 14, 2015 $12.99N/A (N/A)50,000 .. 100,00000:00 (00:00)Huy PhanHuy Phan
1676 Carp Fishing Simulator: Complete Edition Apr 28, 2015 $12.99N/A (N/A)20,000 .. 50,00000:00 (00:00)Dangerous Derk InteractiveDangerous Derk Interactive
1677 Sound Shift Aug 26, 2015 FreeN/A (N/A)20,000 .. 50,00000:00 (00:00)Matthew BrownMatthew Brown
1678 Trash TV Feb 23, 2015 $6.99N/A (N/A)20,000 .. 50,00000:00 (00:00)Lawrence RussellReverb Triple XP
1679 Selfie : Sisters of the Amniotic Lens May 8, 2015 N/AN/A (N/A)100,000 .. 200,00000:00 (00:00)Rail Slave GamesKISS ltd
1680 Into The War Dec 2, 2015 N/AN/A (N/A)50,000 .. 100,00000:00 (00:00)Small Town StudiosSmall Town Studios
1681 Umihara Kawase Nov 2, 2015 $9.99N/A (N/A)0 .. 20,00000:00 (00:00)Studio SaizensenDegica
1682 Transcendence Jul 24, 2015 $8.99N/A (N/A)0 .. 20,00000:00 (00:00)Kronosaur ProductionsKronosaur Productions
1683 Super Mutant Alien Assault Aug 20, 2015 $9.99N/A (N/A)0 .. 20,00000:00 (00:00)CybernateSurprise Attack
1684 Epic Quest of the 4 Crystals Sep 25, 2015 $9.99N/A (N/A)20,000 .. 50,00000:00 (00:00)RosePortal GamesAldorlea Games
1685 Porradaria 2: Pagode of the Night Mar 12, 2015 N/AN/A (N/A)50,000 .. 100,00000:00 (00:00)CleanWaterSoftCleanWaterSoft
1686 Mooch Sep 7, 2015 $4.99N/A (N/A)0 .. 20,00000:00 (00:00)Crank GoblinCrank Goblin
1687 Data Hacker: Reboot Apr 17, 2015 $0.49N/A (N/A)50,000 .. 100,00000:00 (00:00)New Reality GamesNew Reality Games
1688 The Dark Stone from Mebara Feb 27, 2015 $7.99N/A (N/A)100,000 .. 200,00000:00 (00:00)Jerseyware GamingKISS ltd
1689 Emergency 2016 Oct 15, 2015 N/AN/A (N/A)20,000 .. 50,00000:00 (00:00)Sixteen Tons EntertainmentDeep Silver
1690 The Way We All Go Mar 24, 2015 $5.99N/A (N/A)0 .. 20,00000:00 (00:00)ebi-himeebi-hime
1691 Highschool Possession Dec 9, 2015 $12.99N/A (N/A)0 .. 20,00000:00 (00:00)Dharker StudioDharker Studios Ltd
1692 Hidden Object Bundle 5 in 1 Feb 27, 2015 $9.99N/A (N/A)20,000 .. 50,00000:00 (00:00)Alawar EntertainmentAlawar Entertainment
1693 Gratuitous Space Battles 2 Apr 16, 2015 $9.99N/A (N/A)20,000 .. 50,00000:00 (00:00)Positech GamesPositech Games
1694 The Lost Valley Apr 20, 2015 $4.99N/A (N/A)200,000 .. 500,00000:00 (00:00)AndrewDrumov, Sanke BerdochanAndrewDrumov
1695 Psycho Starship Rampage Sep 28, 2015 $9.99N/A (N/A)0 .. 20,00000:00 (00:00)Ballistic FrogsBallistic Frogs
1696 Flame Over May 28, 2015 $11.99N/A (N/A)20,000 .. 50,00000:00 (00:00)Laughing Jackal LTDGhostlight LTD
1697 Black & White Bushido Oct 2, 2015 $12.99N/A (N/A)20,000 .. 50,00000:00 (00:00)Good Catch GamesGreen Man Gaming Publishing, Good Catch Games
1698 SickBrick Jan 30, 2015 N/AN/A (N/A)50,000 .. 100,00000:00 (00:00)Maxwolf, FoxMaxwolf, Fox
1699 Sayonara Umihara Kawase Oct 6, 2015 $14.99N/A (N/A)0 .. 20,00000:00 (00:00)Studio SaizensenDegica
1700 Parcel Apr 22, 2015 $4.99N/A (N/A)20,000 .. 50,00000:00 (00:00)Polar Bunny LtdPolar Bunny Ltd
1701 The Madness of Little Emma Dec 21, 2015 $8.99N/A (N/A)20,000 .. 50,00000:00 (00:00)Bartosz BojarowskiBartosz Bojarowski
1702 Alum May 15, 2015 $4.99N/A (N/A)20,000 .. 50,00000:00 (00:00)Crashable StudiosN/A
1703 March of War: FaceOff - XL Nov 18, 2015 N/AN/A (N/A)50,000 .. 100,00000:00 (00:00)ISOTXISOTX
1704 AntharioN Jul 15, 2015 $14.99N/A (N/A)50,000 .. 100,00000:00 (00:00)Orphic SoftwareOrphic Software
1705 Bermuda Mar 17, 2015 $2.99N/A (N/A)50,000 .. 100,00000:00 (00:00)InvertMouseInvertMouse
1706 VERGE:Lost chapter Oct 1, 2015 $0.49N/A (N/A)20,000 .. 50,00000:00 (00:00)GDNomadInfernal Dream
1707 Uriel's Chasm 2: את Nov 13, 2015 $4.99N/A (N/A)200,000 .. 500,00000:00 (00:00)Rail Slave GamesKPL
1708 LOOP: A Tranquil Puzzle Game May 22, 2015 $4.99N/A (N/A)0 .. 20,00000:00 (00:00)John CullenJohn Cullen
1709 Counter Spell Oct 5, 2015 $9.99N/A (N/A)0 .. 20,00000:00 (00:00)Abnormal SoftwareAbnormal Software
1710 How to Take Off Your Mask Jun 19, 2015 $11.99N/A (N/A)0 .. 20,00000:00 (00:00)ROSEVERTEROSEVERTE
1711 Pixel Fodder Jul 20, 2015 FreeN/A (N/A)20,000 .. 50,00000:00 (00:00)Wachawacha.ru
1712 Resilience Wave Survival Dec 23, 2015 $4.99N/A (N/A)0 .. 20,00000:00 (00:00)Jimbob GamesJimbob Games
1713 Legend of Dungeon: Masters Nov 30, 2015 N/AN/A (N/A)100,000 .. 200,00000:00 (00:00)Robot Loves KittyRobot Loves Kitty
1714 Ant War: Domination Oct 2, 2015 $4.99N/A (N/A)20,000 .. 50,00000:00 (00:00)Anarchy EnterprisesAnarchy Enterprises
1715 Hero Generations Apr 10, 2015 $5.99N/A (N/A)0 .. 20,00000:00 (00:00)Heart Shaped Games LLCHeart Shaped Games LLC
1716 Астролорды: Облако Оорта Sep 29, 2015 FreeN/A (N/A)50,000 .. 100,00000:00 (00:00)Aratog LLCTartezal Holdings Ltd.
1717 Devil's Bluff Oct 29, 2015 $3.99N/A (N/A)20,000 .. 50,00000:00 (00:00)KBJGamesKBJGames
1718 PixelJunk Shooter Ultimate Oct 21, 2015 $9.99N/A (N/A)50,000 .. 100,00000:00 (00:00)Q-Games Ltd., Double ElevenDouble Eleven
1719 NOBUNAGA’S AMBITION: Kakushin with Power Up Kit / 信長の野望・革新 with パワーアップキット Jun 25, 2015 $54.99N/A (N/A)50,000 .. 100,00000:00 (00:00)KOEI TECMO GAMES CO., LTD.KOEI TECMO GAMES CO., LTD.
1720 Survivor Squad: Gauntlets Nov 16, 2015 $4.99N/A (N/A)20,000 .. 50,00000:00 (00:00)Endless Loop StudiosEndless Loop Studios
1721 Nomad Fleet Jul 14, 2015 $4.99N/A (N/A)50,000 .. 100,00000:00 (00:00)AutarcaAutarca
1722 Crash Dive Jul 6, 2015 $3.99N/A (N/A)50,000 .. 100,00000:00 (00:00)Panic Ensues SoftwarePanic Ensues Software
1723 Chinese Paladin:Sword and Fairy 6 Jul 8, 2015 $14.99N/A (N/A)0 .. 20,00000:00 (00:00)SOFTSTAR ENTERTAINMENT INC.SOFTSTAR ENTERTAINMENT INC.
1724 Giana Sisters 2D Oct 23, 2015 $7.99N/A (N/A)20,000 .. 50,00000:00 (00:00)Kasaa SolutionHandyGames, Black Forest Games
1725 Freshman Year Apr 20, 2015 FreeN/A (N/A)20,000 .. 50,00000:00 (00:00)Nina Freeman, Laura Knetzger, Stephen Lawrence ClarkN/A
1726 Tulpa Jan 29, 2015 $2.99N/A (N/A)50,000 .. 100,00000:00 (00:00)EncryptiqueEncryptique
1727 Militia Dec 2, 2015 $5.99N/A (N/A)20,000 .. 50,00000:00 (00:00)BrainGoodGamesBrainGoodGames
1728 Overlord: Fellowship of Evil Oct 19, 2015 $9.99N/A (N/A)50,000 .. 100,00000:00 (00:00)CodemastersCodemasters
1729 The Cat Machine Aug 12, 2015 $14.99N/A (N/A)0 .. 20,00000:00 (00:00)CranktrainCranktrain
1730 Undefeated Apr 3, 2015 $9.99N/A (N/A)20,000 .. 50,00000:00 (00:00)Aldorlea GamesAldorlea Games
1731 Zotrix Jul 24, 2015 $12.99N/A (N/A)50,000 .. 100,00000:00 (00:00)ZeroBit GamesOcean Media LLC
1732 Fake Colours Jan 1, 2015 $14.99N/A (N/A)100,000 .. 200,00000:00 (00:00)Beyond-Limits-Games, FCGBudget Friendly Entertainment
1733 Tetris Ultimate Dec 10, 2015 N/AN/A (N/A)50,000 .. 100,00000:00 (00:00)Ubisoft - San FranciscoUbisoft - San Francisco
1734 The Amber Throne Jul 6, 2015 $14.99N/A (N/A)0 .. 20,00000:00 (00:00)Joshua MissileJoshua Missile
1735 Knee Deep Jul 6, 2015 $19.99N/A (N/A)0 .. 20,00000:00 (00:00)Prologue GamesPrologue Games
1736 The Hurricane of the Varstray -Collateral hazard- Dec 21, 2015 $9.99N/A (N/